[[{"header":{"parameterUnit":"m.s-1","parameterCategory":1,"la1":30.6,"la2":29.2853,"lo1":-89.7004,"lo2":-87.6739,"dy":0.0162,"dx":0.0183,"nx":112,"ny":82,"refTime":"2023-09-26T00:00:00:Z","depth":0,"parameterNumber":2,"parameterNumberName":"U-component_of_WINDS"},"data":[0.0,0.0,0.0,0.0,0.0,0.0,0.0,0.0,0.0,0.0,0.0,0.0,0.0,0.0,0.0,0.0,0.0,0.0,0.0,0.0,0.0,0.0,0.0,0.0,0.0,0.0,0.0,0.0,0.0,0.0,0.0,0.0,0.0,0.0,0.0,0.0,0.0,0.0,0.0,0.0,0.0,0.0,0.0,0.0,0.0,0.0,0.0,0.0,0.0,0.0,0.0,0.0,0.0,0.0,0.0,0.0,0.0,0.0,0.0,0.0,0.0,0.0,0.0,0.0,0.0,0.0,0.0,0.0,0.0,0.0,0.0,0.0,0.0,0.0,0.0,0.0,0.0,0.0,0.0,0.0,0.0,0.0,0.0,0.0,0.0,0.0,0.0,0.0,0.0,0.0,1.1048,1.2261,1.4011,1.539,1.606,1.5485,1.4934,1.4568,0.0,0.0,0.0,0.0,0.0,0.0,0.0,0.0,0.0,0.0,0.0,0.0,0.0,0.0,0.0,0.0,0.0,0.0,0.0,0.0,0.0,0.0,0.0,0.0,0.0,0.0,0.0,0.0,0.0,0.0,0.0,0.0,0.0,0.0,0.0,0.0,0.0,0.0,0.0,0.0,0.0,0.0,0.0,0.0,0.0,0.0,0.0,0.0,0.0,0.0,0.0,0.0,0.0,0.0,0.0,0.0,0.0,0.0,0.0,0.0,0.0,0.0,0.0,0.0,0.0,0.0,0.0,0.0,0.0,0.0,0.0,0.0,0.0,0.0,0.0,0.0,0.0,0.0,0.0,0.0,0.0,0.0,0.0,0.0,0.0,0.0,0.0,0.0,0.0,0.0,0.0,0.0,0.0,0.0,0.0,0.0,0.0,0.0,0.0,0.0,0.0,0.0,0.0,0.0,1.1685,1.343,1.4821,1.5867,1.6543,1.6136,1.5562,1.4893,0.0,0.0,0.0,0.0,0.0,0.0,0.0,0.0,0.0,0.0,0.0,0.0,0.0,0.0,0.0,0.0,0.0,0.0,0.0,0.0,0.0,0.0,0.0,0.0,0.0,0.0,0.0,0.0,0.0,0.0,0.0,0.0,0.0,0.0,0.0,0.0,0.0,0.0,0.0,0.0,0.0,0.0,0.0,0.0,0.0,0.0,0.0,0.0,0.0,0.0,0.0,0.0,0.0,0.0,0.0,0.0,0.0,0.0,0.0,0.0,0.0,0.0,0.0,0.0,0.0,0.0,0.0,0.0,0.0,0.0,0.0,0.0,0.0,0.0,0.0,0.0,0.0,0.0,0.0,0.0,0.0,0.0,0.0,0.0,0.0,0.0,0.0,0.0,0.0,0.0,0.0,0.0,0.0,0.0,0.0,0.0,0.0,0.0,0.0,0.0,0.0,0.0,0.0,1.1636,1.2595,1.3674,1.486,1.5704,1.5966,1.5704,1.521,1.4516,1.3045,0.0,0.0,0.0,0.0,0.0,0.0,0.0,0.0,0.0,0.0,0.0,0.0,0.0,0.0,0.0,0.0,0.0,0.0,0.0,0.0,0.0,0.0,0.0,0.0,0.0,0.0,0.0,0.0,0.0,0.0,0.0,0.0,0.0,0.0,0.0,0.0,0.0,0.0,0.0,0.0,0.0,0.0,0.0,0.0,0.0,0.0,0.0,0.0,0.0,0.0,0.0,0.0,0.0,0.0,0.0,0.0,0.0,0.0,0.0,0.0,0.0,0.0,0.0,0.0,0.0,0.0,0.0,0.0,0.0,0.0,0.0,0.0,0.0,0.0,0.0,0.0,0.0,0.0,0.0,0.0,0.0,0.0,0.0,0.0,0.0,0.0,0.0,0.0,0.0,0.0,0.0,0.0,0.0,0.0,0.0,0.0,0.0,0.0,0.0,0.0,0.0,0.0,1.2334,1.3089,1.353,1.4512,1.5123,1.5146,1.4979,1.4574,1.3955,1.2907,0.0,0.0,0.0,0.0,0.0,0.0,0.0,0.0,0.0,0.0,0.0,0.0,0.0,0.0,0.0,0.0,0.0,0.0,0.0,0.0,0.0,0.0,0.0,0.0,0.0,0.0,0.0,0.0,0.0,0.0,0.0,0.0,0.0,0.0,0.0,0.0,0.0,0.0,0.0,0.0,0.0,0.0,0.0,0.0,0.0,0.0,0.0,0.0,0.0,0.0,0.0,0.0,0.0,0.0,0.0,0.0,0.0,0.0,0.0,0.0,0.0,0.0,0.0,0.0,0.0,0.0,0.0,0.0,0.0,0.0,0.0,0.0,0.0,0.0,0.0,0.0,0.0,0.0,0.0,0.0,0.0,0.0,0.0,0.0,0.0,0.0,0.0,0.0,0.0,0.0,0.0,0.0,0.0,0.0,0.0,0.0,0.0,0.0,0.0,0.0,0.0,0.0,1.2109,1.2568,1.3154,1.3689,1.4135,1.4433,1.4218,1.3867,1.3378,1.2579,0.0,0.0,0.0,0.0,0.0,0.0,0.0,0.0,0.0,0.0,0.0,0.0,0.0,0.0,0.0,0.0,0.0,0.0,0.0,0.0,0.0,0.0,0.0,0.0,0.0,0.0,0.0,0.0,0.0,0.0,0.0,0.0,0.0,0.0,0.0,0.0,0.0,0.0,0.0,0.0,0.0,0.0,0.0,0.0,0.0,0.0,0.0,0.0,0.0,0.0,0.0,0.0,0.0,0.0,0.0,0.0,0.0,0.0,0.0,0.0,0.0,0.0,0.0,0.0,0.0,0.0,0.0,0.0,0.0,0.0,0.0,0.0,0.0,0.0,0.0,0.0,0.0,0.0,0.0,0.0,0.0,0.0,0.0,0.0,0.0,0.0,0.0,0.0,0.0,0.0,0.0,0.0,0.0,0.0,0.0,0.0,0.0,0.0,0.0,0.0,0.0,0.0,1.1975,1.2432,0.0,1.3143,1.338,1.3271,1.3153,1.2863,1.2381,0.0,0.0,0.0,0.0,0.0,0.0,0.0,0.0,0.0,0.0,0.0,0.0,0.0,0.0,0.0,0.0,0.0,0.0,0.0,0.0,0.0,0.0,0.0,0.0,0.0,0.0,0.0,0.0,0.0,0.0,0.0,0.0,0.0,0.0,0.0,0.0,0.0,0.0,0.0,0.0,0.0,0.0,0.0,0.0,0.0,0.0,0.0,0.0,0.0,0.0,0.0,0.0,0.0,0.0,0.0,0.0,0.0,0.0,0.0,0.0,0.0,0.0,0.0,0.0,0.0,0.0,0.0,0.0,0.0,0.0,0.0,0.0,0.0,0.0,0.0,0.0,0.0,0.0,0.0,0.0,0.0,0.0,0.0,0.0,0.0,0.0,0.0,0.0,0.0,0.0,0.0,0.0,0.0,0.0,0.0,0.0,0.0,0.0,0.0,0.0,0.0,0.0,1.1275,1.1699,1.2037,0.0,1.2405,1.2408,1.2234,1.208,1.1869,1.1601,0.0,0.0,0.0,0.0,0.0,0.0,0.0,0.0,0.0,0.0,0.0,0.0,0.0,0.0,0.0,0.0,0.0,0.0,0.0,0.0,0.0,0.0,0.0,0.0,0.0,0.0,0.0,0.0,0.0,0.0,0.0,0.0,0.0,0.0,0.0,0.0,0.0,0.0,0.0,0.0,0.0,0.0,0.0,0.0,0.0,0.0,0.0,0.0,0.0,0.0,0.0,0.0,0.0,0.0,0.0,0.0,0.0,0.0,0.0,0.0,0.0,0.0,0.0,0.0,0.0,0.0,0.0,0.0,0.0,0.0,0.0,0.0,0.0,0.0,0.0,0.0,0.0,0.0,0.0,0.0,0.0,0.0,0.0,0.0,0.0,0.0,0.0,0.0,0.0,0.0,0.0,0.0,0.0,0.0,0.0,0.0,0.0,0.0,0.0,0.0,0.0,0.0,1.1252,1.1293,1.1416,1.1657,1.1388,1.1265,1.1394,1.1089,1.0947,0.0,0.0,0.0,0.0,0.0,0.0,0.0,0.0,0.0,0.0,0.0,0.0,0.0,0.0,0.0,0.0,0.0,0.0,0.0,0.0,0.0,0.0,0.0,0.0,0.0,0.0,0.0,0.0,0.0,0.0,0.0,0.0,0.0,0.0,0.0,0.0,0.0,0.0,0.0,0.0,0.0,0.0,0.0,0.0,0.0,0.0,0.0,0.0,0.0,0.0,0.0,0.0,0.0,0.0,0.0,0.0,0.0,0.0,0.0,0.0,0.0,0.0,0.0,0.0,0.0,0.0,0.0,0.0,0.0,0.0,0.0,0.0,0.0,0.0,0.0,0.0,0.0,0.0,0.0,0.0,0.0,0.0,0.0,0.0,0.0,0.0,0.0,0.0,0.0,0.0,0.0,0.0,0.0,0.0,0.0,0.0,0.0,0.0,0.0,0.0,0.0,0.0,0.0,1.0825,1.0929,1.1019,1.0996,1.0906,1.0784,1.0562,1.0415,1.0294,1.0189,0.0,0.0,0.0,0.0,0.0,0.0,0.0,0.0,0.0,0.0,0.0,0.0,0.0,0.0,0.0,0.0,0.0,0.0,0.0,0.0,0.0,0.0,0.0,0.0,0.0,0.0,0.0,0.0,0.0,0.0,0.0,0.0,0.0,0.0,0.0,0.0,0.0,0.0,0.0,0.0,0.0,0.0,0.0,0.0,0.0,0.0,0.0,0.0,0.0,0.0,0.0,0.0,0.0,0.0,0.0,0.0,0.0,0.0,0.0,0.0,0.0,0.0,0.0,0.0,0.0,0.0,0.0,0.0,0.0,0.0,0.0,0.0,0.0,0.0,0.0,0.0,0.0,0.0,0.0,0.0,0.0,0.0,0.0,0.0,0.0,0.0,0.0,0.0,0.0,0.0,0.0,0.0,0.0,0.0,0.0,0.0,0.0,0.0,0.0,0.0,0.0,0.0,1.0524,1.0657,1.0707,1.0533,1.0542,1.0412,0.9981,1.0059,0.9983,0.9686,0.0,0.0,0.0,0.0,0.0,0.0,0.0,0.0,0.0,0.0,0.0,0.0,0.0,0.0,0.0,0.0,0.0,0.0,0.0,0.0,0.0,0.0,0.0,0.0,0.0,0.0,0.0,0.0,0.0,0.0,0.0,0.0,0.0,0.0,0.0,0.0,0.0,0.0,0.0,0.0,0.0,0.0,0.0,0.0,0.0,0.0,0.0,0.0,0.0,0.0,0.0,0.0,0.0,0.0,0.0,0.0,0.0,0.0,0.0,0.0,0.0,0.0,0.0,0.0,0.0,0.0,0.0,0.0,0.0,0.0,0.0,0.0,0.0,0.0,0.0,0.0,0.0,0.0,0.0,0.0,0.0,0.0,0.0,0.0,0.0,0.0,0.0,0.0,0.0,0.0,0.0,0.0,0.0,0.0,0.0,0.0,0.0,0.0,0.0,0.0,0.0,0.0,1.0317,1.044,1.0459,1.0189,1.0282,1.015,0.9648,0.9865,0.9872,0.9505,0.0,0.0,0.0,0.0,0.0,0.0,0.0,0.0,0.0,0.0,0.0,0.0,0.0,0.0,0.0,0.0,0.0,0.0,0.0,0.0,0.0,0.0,0.0,0.0,0.0,0.0,0.0,0.0,0.0,0.0,0.0,0.0,0.0,0.0,0.0,0.0,0.0,0.0,0.0,0.0,0.0,0.0,0.0,0.0,0.0,0.0,0.0,0.0,0.0,0.0,0.0,0.0,0.0,0.0,0.0,0.0,0.0,0.0,0.0,0.0,1.3786,1.3154,0.0,0.0,0.0,0.0,0.0,0.0,0.0,0.0,0.0,0.0,0.0,0.0,0.0,0.0,0.0,0.0,0.0,0.0,0.0,0.0,0.0,0.0,0.0,0.0,0.0,0.0,0.0,0.0,0.0,0.0,0.0,0.0,0.0,0.0,0.0,0.0,0.0,0.0,0.0,0.0,0.9985,1.0069,1.0141,0.9985,0.9981,0.99,0.9624,0.9571,0.9471,0.9283,0.9485,0.0,0.0,0.0,0.0,0.0,0.0,0.0,0.0,0.0,0.0,0.0,0.0,0.0,0.0,0.0,0.0,0.0,0.0,0.0,0.0,0.0,0.0,0.0,0.0,0.0,0.0,0.0,0.0,0.0,0.0,0.0,0.0,0.0,0.0,0.0,0.0,0.0,0.0,0.0,0.0,0.0,0.0,0.0,0.0,0.0,0.0,0.0,0.0,0.0,0.0,0.0,0.0,0.0,0.0,0.0,0.0,0.0,0.0,0.0,1.5035,1.4404,0.0,0.0,0.0,0.0,0.0,0.0,0.0,0.0,0.0,0.0,0.0,0.0,0.0,0.0,0.0,0.0,0.0,0.0,0.0,0.0,0.0,0.0,0.0,0.0,0.0,0.0,0.0,0.0,0.0,0.0,0.0,0.0,0.0,0.0,0.0,0.0,0.0,0.0,0.0,0.0,0.9851,0.987,0.9858,0.9755,0.9835,0.9803,0.9518,0.9539,0.9405,0.9083,0.9426,0.0,0.0,0.0,0.0,0.0,0.0,0.0,0.0,0.0,0.0,0.0,0.0,0.0,0.0,0.0,0.0,0.0,0.0,0.0,0.0,0.0,0.0,0.0,0.0,0.0,0.0,0.0,0.0,0.0,0.0,0.0,0.0,0.0,0.0,0.0,0.0,0.0,0.0,0.0,0.0,0.0,0.0,0.0,0.0,0.0,0.0,0.0,0.0,0.0,0.0,0.0,0.0,0.0,1.6773,1.7025,1.7254,1.7083,1.7074,1.7195,1.6238,1.5739,1.5496,1.4427,0.0,0.0,0.0,0.0,0.0,0.0,0.0,0.0,0.0,0.0,0.0,0.0,0.0,0.0,0.0,0.0,0.0,0.0,0.0,0.0,0.0,0.0,0.0,0.0,1.0915,1.0814,1.1277,0.0,0.0,0.0,0.0,0.0,0.0,0.0,0.0,0.0,0.0,0.0,0.9705,0.9699,0.9671,0.9608,0.9754,0.9746,0.9453,0.9565,0.9441,0.8965,0.9422,0.9463,0.0,0.0,0.0,0.0,0.0,0.0,0.0,0.0,0.0,0.0,0.0,0.0,0.0,0.0,0.0,0.0,0.0,0.0,0.0,0.0,0.0,0.0,0.0,0.0,0.0,0.0,0.0,0.0,0.0,0.0,0.0,0.0,1.5006,1.4579,0.0,0.0,0.0,0.0,0.0,0.0,0.0,0.0,0.0,0.0,0.0,0.0,0.0,1.6637,1.6366,1.7111,1.7326,1.7019,1.7286,1.7431,1.7476,1.7661,1.7636,1.7443,1.6945,0.0,1.5463,1.4605,0.0,0.0,0.0,0.0,0.0,0.0,0.0,0.0,0.0,0.0,0.0,0.0,0.0,0.0,0.0,0.0,0.0,0.0,0.0,0.0,0.0,0.0,1.2066,1.1851,1.1389,1.1072,0.0,1.113,1.1084,1.1134,1.1237,0.0,0.0,0.0,0.0,0.0,0.0,0.0,0.9283,0.948,0.9663,0.9608,0.9624,0.9616,0.9575,0.9494,0.9327,0.9097,0.9037,0.8942,0.8739,0.9174,0.0,0.0,0.0,0.0,0.0,0.0,0.0,0.0,0.0,0.0,0.0,0.0,0.0,0.0,0.0,0.0,0.0,0.0,0.0,0.0,0.0,0.0,0.0,0.0,0.0,0.0,0.0,0.0,0.0,1.4937,1.5553,1.5082,1.526,1.5138,0.0,0.0,0.0,0.0,0.0,0.0,0.0,0.0,0.0,1.6119,1.6884,1.7138,1.6858,1.7467,1.7545,1.7175,1.744,1.7562,1.7572,1.759,1.7551,1.741,1.675,1.6167,1.5601,1.4802,1.4228,1.3859,0.0,0.0,0.0,0.0,1.3322,1.2954,1.3319,1.3265,1.3032,1.2839,0.0,0.0,0.0,0.0,0.0,0.0,0.0,0.0,0.0,0.0,1.223,1.225,1.1912,1.1587,1.1553,1.1438,1.1203,0.0,1.094,1.1018,1.0619,0.0,0.0,0.0,0.0,0.9469,0.9435,0.9488,0.9542,0.9608,0.9599,0.9599,0.9599,0.9551,0.9445,0.9277,0.9102,0.8947,0.8817,0.9134,0.9339,0.0,0.0,0.0,0.0,0.0,0.0,0.0,0.0,0.0,0.0,0.0,0.0,0.0,0.0,0.0,0.0,0.0,0.0,0.0,0.0,0.0,0.0,0.0,0.0,0.0,0.0,0.0,0.0,1.5237,1.5885,1.5406,1.5676,1.5553,0.0,0.0,0.0,0.0,0.0,0.0,1.4491,1.5317,1.6009,1.6435,1.7116,1.7341,1.7042,1.7497,1.7546,1.7139,1.7386,1.7501,1.7443,1.7341,1.7274,1.718,1.6428,1.5986,1.5757,1.4924,1.4429,1.4239,1.4037,1.3861,1.3762,1.3897,1.361,1.3184,1.3384,1.3275,1.3022,1.2776,1.3059,1.3449,1.3021,0.0,0.0,0.0,0.0,1.2758,1.2709,1.263,1.2609,1.2744,1.2525,1.2239,1.2028,1.1878,1.1543,0.0,1.083,1.0823,1.0162,0.0,0.0,0.0,0.0,0.9221,0.9585,0.9509,0.9502,0.9591,0.9599,0.9599,0.9599,0.9599,0.9551,0.9412,0.9226,0.9013,0.8832,0.9012,0.919,0.9338,0.0,0.0,0.0,0.0,0.0,0.0,0.0,0.0,0.0,0.0,0.0,0.0,0.0,0.0,0.0,0.0,0.0,0.0,0.0,0.0,0.0,0.0,0.0,0.0,0.0,0.0,0.0,0.0,0.0,1.5577,1.5995,0.0,0.0,0.0,0.0,1.4555,1.4668,1.502,1.5574,1.6088,1.6523,1.6841,1.7403,1.7436,1.692,1.7329,1.7337,1.7017,1.7211,1.7211,1.7026,1.7034,1.6906,1.6691,1.6287,1.6019,1.5816,1.4884,1.4226,1.3852,1.4031,1.3778,1.3379,1.3886,1.388,1.3617,1.3784,1.3831,1.3678,1.3302,1.2995,1.2797,1.3082,1.3001,0.0,0.0,1.3126,1.3277,1.3418,1.3478,1.3536,1.3545,1.3277,1.2946,1.2629,1.2409,1.2022,0.0,1.0983,1.0791,1.0446,0.0,0.9931,0.9461,0.9556,0.9602,0.9444,0.9502,0.9591,0.9599,0.9599,0.9599,0.9599,0.9599,0.9551,0.9412,0.9209,0.8948,0.8629,0.8631,0.8627,0.8661,0.8878,0.0,0.0,0.0,0.0,0.0,0.0,0.0,0.0,0.0,0.0,0.0,0.0,0.0,0.0,0.0,0.0,0.0,0.0,0.0,0.0,0.0,0.0,0.0,0.0,0.0,0.0,0.0,0.0,1.5868,1.6274,0.0,1.538,1.5309,1.5101,1.4512,1.5005,1.5457,1.5749,1.6248,1.6653,1.6958,1.7394,1.7396,1.6906,1.7156,1.7118,1.6751,1.6818,1.6818,1.6743,1.6626,1.6493,1.6418,1.6063,1.5883,1.5807,1.5198,1.4711,1.4362,1.4414,1.4247,1.3964,1.4292,1.4207,1.3958,1.4147,1.4052,1.3862,1.3815,1.3524,1.3319,1.3764,1.3763,1.3587,1.3689,1.3692,1.3684,1.3604,1.3592,1.3587,1.3587,1.3518,1.3382,1.3287,1.2904,1.2499,1.2149,1.1525,1.1004,1.0637,1.0355,1.0104,0.9945,0.9854,0.9863,0.991,0.9958,0.9925,0.9803,0.9795,0.9746,0.9607,0.9599,0.9551,0.9412,0.9217,0.8991,0.8739,0.878,0.8798,0.8794,0.9029,0.9117,0.0,0.0,0.0,0.0,0.0,0.0,0.0,0.0,0.0,0.0,0.0,0.0,0.0,0.0,0.0,0.0,0.0,0.0,0.0,0.0,0.0,0.0,0.0,0.0,0.0,1.5518,1.6381,1.5994,1.6489,1.6525,1.5737,1.5851,1.5672,1.499,1.5628,1.6055,1.6063,1.6517,1.6874,1.7144,1.7332,1.7332,1.7058,1.7108,1.7013,1.6755,1.6755,1.673,1.6665,1.6544,1.6422,1.6292,1.6056,1.5918,1.5845,1.557,1.5312,1.5052,1.4829,1.4622,1.4442,1.4597,1.4454,1.4233,1.4366,1.4222,1.4013,1.4096,1.3926,1.371,1.4145,1.418,1.4077,1.4169,1.4134,1.404,1.3915,1.3876,1.3876,1.3876,1.3876,1.3825,1.3661,1.3282,1.2889,1.2517,1.1923,1.1349,1.1029,1.072,1.0528,1.0471,1.0251,1.0119,1.0241,1.0227,1.0137,1.0015,1.0007,0.9934,0.973,0.9713,0.9616,0.942,0.9217,0.9015,0.8805,0.8805,0.8802,0.8802,0.9015,0.909,0.9005,0.0,0.0,0.0,0.0,0.0,0.0,0.0,0.0,0.0,0.0,0.0,0.0,0.0,0.0,0.0,0.0,0.0,0.0,0.0,0.0,0.0,0.0,0.0,1.4221,1.5529,1.6376,1.5984,1.6652,1.6895,1.6364,1.6694,1.6656,1.6086,1.6575,1.6843,1.6635,1.6933,1.721,1.7388,1.7218,1.721,1.7388,1.721,1.712,1.7112,1.7112,1.6979,1.6817,1.6809,1.6615,1.6316,1.6308,1.6169,1.5982,1.5974,1.591,1.574,1.5204,1.4887,1.4732,1.4724,1.4611,1.4411,1.4411,1.4343,1.4205,1.4205,1.4083,1.3969,1.4156,1.4241,1.4237,1.4408,1.4411,1.4403,1.4403,1.4395,1.4395,1.4395,1.4395,1.4236,1.371,1.3421,1.3054,1.2378,1.2124,1.1902,1.1568,1.1312,1.1163,1.1021,1.0669,0.0,1.0407,1.028,1.0219,1.0211,1.0211,1.0129,0.9942,0.9926,0.9771,0.9437,0.9233,0.9031,0.8814,0.8696,0.8606,0.8615,0.8755,0.895,0.9207,0.0,0.0,0.0,0.0,0.0,0.0,0.0,0.0,0.0,0.0,0.0,0.0,0.0,0.0,0.0,0.0,0.0,0.0,0.0,0.0,0.0,1.3936,1.4785,1.5067,1.603,1.677,1.6841,1.7295,1.7436,1.7,1.7161,1.7137,1.6605,1.699,1.7244,1.7161,1.7372,1.7473,1.7522,1.7473,1.7461,1.7388,1.7339,1.7242,1.7112,1.7112,1.7088,1.6995,1.6866,1.6752,1.6647,1.6422,1.6139,1.5908,1.579,1.5573,1.5386,1.5521,1.5447,1.5277,1.5108,1.4976,1.486,1.486,1.4827,1.4787,1.4787,1.4754,1.4746,1.4895,1.4854,1.4827,1.493,1.4792,1.4635,1.4635,1.4492,1.4321,1.4032,1.3958,1.3831,1.3385,1.3161,1.2908,1.262,1.2412,1.2126,1.1582,1.124,1.102,1.0882,1.0646,0.0,1.0349,1.0457,1.052,1.0429,1.0487,1.0477,1.0272,1.016,0.9958,0.9575,0.9486,0.9316,0.9031,0.8974,0.9038,0.9184,0.9209,0.9227,0.0,0.0,0.0,0.0,0.0,0.0,0.0,0.0,0.0,0.0,0.0,0.0,0.0,0.0,0.0,0.0,0.0,0.0,0.0,0.0,0.0,0.0,1.4456,1.5406,1.6066,1.6599,1.7024,1.7256,1.7543,1.7634,1.738,1.7471,1.7441,1.7141,1.7445,1.7607,1.7607,1.777,1.7867,1.7867,1.7749,1.7713,1.7607,1.7461,1.7331,1.7226,1.7145,1.7024,1.6797,1.6701,1.6483,1.6187,1.6019,1.5779,1.5596,1.5523,1.5403,0.0,0.0,0.0,0.0,0.0,1.4633,1.457,1.4492,1.4468,1.4468,1.4468,1.4584,1.4769,1.4914,1.5007,1.5106,1.5173,1.5051,1.4873,1.461,1.4476,1.4283,1.3876,1.3763,1.365,1.3227,1.3028,1.2801,1.2395,1.2194,0.0,1.1457,1.134,1.1283,1.1186,1.0859,1.0584,1.0517,1.0528,1.0494,1.0431,1.0501,1.0429,1.0159,1.0069,0.0,0.0,0.0,0.9213,0.8948,0.894,0.0,0.0,0.0,0.9187,0.9112,0.0,0.0,0.0,0.9444,0.9387,0.0,0.0,0.0,0.0,0.0,0.0,0.0,0.0,0.0,0.0,0.0,0.0,0.0,0.0,0.0,0.0,1.5345,1.6334,1.7069,1.7194,1.7256,1.7433,1.7599,1.7651,1.7651,1.7651,1.7651,1.7651,1.7805,1.7949,1.7949,1.8095,0.0,0.0,0.0,1.7848,1.7824,1.7448,1.727,1.7254,1.7025,1.6709,1.6313,1.6313,1.6009,1.5437,1.5437,1.5356,1.5201,1.5291,1.5247,1.5027,1.4949,1.4806,1.4631,1.4184,1.4013,1.3975,1.3758,0.0,0.0,1.3706,1.3975,1.4353,1.4477,1.4751,1.5055,1.508,1.5072,1.4898,1.4438,1.4322,1.4207,1.3744,1.3621,1.3505,1.312,1.2929,1.2663,1.1985,1.1755,1.1572,1.1302,1.1477,1.1629,1.1607,1.1126,1.0767,1.0783,1.0495,1.0324,1.0324,0.0,0.0,0.987,0.9826,0.961,0.9083,0.9039,0.8965,0.8775,0.8767,0.8775,0.8797,0.8954,0.9061,0.9057,0.9231,0.9345,0.9416,0.9002,0.8903,0.0,0.0,0.0,0.0,0.0,0.0,0.0,0.0,0.0,0.0,0.0,0.0,0.0,0.0,0.0,1.4864,1.5844,1.671,1.742,1.7657,1.7742,1.7802,1.7965,1.807,1.807,1.807,1.807,1.807,1.8103,1.8127,1.8127,1.816,1.8223,1.8223,1.7724,1.7459,1.7364,1.6742,1.6355,1.6174,1.6052,0.0,1.5837,1.5837,1.577,1.566,1.566,1.5418,1.5038,1.5067,1.4691,1.4123,1.4689,1.4746,1.4497,1.4266,1.4102,1.3975,1.3758,1.3706,1.3706,1.3706,1.3744,1.389,1.4048,1.4042,0.0,1.418,1.4119,1.3975,1.3867,1.386,1.3744,1.3312,1.3235,1.312,1.2695,1.2597,1.2487,1.2111,1.203,1.1921,1.1586,1.1385,1.1241,1.109,1.0862,1.0695,1.0571,1.0506,1.0469,1.0469,1.0449,1.0391,1.0226,1.0064,0.9806,0.9435,0.9294,0.9213,0.9183,0.9183,0.9242,0.9342,0.9371,0.9372,0.9321,0.935,0.9249,0.9023,0.9239,0.9457,0.0,0.0,0.0,0.0,0.0,0.0,0.0,0.0,0.0,0.0,0.0,1.2512,1.3186,0.0,1.4764,1.5731,1.6584,1.7266,1.7668,1.7932,1.8046,1.8046,1.8127,1.8223,1.8223,1.8223,1.8223,1.8223,1.8223,1.8223,1.8223,1.7943,1.7803,1.7803,1.7289,1.7017,1.6926,1.6536,1.6234,1.607,1.5861,1.5654,1.5352,1.5352,1.5219,1.5006,1.5084,1.4937,1.4646,1.4646,1.429,1.3831,1.4224,1.4181,1.3917,1.3682,1.3547,1.3447,1.3205,1.3081,1.3081,1.3081,1.3235,1.3411,1.3523,1.361,1.372,1.3834,1.3765,1.3667,1.3428,1.339,1.3312,1.2888,1.2811,1.2733,1.254,1.2501,1.2433,1.2254,1.2152,1.203,1.1762,1.1538,1.1341,1.1192,1.0948,1.0772,1.0698,1.0589,1.0492,1.0492,1.0345,1.019,1.0057,0.9788,0.9482,0.9214,0.9129,0.9094,0.9094,0.9094,0.9129,0.92,0.92,0.9223,0.9293,0.9293,0.9251,0.9157,0.9356,0.9419,0.0,0.0,0.0,0.0,0.0,0.0,0.0,1.2439,1.2521,1.2535,1.3103,1.3798,1.4428,1.5098,1.578,1.6649,1.7299,1.7716,1.794,1.8087,1.8206,1.8127,1.8198,1.8223,1.8223,1.8223,1.8223,1.8223,1.8083,1.8036,1.8036,1.7569,1.7242,1.7242,1.6821,1.654,1.654,1.6292,1.6053,1.5968,1.5761,1.5422,1.4909,1.4909,1.4687,1.4346,1.4462,1.4462,1.438,1.4292,1.4089,1.3795,1.3768,1.362,1.3322,1.3098,1.3003,1.2955,1.261,1.2501,1.2501,1.2501,1.2733,1.2965,1.2965,1.3197,1.3467,1.3467,1.3467,1.339,1.3081,1.2965,1.2888,1.2579,1.2501,1.2501,1.2501,1.2501,1.2461,1.2318,1.2227,1.2084,1.1827,1.1698,1.157,1.1457,1.1206,1.1002,1.1002,1.0738,1.0568,1.0541,1.0265,1.0021,0.9805,0.9462,0.9192,0.8967,0.8953,0.894,0.8912,0.8912,0.8926,0.8953,0.8953,0.9055,0.9226,0.9226,0.9288,0.941,0.9323,0.9195,1.2643,1.2675,1.2653,1.2131,1.2187,1.2451,0.0,1.308,1.3511,1.3972,1.4543,1.5147,1.5691,1.625,1.6817,1.7384,1.7684,1.7949,1.8119,1.8206,1.8119,1.7965,1.8079,1.8223,1.8223,1.8223,1.8223,1.8223,1.7756,1.7484,1.7484,1.7055,1.6774,1.6774,1.6259,1.5985,1.5985,1.5464,1.5149,1.5128,1.4924,1.4729,1.4578,1.4578,1.4534,1.4489,1.4502,1.4577,1.4613,1.4265,1.3994,1.3788,1.366,1.3464,1.322,1.3057,1.3003,1.2955,1.261,1.2501,1.2501,1.2501,1.254,1.2579,1.2579,1.2617,1.2617,1.2617,1.2617,1.2617,1.2579,1.2579,1.2579,1.2501,1.2501,1.2501,1.2501,1.2501,1.2461,1.2318,1.2277,1.2169,1.184,1.178,1.1719,1.1613,1.145,1.1341,1.1341,1.1049,1.0813,1.0677,1.0541,1.027,0.9825,0.9659,0.9435,0.9179,0.9158,0.9076,0.8919,0.8912,0.8973,0.9152,0.9158,0.9233,0.9383,0.9383,0.939,0.9381,0.9091,0.9107,1.2064,1.2291,1.2594,1.252,1.2837,1.3332,1.3854,1.4326,1.4785,1.5212,1.5739,1.6234,1.6566,1.6979,1.7335,1.7562,1.7884,1.7961,1.7652,1.7605,1.741,1.6862,1.6933,1.731,1.7967,1.784,1.7709,1.7709,1.7289,1.7008,1.7008,1.6494,1.6213,1.6213,1.5744,1.5516,1.5516,1.522,1.5098,1.5017,1.4903,1.4794,1.4599,1.4328,1.4101,1.3898,1.3732,1.3745,1.3834,1.3457,1.3195,1.3004,1.2829,1.2618,1.2501,1.2856,1.2941,1.2793,1.2576,1.2501,1.2501,1.2501,1.2501,1.2501,1.2501,1.2501,1.2501,1.2501,1.2501,1.2501,1.2501,1.2501,1.2501,1.2501,1.2501,1.2501,1.2501,1.2501,1.2481,1.2427,1.2345,1.225,1.2121,1.2026,1.1918,1.1732,1.1619,1.1525,1.1525,1.1335,1.1049,1.0758,1.0663,1.0446,0.9961,0.9866,0.9744,0.9557,0.9462,0.9395,0.9305,0.9045,0.894,0.9027,0.8826,0.881,0.8944,0.8944,0.89,0.8827,0.8677,0.8468,1.1666,1.2141,1.2789,1.3032,1.3621,1.4283,1.4935,1.5466,1.5926,1.6234,1.6647,1.6979,1.7096,1.7323,1.7465,1.7514,1.7695,1.7648,1.7163,1.6972,1.6651,1.5995,1.6033,1.6423,1.7227,1.7164,1.708,1.7126,1.6707,1.6442,1.6494,1.5978,1.5704,1.5704,1.5368,1.5181,1.5181,1.5181,1.5066,1.4831,1.4831,1.4547,1.4043,1.3437,1.3052,1.2812,1.2483,1.2368,1.2408,1.2012,1.1793,1.1661,1.1442,1.1258,1.1184,1.1742,1.2018,1.2194,1.205,1.1921,1.1805,1.1805,1.1805,1.1805,1.1805,1.1882,1.1998,1.1998,1.2076,1.2153,1.2153,1.2153,1.2153,1.2153,1.2153,1.2153,1.2153,1.2153,1.2153,1.2153,1.2074,1.1995,1.1955,1.1856,1.1738,1.1549,1.1405,1.1372,1.159,1.1484,1.1267,1.0941,1.0725,1.0465,1.0072,0.9911,0.975,0.959,0.9485,0.9353,0.9224,0.8875,0.8612,0.8473,0.8201,0.8101,0.8132,0.8132,0.8087,0.7989,0.7897,0.7531,1.1586,1.2431,1.3319,1.3526,1.4298,1.5145,1.5829,1.6371,1.6817,1.7039,1.7234,1.7315,1.7145,1.712,1.7185,1.7364,1.7039,1.6789,1.6907,1.6423,1.5943,1.5734,1.5763,1.5815,1.5771,1.6062,1.6324,1.6488,1.6034,1.5775,1.5931,1.5462,1.5228,1.5228,1.5228,1.5181,1.5181,1.5181,1.4926,1.4322,1.4322,1.3661,1.2446,1.152,1.112,1.1125,1.0606,1.0347,1.0283,0.9928,0.9735,0.9672,0.9519,0.9346,0.9199,0.9194,0.9937,1.0939,1.0726,1.0408,1.0097,1.0097,1.0097,1.0097,1.0097,1.0369,1.068,1.068,1.099,1.134,1.134,1.134,1.134,1.134,1.134,1.134,1.134,1.134,1.134,1.134,1.1333,1.1258,1.1053,1.1028,1.098,1.084,1.07,1.0864,1.1532,1.1484,1.1389,1.1369,1.0795,1.0362,1.022,0.9717,0.9299,0.9037,0.9019,0.8772,0.8275,0.8173,0.7867,0.7373,0.7266,0.7145,0.6945,0.6945,0.6945,0.695,0.6618,0.6276,1.216,1.3038,1.3839,1.4505,1.5374,1.6162,1.6641,1.7028,1.7279,1.7145,1.6974,1.6722,1.63,1.6011,1.5899,1.604,1.6019,1.5902,1.5668,1.5461,1.511,1.4498,1.4469,1.4469,1.4426,1.5152,1.5691,1.5959,1.5519,1.531,1.5408,1.5275,1.5181,1.5181,1.4852,1.4664,1.4664,1.4005,1.3562,1.3295,1.2633,1.1753,1.0659,1.005,0.9558,0.9225,0.8595,0.8299,0.8267,0.7959,0.7839,0.7785,0.7545,0.7433,0.7367,0.729,0.7311,0.7558,0.8934,0.9314,0.9197,0.9197,0.9197,0.9197,0.9197,0.9314,0.9392,0.9392,0.9508,0.9625,0.9625,0.9625,0.9625,0.9625,0.9625,0.9625,0.9625,0.9625,0.9625,0.9625,0.9625,0.9615,0.9534,0.9529,0.9467,0.9306,1.0039,1.0681,1.0834,1.0813,1.0672,1.0295,1.0063,0.9642,0.8923,0.8699,0.844,0.8024,0.7908,0.7782,0.7618,0.7287,0.6903,0.6435,0.6189,0.5939,0.5656,0.5598,0.5448,0.5237,0.5114,0.4807,1.3011,1.3928,1.4773,1.557,1.6215,1.6708,1.6889,1.6975,1.6871,1.6569,1.6131,1.5642,1.5144,1.4797,1.4618,1.4715,1.4822,1.4883,1.4872,1.4697,1.4423,1.3939,1.3829,1.3822,1.3919,1.4546,1.5059,1.5314,1.5073,1.4878,1.4885,1.4899,1.4758,1.4382,1.4052,1.367,1.3334,1.268,1.2055,1.1377,1.0356,0.9474,0.8668,0.7985,0.7509,0.7177,0.6531,0.6243,0.6195,0.5998,0.587,0.5842,0.5678,0.5602,0.5552,0.5468,0.5252,0.5215,0.701,0.7556,0.7439,0.7439,0.7439,0.7439,0.7439,0.7556,0.7673,0.7673,0.779,0.7907,0.7907,0.7907,0.7907,0.7907,0.7907,0.7907,0.7907,0.7907,0.7907,0.7907,0.7907,0.7907,0.7907,0.7907,0.7843,0.7654,0.8393,0.9113,0.9571,0.9657,0.9521,0.9152,0.8967,0.856,0.7754,0.7506,0.7233,0.6766,0.6672,0.6555,0.6423,0.6109,0.5673,0.5192,0.4926,0.4636,0.4319,0.4255,0.41,0.3885,0.3895,0.3638,1.4018,1.5025,1.5958,1.662,1.6733,1.6658,1.665,1.6193,1.5683,1.5376,1.4758,1.4149,1.3663,1.3376,1.3287,1.3439,1.3491,1.376,1.445,1.413,1.3899,1.4105,1.3946,1.3919,1.4082,1.4224,1.4434,1.4681,1.4708,1.4599,1.4362,1.4328,1.3864,1.2833,1.2786,1.2261,1.1306,1.1207,1.0352,0.8715,0.7664,0.6972,0.6565,0.5575,0.5136,0.5083,0.457,0.4254,0.4125,0.4036,0.3992,0.3952,0.395,0.3898,0.3823,0.3819,0.3805,0.3885,0.5058,0.5215,0.4944,0.4944,0.4944,0.4944,0.4944,0.5215,0.5525,0.5525,0.5838,0.6186,0.6186,0.6186,0.6186,0.6186,0.6186,0.6186,0.6186,0.6186,0.6186,0.6186,0.6186,0.6186,0.6186,0.6183,0.6094,0.5916,0.5892,0.6395,0.7801,0.7996,0.796,0.796,0.7549,0.71,0.6701,0.6206,0.5735,0.5314,0.5281,0.5111,0.4739,0.4646,0.4317,0.3659,0.3509,0.3323,0.3037,0.2991,0.2969,0.2969,0.2954,0.2779,1.5129,1.5713,1.6125,1.6601,1.6462,1.6136,1.606,1.5569,1.4916,1.4203,1.3382,1.2586,1.1951,1.1475,1.13,1.1738,1.2176,1.2729,1.3452,1.3712,1.3896,1.4211,1.4109,1.4116,1.4373,1.4434,1.4584,1.4889,1.454,1.4195,1.3899,1.3152,1.2439,1.1784,1.1075,1.0361,0.9694,0.8496,0.7286,0.6149,0.5852,0.5478,0.5019,0.4368,0.4073,0.4065,0.3459,0.317,0.3172,0.3093,0.3059,0.3026,0.2958,0.2964,0.2925,0.2942,0.2904,0.2867,0.3179,0.365,0.4121,0.4121,0.4121,0.4121,0.4121,0.416,0.4277,0.4277,0.4353,0.4432,0.4432,0.4432,0.4432,0.4432,0.4432,0.4432,0.4432,0.4432,0.4432,0.4432,0.4432,0.4432,0.4432,0.4398,0.4312,0.4245,0.4204,0.4747,0.6195,0.6398,0.6253,0.5967,0.5841,0.5483,0.4786,0.4578,0.4313,0.3849,0.3832,0.3772,0.36,0.3586,0.3379,0.2946,0.2872,0.2688,0.236,0.2325,0.2342,0.234,0.2274,0.2195,1.5824,1.6082,1.6194,1.6506,1.6085,1.5455,1.5058,1.4215,1.3308,1.2509,1.1666,1.0909,1.0406,1.012,1.0151,1.0695,1.1365,1.2132,1.3077,1.3559,1.3937,1.4346,1.4373,1.4428,1.4552,1.4445,1.4369,1.4348,1.4037,1.3628,1.3046,1.1873,1.0739,0.975,0.8988,0.8229,0.7423,0.6344,0.5386,0.4586,0.4586,0.435,0.3874,0.354,0.3379,0.3373,0.2956,0.2811,0.2781,0.2707,0.272,0.2691,0.2673,0.2641,0.26,0.2583,0.2551,0.2514,0.2514,0.2828,0.322,0.322,0.322,0.322,0.322,0.322,0.322,0.322,0.322,0.322,0.322,0.322,0.322,0.322,0.322,0.322,0.322,0.322,0.322,0.322,0.322,0.3213,0.3237,0.3216,0.3142,0.3086,0.3062,0.3364,0.4155,0.4587,0.4696,0.448,0.4444,0.4213,0.3569,0.3512,0.3339,0.2906,0.2817,0.2798,0.2776,0.276,0.2684,0.248,0.2446,0.2329,0.2129,0.2099,0.2083,0.2083,0.2053,0.2031,1.6264,1.6264,1.6112,1.6307,1.5569,1.4571,1.3819,1.2623,1.1425,1.07,0.9929,0.9299,0.9041,0.9106,0.9405,1.0026,1.0758,1.1681,1.2901,1.3444,1.3896,1.4448,1.4599,1.4708,1.4657,1.4362,1.3923,1.3365,1.3132,1.2707,1.1915,1.0361,0.8802,0.7239,0.6713,0.6051,0.5101,0.4629,0.4156,0.3728,0.3728,0.3489,0.3104,0.3038,0.3007,0.3003,0.2867,0.2814,0.2787,0.2709,0.268,0.2698,0.2694,0.2658,0.2607,0.2602,0.2567,0.2519,0.2515,0.2514,0.2514,0.2514,0.2514,0.2514,0.2514,0.2514,0.2514,0.2514,0.2514,0.2514,0.2514,0.2514,0.2514,0.2514,0.2514,0.2514,0.2514,0.2514,0.2514,0.2514,0.2514,0.2504,0.2513,0.2503,0.2482,0.2424,0.2375,0.2363,0.23,0.2917,0.3354,0.3354,0.3354,0.3209,0.2844,0.2814,0.2687,0.2326,0.223,0.2214,0.221,0.2185,0.2204,0.22,0.2208,0.2193,0.2189,0.2128,0.2116,0.2114,0.2117,0.2056,1.6683,1.6294,1.5742,1.5557,1.459,1.3452,1.2608,1.1534,1.0426,0.9446,0.8722,0.819,0.7921,0.8085,0.8437,0.9034,0.9998,1.1023,1.2139,1.2894,1.3593,1.4414,1.4599,1.4651,1.4472,1.4049,1.3398,1.2505,1.1234,1.0441,1.0313,0.8466,0.6713,0.5147,0.4625,0.4244,0.4053,0.3605,0.333,0.3234,0.3234,0.3186,0.3086,0.3047,0.3007,0.3003,0.2867,0.0,0.2816,0.2717,0.2692,0.2685,0.2702,0.2671,0.2595,0.2611,0.2581,0.2588,0.2523,0.2514,0.2514,0.2514,0.2514,0.2514,0.2514,0.2514,0.2514,0.2514,0.2514,0.2514,0.2514,0.2514,0.2514,0.2514,0.2514,0.2514,0.2514,0.2514,0.2514,0.2514,0.2514,0.2504,0.2513,0.2448,0.242,0.242,0.2357,0.2301,0.2297,0.2405,0.2515,0.2515,0.2515,0.2478,0.2405,0.2401,0.2387,0.2292,0.2286,0.2271,0.2212,0.2205,0.2191,0.22,0.2195,0.2214,0.2189,0.2183,0.2181,0.2179,0.2116,0.2098,1.6234,1.5831,1.5243,1.4854,1.4009,1.2983,1.1887,1.0785,0.9713,0.8561,0.7912,0.7483,0.7364,0.7587,0.8033,0.8791,0.9589,1.0561,1.1769,1.2328,1.2946,1.3826,1.3739,1.349,1.3174,1.2547,1.159,1.0309,0.9035,0.8466,0.8703,0.6523,0.4813,0.3861,0.3577,0.3434,0.3434,0.3227,0.3089,0.3122,0.3089,0.3089,0.3119,0.3013,0.3022,0.3004,0.29,0.2813,0.2781,0.278,0.2752,0.2692,0.2705,0.2673,0.2603,0.259,0.2597,0.2597,0.2582,0.2527,0.2514,0.2514,0.2514,0.2514,0.2514,0.2514,0.2514,0.2514,0.2514,0.2514,0.2514,0.2514,0.2514,0.2514,0.2514,0.2514,0.2514,0.2514,0.2514,0.2514,0.2514,0.2504,0.2513,0.2444,0.2413,0.2383,0.2352,0.2296,0.2296,0.2296,0.2296,0.2296,0.2296,0.2296,0.2296,0.2296,0.2291,0.2313,0.2312,0.2271,0.2256,0.2241,0.222,0.2189,0.2208,0.2185,0.2189,0.2189,0.2189,0.2188,0.2172,0.2124,1.5634,1.5261,1.4719,1.4272,1.3539,1.2622,1.1268,1.0114,0.9035,0.7837,0.7269,0.6979,0.6979,0.7249,0.7736,0.8541,0.9197,1.0049,1.1327,1.1713,1.2158,1.2953,1.2615,1.2158,1.1664,1.0774,0.9573,0.8153,0.6939,0.6381,0.6758,0.4909,0.3577,0.31,0.31,0.31,0.31,0.3089,0.3092,0.311,0.3093,0.3092,0.3108,0.3024,0.2994,0.3016,0.2932,0.289,0.2799,0.2801,0.2769,0.2701,0.2706,0.2677,0.2614,0.2607,0.2617,0.2617,0.2604,0.2584,0.2523,0.2517,0.2514,0.2514,0.2514,0.2514,0.2514,0.2514,0.2514,0.2514,0.2514,0.2514,0.2514,0.2514,0.2514,0.2514,0.2514,0.2514,0.2514,0.2514,0.2514,0.2504,0.2513,0.2448,0.2421,0.2384,0.2358,0.2303,0.2297,0.2301,0.2305,0.2305,0.2305,0.2308,0.2315,0.231,0.2305,0.2305,0.23,0.2296,0.2296,0.2311,0.2286,0.2221,0.219,0.2195,0.2199,0.2192,0.2189,0.2189,0.2189,0.2175,1.5246,1.4864,1.4251,1.3761,1.2922,1.1846,1.0524,0.9369,0.8289,0.7202,0.6756,0.6552,0.6552,0.6892,0.7323,0.781,0.8514,0.9366,1.0466,1.0905,1.1314,1.1865,1.1635,1.119,1.0509,0.9279,0.8076,0.7042,0.5166,0.4101,0.4149,0.391,0.3577,0.31,0.31,0.31,0.31,0.311,0.3123,0.3093,0.3125,0.3123,0.3091,0.3033,0.3005,0.2999,0.2941,0.2913,0.0,0.2818,0.2781,0.2773,0.2716,0.2691,0.2684,0.2615,0.2602,0.259,0.2618,0.2597,0.259,0.2523,0.2514,0.2514,0.2514,0.2514,0.2514,0.2514,0.2514,0.2514,0.2514,0.2514,0.2514,0.2514,0.2514,0.2514,0.2514,0.2514,0.2514,0.2514,0.2514,0.2504,0.2513,0.2505,0.2484,0.2424,0.2413,0.2364,0.23,0.2357,0.2373,0.2373,0.2373,0.2386,0.2375,0.239,0.2373,0.2373,0.2348,0.2296,0.2296,0.2293,0.228,0.2288,0.2221,0.2191,0.2196,0.2203,0.2189,0.2189,0.2189,0.2186,1.4266,1.4069,1.381,1.3444,1.263,1.1572,1.0222,0.9171,0.8187,0.7121,0.6681,0.6491,0.6491,0.677,0.7141,0.7611,0.8235,0.8994,0.9951,0.9933,1.0018,1.0497,0.9576,0.8701,0.8014,0.7049,0.603,0.5065,0.3997,0.3377,0.331,0.3309,0.3252,0.3045,0.3045,0.3053,0.3025,0.3067,0.3082,0.3118,0.3101,0.31,0.3117,0.3093,0.3024,0.3005,0.2961,0.2932,0.0,0.284,0.28,0.278,0.2736,0.2709,0.2691,0.2679,0.2621,0.2599,0.26,0.2614,0.2595,0.2523,0.2514,0.2514,0.2514,0.2514,0.2514,0.2514,0.2514,0.2514,0.2514,0.2514,0.2514,0.2514,0.2514,0.2514,0.2514,0.2514,0.2514,0.2514,0.2514,0.251,0.2499,0.2481,0.2499,0.2474,0.2417,0.2401,0.2351,0.2398,0.2413,0.2469,0.2417,0.241,0.2385,0.2413,0.2398,0.2416,0.2367,0.2352,0.2297,0.2296,0.2283,0.2292,0.2279,0.2258,0.2193,0.2215,0.2208,0.2208,0.2208,0.2199,1.3164,1.3234,1.3159,1.2854,1.2101,1.1104,0.9819,0.8866,0.7963,0.7026,0.662,0.645,0.645,0.6654,0.6972,0.7377,0.7963,0.8608,0.9325,0.9158,0.8982,0.9087,0.7873,0.6794,0.6156,0.5286,0.4427,0.3605,0.3276,0.3072,0.2995,0.2984,0.2975,0.3007,0.3007,0.3022,0.3006,0.3085,0.31,0.31,0.3082,0.3081,0.31,0.31,0.3083,0.3005,0.3021,0.2945,0.0,0.2809,0.2811,0.278,0.2707,0.272,0.2692,0.2692,0.2679,0.2613,0.2615,0.2589,0.2606,0.2527,0.2514,0.2514,0.2514,0.2514,0.2514,0.2514,0.2514,0.2514,0.2514,0.2514,0.2514,0.2514,0.2514,0.2514,0.2514,0.2514,0.2514,0.2514,0.2514,0.2514,0.2514,0.2496,0.2518,0.2509,0.2451,0.2433,0.2386,0.2432,0.2446,0.2505,0.2458,0.2412,0.2412,0.2442,0.2424,0.2394,0.2383,0.2364,0.2297,0.2296,0.2287,0.2304,0.2294,0.2281,0.2224,0.2214,0.221,0.221,0.221,0.2199,1.2131,1.2305,1.223,1.1881,1.1172,1.0229,0.9156,0.823,0.7434,0.6831,0.6491,0.63,0.63,0.6525,0.6803,0.7051,0.7604,0.8127,0.8468,0.8564,0.8378,0.7788,0.6823,0.5994,0.5368,0.433,0.3532,0.3052,0.3007,0.2994,0.301,0.2934,0.2931,0.3006,0.3007,0.3022,0.3006,0.3085,0.31,0.31,0.3082,0.3081,0.31,0.31,0.3083,0.3005,0.3021,0.2945,0.0,0.2809,0.2811,0.278,0.2707,0.272,0.2692,0.2692,0.2692,0.2683,0.2623,0.2601,0.2592,0.2533,0.2514,0.2514,0.2514,0.2514,0.2514,0.2514,0.2514,0.2514,0.2514,0.2514,0.2514,0.2514,0.2514,0.2514,0.2514,0.2514,0.2514,0.2514,0.2514,0.2514,0.2514,0.2514,0.2503,0.2512,0.2507,0.2458,0.2428,0.245,0.2507,0.2507,0.2495,0.2514,0.2514,0.2485,0.2455,0.2387,0.2395,0.2364,0.2297,0.2296,0.2296,0.2296,0.2305,0.229,0.229,0.2225,0.221,0.221,0.221,0.221,1.0658,1.0873,1.0894,1.0792,1.0249,0.951,0.8676,0.7968,0.7294,0.6688,0.6429,0.63,0.63,0.6525,0.6797,0.7051,0.7462,0.7814,0.8106,0.7703,0.7218,0.6851,0.5514,0.4367,0.3641,0.3323,0.3127,0.302,0.3022,0.2962,0.2932,0.2921,0.2912,0.2948,0.2946,0.2971,0.3021,0.3032,0.3047,0.3021,0.3031,0.302,0.3036,0.3036,0.3031,0.2973,0.2943,0.2924,0.2913,0.2875,0.2829,0.2782,0.2773,0.2737,0.269,0.2669,0.262,0.2611,0.2593,0.2613,0.2607,0.2527,0.2514,0.2514,0.2514,0.2514,0.2514,0.2514,0.2514,0.2514,0.2514,0.2514,0.2514,0.2514,0.2514,0.2514,0.2514,0.2514,0.2514,0.2514,0.2514,0.2514,0.2514,0.2514,0.2511,0.2502,0.25,0.2496,0.2487,0.2493,0.25,0.25,0.2508,0.2396,0.2121,0.2075,0.1943,0.1611,0.1592,0.1572,0.1551,0.1539,0.1532,0.1532,0.1563,0.156,0.156,0.1517,0.1657,0.1944,0.2178,0.2277,0.9263,0.956,0.9635,0.9635,0.9191,0.8642,0.809,0.7532,0.7015,0.658,0.6443,0.6361,0.6313,0.6573,0.6822,0.6926,0.7144,0.7313,0.7389,0.6752,0.6027,0.5366,0.4303,0.3405,0.2844,0.2875,0.2924,0.2943,0.2945,0.2936,0.2917,0.2905,0.2891,0.292,0.2919,0.2942,0.2943,0.2945,0.296,0.299,0.299,0.298,0.3007,0.2996,0.2984,0.2973,0.2897,0.2876,0.0,0.2846,0.2811,0.2766,0.2766,0.2736,0.2688,0.2617,0.2606,0.2597,0.2579,0.26,0.2595,0.2523,0.2514,0.2514,0.2514,0.2514,0.2514,0.2514,0.2514,0.2514,0.2514,0.2514,0.2514,0.2514,0.2514,0.2514,0.2514,0.2514,0.2514,0.2514,0.2514,0.2514,0.2514,0.2514,0.2514,0.2514,0.2514,0.2514,0.2514,0.2514,0.2514,0.2514,0.2514,0.2318,0.1925,0.1886,0.1758,0.1428,0.1296,0.1205,0.119,0.1212,0.1204,0.1204,0.1204,0.1204,0.1204,0.1204,0.1313,0.1567,0.1772,0.1875,0.0,0.8362,0.8403,0.841,0.8065,0.7672,0.7396,0.7008,0.0,0.6491,0.6477,0.647,0.634,0.6634,0.6829,0.6694,0.6702,0.6635,0.6327,0.5708,0.4842,0.3613,0.3296,0.31,0.2818,0.286,0.2911,0.2913,0.2911,0.2911,0.2913,0.2886,0.2917,0.2919,0.2919,0.2887,0.2916,0.2916,0.293,0.3004,0.3002,0.3,0.2998,0.292,0.2891,0.291,0.2838,0.281,0.2784,0.2784,0.2765,0.2695,0.2695,0.272,0.2688,0.2617,0.2605,0.2594,0.262,0.2599,0.2592,0.2523,0.2514,0.2514,0.2514,0.2514,0.2514,0.2514,0.2514,0.2514,0.2514,0.2514,0.2514,0.2514,0.2514,0.2514,0.2514,0.2475,0.2475,0.2475,0.2435,0.2435,0.2435,0.2475,0.2475,0.2514,0.2475,0.2475,0.2475,0.2435,0.2396,0.2396,0.2396,0.2278,0.1886,0.1846,0.1798,0.1739,0.1336,0.1131,0.1117,0.1103,0.1132,0.1131,0.1131,0.1131,0.1131,0.1131,0.1168,0.1168,0.1204,0.1204,0.6431,0.0,0.7296,0.7405,0.7269,0.7033,0.0,0.662,0.6471,0.6167,0.6315,0.6484,0.647,0.6571,0.6595,0.6364,0.6208,0.588,0.5272,0.4599,0.392,0.3208,0.3153,0.3115,0.2815,0.2823,0.2859,0.2882,0.2861,0.2859,0.2883,0.2856,0.2849,0.2919,0.2919,0.2887,0.2916,0.2916,0.2919,0.2927,0.2905,0.2882,0.2859,0.2829,0.2811,0.2804,0.2797,0.2789,0.2784,0.2784,0.2765,0.2695,0.2695,0.272,0.2688,0.2617,0.2591,0.2607,0.2613,0.2584,0.2523,0.2517,0.2514,0.2514,0.2514,0.2514,0.2514,0.2514,0.2514,0.2514,0.2514,0.2514,0.2514,0.2514,0.2514,0.2514,0.2514,0.2239,0.2043,0.2043,0.1807,0.1689,0.2003,0.2043,0.216,0.2435,0.2239,0.2043,0.2043,0.1768,0.1571,0.1571,0.1571,0.1532,0.1454,0.1454,0.1294,0.09,0.0503,0.0267,0.0264,0.0298,0.0295,0.0292,0.0292,0.0292,0.0292,0.0584,0.073,0.0766,0.1058,0.1204,0.5829,0.6194,0.6532,0.6702,0.6681,0.658,0.643,0.6416,0.6348,0.6166,0.6369,0.6532,0.6344,0.6365,0.6299,0.5947,0.5431,0.4781,0.3924,0.3545,0.3194,0.2834,0.2866,0.2887,0.2775,0.2769,0.2762,0.2849,0.2838,0.2842,0.2917,0.2845,0.2836,0.2853,0.284,0.2846,0.2875,0.2875,0.2868,0.2855,0.284,0.2823,0.2807,0.2776,0.2762,0.2762,0.2747,0.2742,0.2742,0.2742,0.2732,0.2717,0.2717,0.2707,0.2688,0.2617,0.2587,0.2597,0.261,0.254,0.2514,0.2514,0.2514,0.2475,0.2278,0.2239,0.2278,0.2435,0.2357,0.2239,0.2239,0.2082,0.1964,0.1964,0.1964,0.1964,0.1964,0.1768,0.1611,0.1611,0.1454,0.1375,0.1571,0.1618,0.1703,0.1901,0.1751,0.1637,0.1637,0.143,0.1307,0.1307,0.1301,0.1296,0.1296,0.1099,0.0864,0.0628,0.0233,0.0,0.0,0.0,0.0,0.0,0.0,0.0,0.0,0.0219,0.0328,0.0328,0.0547,0.0657,0.5718,0.5897,0.6052,0.6267,0.6347,0.6361,0.6334,0.6354,0.6361,0.6334,0.6525,0.6577,0.6212,0.6107,0.5934,0.5389,0.4493,0.3542,0.2716,0.2655,0.2667,0.2532,0.2544,0.262,0.2686,0.2716,0.2713,0.2773,0.2774,0.2827,0.2903,0.2831,0.2773,0.2822,0.2797,0.2793,0.2771,0.2775,0.2808,0.2784,0.2774,0.2769,0.2769,0.2733,0.2677,0.268,0.2697,0.0,0.2692,0.2692,0.2692,0.2692,0.2692,0.2692,0.2688,0.2617,0.2587,0.2597,0.2604,0.2496,0.2396,0.2396,0.2357,0.2239,0.1925,0.1807,0.1886,0.2239,0.2082,0.1807,0.1807,0.1571,0.1296,0.1296,0.1296,0.1296,0.1296,0.1256,0.1178,0.1178,0.1139,0.1139,0.1181,0.1191,0.12,0.1282,0.1253,0.118,0.118,0.1128,0.112,0.112,0.1108,0.1099,0.1099,0.0746,0.051,0.051,0.0195,0.0,0.0,0.0,0.0,0.0,0.0,0.0,0.0,0.0,0.0,0.0,0.0,0.0,0.5718,0.5897,0.6079,0.6389,0.6559,0.662,0.6491,0.6559,0.66,0.6484,0.6551,0.6555,0.6318,0.5906,0.5369,0.4604,0.3457,0.265,0.2607,0.2465,0.2398,0.2496,0.2566,0.264,0.2684,0.2697,0.2725,0.2785,0.2766,0.2765,0.2796,0.2769,0.272,0.2789,0.2785,0.2773,0.2708,0.2777,0.2788,0.2782,0.2731,0.2706,0.2705,0.2647,0.2595,0.262,0.0,0.2669,0.2692,0.2692,0.2692,0.2692,0.2692,0.2692,0.2688,0.2617,0.2587,0.2594,0.254,0.2282,0.2003,0.2003,0.1768,0.1493,0.1414,0.1375,0.1414,0.1454,0.1454,0.1375,0.1375,0.1336,0.1296,0.1296,0.1296,0.1296,0.1296,0.0982,0.0707,0.0707,0.0432,0.0315,0.0637,0.0719,0.0842,0.1256,0.0976,0.0692,0.0692,0.0403,0.02,0.02,0.0198,0.0196,0.0196,0.0118,0.0079,0.0079,0.0039,0.0,0.0,0.0,0.0,0.0,0.0,0.0,0.0,0.0,0.0,0.0,0.0,0.0,0.5718,0.5897,0.6099,0.6498,0.6647,0.6702,0.6715,0.677,0.6803,0.6831,0.6812,0.6675,0.6167,0.5686,0.4949,0.3726,0.2958,0.2499,0.2454,0.2374,0.2391,0.2482,0.2572,0.2629,0.2661,0.2626,0.2692,0.2754,0.2703,0.2708,0.2781,0.2754,0.2693,0.2735,0.2718,0.2695,0.2664,0.2677,0.2694,0.2709,0.2664,0.2643,0.2642,0.2615,0.2609,0.2582,0.0,0.2598,0.2626,0.2626,0.2677,0.2692,0.2692,0.2692,0.2687,0.2639,0.2441,0.2211,0.2173,0.1925,0.1571,0.1571,0.1454,0.1256,0.0982,0.0903,0.0864,0.0668,0.0746,0.0903,0.0903,0.0746,0.0589,0.0589,0.0589,0.0589,0.0589,0.0432,0.0275,0.0275,0.0118,0.0039,0.0239,0.0281,0.0365,0.0574,0.0413,0.029,0.029,0.0123,0.0,0.0,0.0,0.0,0.0,0.0,0.0,0.0,0.0,0.0,0.0,0.0,0.0,0.0,0.0,0.0,0.0,0.0,0.0,0.0,0.0,0.0,0.5718,0.5897,0.612,0.6586,0.6756,0.683,0.7019,0.7114,0.7186,0.7259,0.7124,0.6774,0.6037,0.5257,0.4342,0.3132,0.2694,0.2451,0.2322,0.2352,0.2417,0.2495,0.253,0.257,0.2581,0.2586,0.2607,0.266,0.2664,0.2716,0.274,0.2718,0.2695,0.2672,0.2607,0.2585,0.2602,0.2596,0.2607,0.2595,0.2607,0.2592,0.2592,0.2585,0.2585,0.2592,0.2592,0.2613,0.2606,0.2606,0.2624,0.2692,0.2566,0.2475,0.2374,0.2326,0.205,0.175,0.1773,0.1493,0.1139,0.1139,0.106,0.0942,0.055,0.0471,0.0393,0.0079,0.0236,0.0471,0.0471,0.0236,0.0,0.0,0.0,0.0,0.0,0.0,0.0,0.0,0.0,0.0,0.0,0.0,0.0,0.0,0.0,0.0,0.0,0.0,0.0,0.0,0.0,0.0,0.0,0.0,0.0,0.0,0.0,0.0,0.0,0.0,0.0,0.0,0.0,0.0,0.0,0.0,0.0,0.0,0.0,0.0,0.5718,0.5897,0.612,0.6586,0.6884,0.7161,0.7482,0.7736,0.7874,0.7768,0.7344,0.6779,0.6046,0.4493,0.3277,0.3031,0.2562,0.2258,0.2284,0.2344,0.2433,0.2507,0.2499,0.253,0.2603,0.2606,0.2618,0.2609,0.2612,0.2612,0.2615,0.2612,0.2611,0.2608,0.2607,0.2604,0.2601,0.2615,0.2617,0.2604,0.2617,0.2603,0.2602,0.2533,0.2536,0.2603,0.2603,0.2594,0.2606,0.2606,0.2624,0.265,0.223,0.1786,0.1385,0.1408,0.1391,0.1337,0.1336,0.1021,0.0668,0.0668,0.0393,0.0079,0.0039,0.0039,0.0039,0.0,0.0039,0.0039,0.0039,0.0039,0.0,0.0,0.0,0.0,0.0,0.0,0.0,0.0,0.0,0.0,0.0,0.0,0.0,0.0,0.0,0.0,0.0,0.0,0.0,0.0,0.0,0.0,0.0,0.0,0.0,0.0,0.0,0.0,0.0,0.0,0.0,0.0,0.0,0.0,0.0,0.0,0.0,0.0,0.0,0.0,0.5718,0.5897,0.614,0.6688,0.7114,0.7479,0.7783,0.8074,0.8255,0.8097,0.7585,0.6769,0.5338,0.3993,0.3084,0.3058,0.2567,0.2244,0.2339,0.2371,0.2448,0.2556,0.2575,0.2553,0.2583,0.2586,0.259,0.2601,0.2601,0.2481,0.2238,0.2238,0.2108,0.1811,0.1811,0.1804,0.1791,0.1783,0.1783,0.1791,0.206,0.2176,0.2135,0.189,0.1772,0.1779,0.1779,0.1796,0.1782,0.1782,0.1794,0.1814,0.1649,0.1469,0.1287,0.1282,0.1111,0.0864,0.0864,0.0589,0.0236,0.0236,0.0118,0.0,0.0,0.0,0.0,0.0,0.0,0.0,0.0,0.0,0.0,0.0,0.0,0.0,0.0,0.0,0.0,0.0,0.0,0.0,0.0,0.0,0.0,0.0,0.0,0.0,0.0,0.0,0.0,0.0,0.0,0.0,0.0,0.0,0.0,0.0,0.0,0.0,0.0,0.0,0.0,0.0,0.0,0.0,0.0,0.0,0.0,0.0,0.0,0.0,0.5718,0.5897,0.6134,0.6755,0.7242,0.7726,0.8189,0.8481,0.8605,0.8367,0.7438,0.6174,0.4657,0.3534,0.2868,0.2959,0.2566,0.2263,0.237,0.2432,0.2465,0.2577,0.2585,0.2553,0.2572,0.2574,0.2574,0.2574,0.2453,0.2252,0.1972,0.1851,0.1644,0.1313,0.1312,0.1307,0.1296,0.1296,0.1296,0.1296,0.1414,0.1571,0.1689,0.1414,0.1296,0.1296,0.1296,0.1305,0.132,0.132,0.1208,0.1098,0.1094,0.1007,0.0879,0.0876,0.0672,0.0393,0.0393,0.0236,0.0,0.0,0.0,0.0,0.0,0.0,0.0,0.0,0.0,0.0,0.0,0.0,0.0,0.0,0.0,0.0,0.0,0.0,0.0,0.0,0.0,0.0,0.0,0.0,0.0,0.0,0.0,0.0,0.0,0.0,0.0,0.0,0.0,0.0,0.0,0.0,0.0,0.0,0.0,0.0,0.0,0.0,0.0,0.0,0.0,0.0,0.0,0.0,0.0,0.0,0.0,0.0,0.5718,0.5897,0.616,0.6762,0.7249,0.7841,0.8716,0.8948,0.892,0.8635,0.6759,0.4942,0.4049,0.313,0.2553,0.2665,0.2463,0.2322,0.2374,0.245,0.2518,0.2511,0.2514,0.2514,0.2514,0.2514,0.2475,0.2475,0.2121,0.1886,0.1886,0.1493,0.1296,0.1296,0.1296,0.1296,0.1296,0.1296,0.1296,0.1296,0.0825,0.0825,0.1296,0.1296,0.1296,0.1296,0.1296,0.1305,0.128,0.128,0.1046,0.0691,0.0683,0.04,0.0,0.0,0.0,0.0,0.0,0.0,0.0,0.0,0.0,0.0,0.0,0.0,0.0,0.0,0.0,0.0,0.0,0.0,0.0,0.0,0.0,0.0,0.0,0.0,0.0,0.0,0.0,0.0,0.0,0.0,0.0,0.0,0.0,0.0,0.0,0.0,0.0,0.0,0.0,0.0,0.0,0.0,0.0,0.0,0.0,0.0,0.0,0.0,0.0,0.0,0.0,0.0,0.0,0.0,0.0,0.0,0.0,0.0,0.5718,0.6064,0.6505,0.711,0.7733,0.8373,0.8904,0.8902,0.8403,0.7035,0.5664,0.4411,0.3514,0.2941,0.266,0.2743,0.2509,0.2352,0.2443,0.2502,0.2518,0.2511,0.2514,0.2514,0.2514,0.2239,0.2082,0.2082,0.1689,0.1336,0.1021,0.0864,0.0668,0.0393,0.0393,0.0393,0.0393,0.0393,0.0393,0.0393,0.0236,0.0393,0.0785,0.051,0.0393,0.0393,0.0393,0.0394,0.0395,0.0395,0.0317,0.0198,0.0198,0.0118,0.0,0.0,0.0,0.0,0.0,0.0,0.0,0.0,0.0,0.0,0.0,0.0,0.0,0.0,0.0,0.0,0.0,0.0,0.0,0.0,0.0,0.0,0.0,0.0,0.0,0.0,0.0,0.0,0.0,0.0,0.0,0.0,0.0,0.0,0.0,0.0,0.0,0.0,0.0,0.0,0.0,0.0,0.0,0.0,0.0,0.0,0.0,0.0,0.0,0.0,0.0,0.0,0.0,0.0,0.0,0.0,0.0,0.0,0.592,0.6328,0.6797,0.74,0.7965,0.8381,0.8321,0.8302,0.779,0.6035,0.4946,0.4033,0.3158,0.2721,0.2517,0.2583,0.244,0.2379,0.2496,0.2518,0.2493,0.2512,0.2514,0.2435,0.2278,0.2043,0.1846,0.1689,0.1256,0.0902,0.0624,0.0468,0.0233,0.0,0.0,0.0,0.0,0.0,0.0,0.0,0.0,0.0116,0.0349,0.0117,0.0,0.0,0.0,0.0,0.0,0.0,0.0,0.0,0.0,0.0,0.0,0.0,0.0,0.0,0.0,0.0,0.0,0.0,0.0,0.0,0.0,0.0,0.0,0.0,0.0,0.0,0.0,0.0,0.0,0.0,0.0,0.0,0.0,0.0,0.0,0.0,0.0,0.0,0.0,0.0,0.0,0.0,0.0,0.0,0.0,0.0,0.0,0.0,0.0,0.0,0.0,0.0,0.0,0.0,0.0,0.0,0.0,0.0,0.0,0.0,0.0,0.0,0.0,0.0,0.0,0.0,0.0,0.0,0.6218,0.6593,0.7066,0.7661,0.8001,0.7964,0.7166,0.7235,0.7013,0.5418,0.4471,0.3672,0.289,0.2463,0.2236,0.2292,0.2363,0.244,0.2499,0.2495,0.2514,0.251,0.2471,0.2312,0.1919,0.184,0.1645,0.1252,0.0822,0.0546,0.0539,0.0192,0.0,0.0,0.0,0.0,0.0,0.0,0.0,0.0,0.0,0.0,0.0,0.0,0.0,0.0,0.0,0.0,0.0,0.0,0.0,0.0,0.0,0.0,0.0,0.0,0.0,0.0,0.0,0.0,0.0,0.0,0.0,0.0,0.0,0.0,0.0,0.0,0.0,0.0,0.0,0.0,0.0,0.0,0.0,0.0,0.0,0.0,0.0,0.0,0.0,0.0,0.0,0.0,0.0,0.0,0.0,0.0,0.0,0.0,0.0,0.0,0.0,0.0,0.0,0.0,0.0,0.0,0.0,0.0,0.0,0.0,0.0,0.0,0.0,0.0,0.0,0.0,0.0,0.0,0.0,0.0,0.6218,0.6668,0.7193,0.7817,0.7971,0.764,0.6366,0.5772,0.5289,0.4503,0.3701,0.2974,0.2496,0.235,0.2289,0.2363,0.2394,0.2427,0.2502,0.2495,0.2506,0.2481,0.2207,0.1968,0.1833,0.1259,0.0839,0.0763,0.0382,0.0114,0.0114,0.0038,0.0,0.0,0.0,0.0,0.0,0.0,0.0,0.0,0.0,0.0,0.0,0.0,0.0,0.0,0.0,0.0,0.0,0.0,0.0,0.0,0.0,0.0,0.0,0.0,0.0,0.0,0.0,0.0,0.0,0.0,0.0,0.0,0.0,0.0,0.0,0.0,0.0,0.0,0.0,0.0,0.0,0.0,0.0,0.0,0.0,0.0,0.0,0.0,0.0,0.0,0.0,0.0,0.0,0.0,0.0,0.0,0.0,0.0,0.0,0.0,0.0,0.0,0.0,0.0,0.0,0.0,0.0,0.0,0.0,0.0,0.0,0.0,0.0,0.0,0.0,0.0,0.0,0.0,0.0,0.0,0.6301,0.6818,0.7346,0.7755,0.7603,0.7054,0.5807,0.4802,0.4013,0.3556,0.3164,0.2781,0.2384,0.2313,0.2318,0.2334,0.2361,0.2391,0.2459,0.2451,0.2465,0.2448,0.2103,0.1754,0.1553,0.0946,0.053,0.0341,0.0114,0.0,0.0,0.0,0.0,0.0,0.0,0.0,0.0,0.0,0.0,0.0,0.0,0.0,0.0,0.0,0.0,0.0,0.0,0.0,0.0,0.0,0.0,0.0,0.0,0.0,0.0,0.0,0.0,0.0,0.0,0.0,0.0,0.0,0.0,0.0,0.0,0.0,0.0,0.0,0.0,0.0,0.0,0.0,0.0,0.0,0.0,0.0,0.0,0.0,0.0,0.0,0.0,0.0,0.0,0.0,0.0,0.0,0.0,0.0,0.0,0.0,0.0,0.0,0.0,0.0,0.0,0.0,0.0,0.0,0.0,0.0,0.0,0.0,0.0,0.0,0.0,0.0,0.0,0.0,0.0,0.0,0.0,0.0,0.6375,0.6954,0.7498,0.7627,0.7198,0.6451,0.5321,0.4142,0.315,0.2776,0.2749,0.2673,0.2355,0.2283,0.2283,0.2283,0.2307,0.2335,0.2365,0.2397,0.2416,0.2416,0.2001,0.1584,0.1242,0.079,0.0376,0.0038,0.0,0.0,0.0,0.0,0.0,0.0,0.0,0.0,0.0,0.0,0.0,0.0,0.0,0.0,0.0,0.0,0.0,0.0,0.0,0.0,0.0,0.0,0.0,0.0,0.0,0.0,0.0,0.0,0.0,0.0,0.0,0.0,0.0,0.0,0.0,0.0,0.0,0.0,0.0,0.0,0.0,0.0,0.0,0.0,0.0,0.0,0.0,0.0,0.0,0.0,0.0,0.0,0.0,0.0,0.0,0.0,0.0,0.0,0.0,0.0,0.0,0.0,0.0,0.0,0.0,0.0,0.0,0.0,0.0,0.0,0.0,0.0,0.0,0.0,0.0,0.0,0.0,0.0,0.0,0.0,0.0,0.0,0.0,0.0,0.6245,0.7029,0.7704,0.7481,0.6995,0.6185,0.4812,0.3794,0.2963,0.2397,0.228,0.2286,0.2216,0.2216,0.2216,0.2216,0.2277,0.2307,0.2299,0.2365,0.2384,0.2384,0.175,0.1261,0.1211,0.0513,0.0073,0.0,0.0,0.0,0.0,0.0,0.0,0.0,0.0,0.0,0.0,0.0,0.0,0.0,0.0,0.0,0.0,0.0,0.0,0.0,0.0,0.0,0.0,0.0,0.0,0.0,0.0,0.0,0.0,0.0,0.0,0.0,0.0,0.0,0.0,0.0,0.0,0.0,0.0,0.0,0.0,0.0,0.0,0.0,0.0,0.0,0.0,0.0,0.0,0.0,0.0,0.0,0.0,0.0,0.0,0.0,0.0,0.0,0.0,0.0,0.0,0.0,0.0,0.0,0.0,0.0,0.0,0.0,0.0,0.0,0.0,0.0,0.0,0.0,0.0,0.0,0.0,0.0,0.0,0.0,0.0,0.0,0.0,0.0,0.0,0.0,0.6375,0.7049,0.7511,0.7194,0.6679,0.5864,0.4535,0.3619,0.2875,0.2262,0.2159,0.2159,0.2175,0.2185,0.2214,0.2198,0.224,0.2254,0.2232,0.2259,0.2278,0.2278,0.1623,0.1162,0.1156,0.0433,0.0,0.0,0.0,0.0,0.0,0.0,0.0,0.0,0.0,0.0,0.0,0.0,0.0,0.0,0.0,0.0,0.0,0.0,0.0,0.0,0.0,0.0,0.0,0.0,0.0,0.0,0.0,0.0,0.0,0.0,0.0,0.0,0.0,0.0,0.0,0.0,0.0,0.0,0.0,0.0,0.0,0.0,0.0,0.0,0.0,0.0,0.0,0.0,0.0,0.0,0.0,0.0,0.0,0.0,0.0,0.0,0.0,0.0,0.0,0.0,0.0,0.0,0.0,0.0,0.0,0.0,0.0,0.0,0.0,0.0,0.0,0.0,0.0,0.0,0.0,0.0,0.0,0.0,0.0,0.0,0.0,0.0,0.0,0.0,0.0,0.0,0.6308,0.6818,0.7098,0.6821,0.6272,0.5522,0.4383,0.3497,0.276,0.2181,0.2074,0.2103,0.2132,0.2155,0.2192,0.2168,0.2165,0.2168,0.2175,0.2162,0.218,0.2188,0.1536,0.1098,0.1098,0.0426,0.0,0.0,0.0,0.0,0.0,0.0,0.0,0.0,0.0,0.0,0.0,0.0,0.0,0.0,0.0,0.0,0.0,0.0,0.0,0.0,0.0,0.0,0.0,0.0,0.0,0.0,0.0,0.0,0.0,0.0,0.0,0.0,0.0,0.0,0.0,0.0,0.0,0.0,0.0,0.0,0.0,0.0,0.0,0.0,0.0,0.0,0.0,0.0,0.0,0.0,0.0,0.0,0.0,0.0,0.0,0.0,0.0,0.0,0.0,0.0,0.0,0.0,0.0,0.0,0.0,0.0,0.0,0.0,0.0,0.0,0.0,0.0,0.0,0.0,0.0,0.0,0.0,0.0,0.0,0.0,0.0,0.0,0.0,0.0,0.0,0.0,0.58,0.6199,0.6504,0.637,0.5829,0.5147,0.4374,0.3439,0.2568,0.2017,0.1951,0.2015,0.2023,0.2066,0.2103,0.2102,0.2102,0.2111,0.2108,0.2113,0.2124,0.2188,0.1537,0.1102,0.1102,0.0418,0.0,0.0,0.0,0.0,0.0,0.0,0.0,0.0,0.0,0.0,0.0,0.0,0.0,0.0,0.0,0.0,0.0,0.0,0.0,0.0,0.0,0.0,0.0,0.0,0.0,0.0,0.0,0.0,0.0,0.0,0.0,0.0,0.0,0.0,0.0,0.0,0.0,0.0,0.0,0.0,0.0,0.0,0.0,0.0,0.0,0.0,0.0,0.0,0.0,0.0,0.0,0.0,0.0,0.0,0.0,0.0,0.0,0.0,0.0,0.0,0.0,0.0,0.0,0.0,0.0,0.0,0.0,0.0,0.0,0.0,0.0,0.0,0.0,0.0,0.0,0.0,0.0,0.0,0.0,0.0,0.0,0.0,0.0,0.0,0.0,0.0,0.5766,0.5989,0.6158,0.6122,0.5605,0.4931,0.4285,0.3517,0.2776,0.2168,0.2078,0.2084,0.1918,0.1985,0.2089,0.2038,0.2035,0.2038,0.2049,0.205,0.2054,0.2065,0.1649,0.1276,0.105,0.0608,0.0237,0.0,0.0,0.0,0.0,0.0,0.0,0.0,0.0,0.0,0.0,0.0,0.0,0.0,0.0,0.0,0.0,0.0,0.0,0.0,0.0,0.0,0.0,0.0,0.0,0.0,0.0,0.0,0.0,0.0,0.0,0.0,0.0,0.0,0.0,0.0,0.0,0.0,0.0,0.0,0.0,0.0,0.0,0.0,0.0,0.0,0.0,0.0,0.0,0.0,0.0,0.0,0.0,0.0,0.0,0.0,0.0,0.0,0.0,0.0,0.0,0.0,0.0,0.0,0.0,0.0,0.0,0.0,0.0,0.0,0.0,0.0,0.0,0.0,0.0,0.0,0.0,0.0,0.0,0.0,0.0,0.0,0.0,0.0,0.0,0.0,0.5647,0.5766,0.5852,0.5846,0.5389,0.4815,0.4262,0.3597,0.2929,0.2384,0.2216,0.2103,0.1931,0.1961,0.1986,0.1975,0.1974,0.1978,0.1957,0.1958,0.1962,0.2003,0.1696,0.1366,0.1046,0.0687,0.0361,0.0033,0.0,0.0,0.0,0.0,0.0,0.0,0.0,0.0,0.0,0.0,0.0,0.0,0.0,0.0,0.0,0.0,0.0,0.0,0.0,0.0,0.0,0.0,0.0,0.0,0.0,0.0,0.0,0.0,0.0,0.0,0.0,0.0,0.0,0.0,0.0,0.0,0.0,0.0,0.0,0.0,0.0,0.0,0.0,0.0,0.0,0.0,0.0,0.0,0.0,0.0,0.0,0.0,0.0,0.0,0.0,0.0,0.0,0.0,0.0,0.0,0.0,0.0,0.0,0.0,0.0,0.0,0.0,0.0,0.0,0.0,-0.0118,-0.0196,-0.0196,-0.0353,-0.0432,-0.0432,-0.0432,-0.051,-0.0628,-0.0196,0.0,0.0,0.0,-0.0078,0.0,0.0,0.0,0.5516,0.5196,0.4787,0.432,0.3645,0.3033,0.2692,0.2353,0.21,0.21,0.1941,0.1817,0.1877,0.1913,0.1896,0.1895,0.1899,0.1911,0.2001,0.1716,0.1378,0.105,0.0697,0.0384,0.0032,0.0,0.0,0.0,0.0,0.0,0.0,0.0,0.0,0.0,0.0,0.0,0.0,0.0,0.0,0.0,0.0,0.0,0.0,0.0,0.0,0.0,0.0,0.0,0.0,0.0,0.0,0.0,0.0,0.0,0.0,0.0,0.0,0.0,0.0,0.0,0.0,0.0,0.0,0.0,0.0,0.0,0.0,0.0,0.0,0.0,0.0,-0.0038,-0.0038,-0.0039,-0.0039,-0.0039,0.0,0.0,0.0,0.0,0.0,-0.0039,-0.0039,-0.0039,-0.0039,-0.0039,-0.0039,-0.0039,-0.0039,-0.0039,-0.0039,-0.0039,-0.0039,-0.0039,-0.0039,-0.0432,-0.0668,-0.0668,-0.1099,-0.1375,-0.1374,-0.1374,-0.157,-0.1964,-0.0668,-0.0079,-0.0079,-0.0078,-0.0271,0.5392,0.0,0.0,0.0,0.0,0.0,0.4579,0.4101,0.3602,0.3063,0.2579,0.2194,0.2046,0.1863,0.1756,0.1807,0.1872,0.1888,0.1898,0.1898,0.1902,0.194,0.1858,0.1657,0.1335,0.1,0.064,0.031,0.0123,0.0,0.0,0.0,0.0,0.0,0.0,0.0,0.0,0.0,0.0,0.0,0.0,0.0,0.0,0.0,0.0,0.0,0.0,0.0,0.0,0.0,0.0,0.0,0.0,0.0,0.0,0.0,0.0,0.0,0.0,0.0,0.0,0.0,0.0,0.0,0.0,0.0,0.0,0.0,0.0,0.0,0.0,-0.0219,-0.044,-0.0447,-0.064,-0.0875,-0.085,-0.0898,-0.0746,-0.0118,0.0,-0.0079,-0.0393,-0.0432,-0.055,-0.0903,-0.0942,-0.0942,-0.0942,-0.0942,-0.0942,-0.0942,-0.0942,-0.0942,-0.0942,-0.0942,-0.106,-0.1375,-0.1493,-0.1806,-0.2393,-0.2552,-0.2746,-0.3098,-0.3098,-0.3176,-0.3256,-0.2002,-0.1531,-0.1804,-0.1751,-0.1806,0.0,0.0,0.0,0.5349,0.0,0.0,0.4809,0.4472,0.4077,0.3439,0.2804,0.2314,0.2112,0.1855,0.167,0.1757,0.1796,0.1823,0.1861,0.1866,0.1872,0.1884,0.1885,0.177,0.1419,0.121,0.0977,0.0629,0.0331,0.0121,0.0,0.0,0.0,0.0,0.0,0.0,0.0,0.0,0.0,0.0,0.0,0.0,0.0,0.0,0.0,0.0,0.0,0.0,0.0,0.0,0.0,0.0,0.0,0.0,0.0,0.0,0.0,0.0,0.0,0.0,0.0,0.0,0.0,0.0,0.0,0.0,-0.0036,-0.0219,-0.0365,-0.0547,-0.0657,-0.0912,-0.1171,-0.1482,-0.1755,-0.1958,-0.2136,-0.2193,-0.1901,-0.0744,-0.0668,-0.0864,-0.1099,-0.1296,-0.1492,-0.1767,-0.1806,-0.1845,-0.2042,-0.2042,-0.212,-0.2315,-0.2354,-0.2354,-0.2354,-0.2354,-0.2433,-0.2668,-0.2866,-0.3217,-0.3881,-0.404,-0.4351,-0.4818,-0.4857,-0.4936,-0.5095,-0.3491,-0.2825,-0.3057,-0.3123,-0.3162,0.0,0.0,0.0,0.0,0.5488,0.0,0.5038,0.4789,0.4435,0.3768,0.3015,0.242,0.2229,0.1852,0.1605,0.1663,0.1674,0.1726,0.1789,0.1801,0.1813,0.1872,0.1876,0.1778,0.1465,0.1424,0.1253,0.0979,0.0591,0.0273,0.0,0.0,0.0,0.0,0.0,0.0,0.0,0.0,0.0,0.0,0.0,0.0,0.0,0.0,0.0,0.0,0.0,0.0,0.0,0.0,0.0,0.0,0.0,0.0,0.0,0.0,0.0,0.0,0.0,0.0,0.0,0.0,0.0,0.0,-0.0036,-0.0108,-0.0218,-0.0729,-0.1131,-0.1459,-0.1822,-0.1968,-0.2228,-0.2918,-0.3152,-0.3276,-0.369,-0.3778,-0.3389,-0.2067,-0.196,-0.2117,-0.2159,-0.2472,-0.2707,-0.2786,-0.2786,-0.2942,-0.3335,-0.3374,-0.357,-0.4036,-0.4077,-0.4077,-0.4077,-0.4077,-0.4116,-0.4155,-0.4469,-0.4899,-0.5327,-0.5681,-0.6111,-0.6577,-0.6577,-0.6736,-0.7092,-0.5173,-0.4194,-0.4231,-0.4433,-0.4535,0.0,0.0,0.0,0.0,0.0,0.0,0.5396,0.5012,0.459,0.3965,0.3074,0.2369,0.2166,0.1781,0.1534,0.1547,0.1573,0.1665,0.1782,0.1794,0.1807,0.1809,0.1813,0.1782,0.1719,0.147,0.128,0.1235,0.0703,0.0268,0.0,0.0,0.0,0.0,0.0,0.0,0.0,0.0,0.0,0.0,0.0,0.0,0.0,0.0,0.0,0.0,0.0,0.0,0.0,0.0,0.0,0.0,0.0,0.0,0.0,0.0,0.0,0.0,0.0,0.0,0.0,0.0,0.0,-0.0035,-0.0316,-0.0675,-0.1187,-0.2179,-0.2513,-0.2659,-0.3059,-0.3387,-0.3755,-0.4236,-0.4604,-0.4937,-0.5357,-0.5441,-0.5389,-0.5201,-0.4135,-0.3411,-0.3838,-0.3962,-0.4158,-0.4471,-0.451,-0.4667,-0.5056,-0.5095,-0.529,-0.5756,-0.5796,-0.5796,-0.5796,-0.5796,-0.5952,-0.6268,-0.6385,-0.6776,-0.756,-0.7599,-0.7833,-0.8306,-0.8306,-0.8345,-0.8427,-0.733,-0.6779,-0.6776,-0.6724,-0.6687,0.0,0.0,0.0,0.5698,0.0,0.0,0.0,0.5246,0.4778,0.4178,0.3227,0.2405,0.2112,0.1698,0.1406,0.1451,0.1495,0.1575,0.1675,0.1725,0.176,0.1748,0.1749,0.1749,0.1749,0.1585,0.1437,0.1303,0.0894,0.0528,0.0208,0.006,0.0,0.0,0.0,0.0,0.0,0.0,0.0,0.0,0.0,0.0,0.0,0.0,0.0,0.0,0.0,0.0,0.0,0.0,0.0,0.0,0.0,0.0,0.0,0.0,0.0,0.0,0.0,0.0,-0.0034,-0.0204,-0.0376,-0.0619,-0.0935,-0.162,-0.2506,-0.3419,-0.3873,-0.4184,-0.4805,-0.5096,-0.5386,-0.6003,-0.6286,-0.6539,-0.6905,-0.7015,-0.7046,-0.7255,-0.6633,-0.5944,-0.5702,-0.5802,-0.5997,-0.6232,-0.6232,-0.6388,-0.6857,-0.6854,-0.7014,-0.7482,-0.756,-0.756,-0.756,-0.756,-0.7638,-0.7838,-0.7838,-0.815,-0.8774,-0.8774,-0.8968,-0.9402,-0.9402,-0.9402,-0.9402,-0.8968,-0.854,-0.815,-0.7999,-0.794,0.0,0.0,0.0,0.0,0.0,0.5864,0.0,0.0,0.0,0.4228,0.3268,0.2417,0.2047,0.1606,0.1313,0.138,0.144,0.1504,0.1553,0.1609,0.167,0.1693,0.1696,0.1699,0.1704,0.1699,0.1585,0.133,0.1038,0.0741,0.0408,0.0148,0.0,0.0,0.0,0.0,0.0,0.0,0.0,0.0,0.0,0.0,0.0,0.0,0.0,0.0,0.0,0.0,0.0,0.0,0.0,0.0,0.0,0.0,0.0,0.0,0.0,0.0,-0.0067,-0.0135,-0.0269,-0.0606,-0.1085,-0.1609,-0.2093,-0.2963,-0.3973,-0.4796,-0.531,-0.5801,-0.6524,-0.6717,-0.6914,-0.7638,-0.782,-0.7892,-0.8259,-0.8331,-0.8394,-0.8683,-0.8722,-0.8412,-0.745,-0.7525,-0.7759,-0.7759,-0.7759,-0.7916,-0.8384,-0.8379,-0.854,-0.8973,-0.9012,-0.9012,-0.9012,-0.9012,-0.9012,-0.9012,-0.9012,-0.9168,-0.9514,-0.9514,-0.9675,-0.998,-0.998,-0.998,-0.998,-0.998,-0.9669,-0.9007,-0.89,-0.8802,0.0,0.0,0.0,0.0,0.5676,0.0,0.0,0.0,0.4364,0.3934,0.0,0.2169,0.1959,0.0,0.0,0.1317,0.1365,0.1425,0.1432,0.1488,0.157,0.1679,0.1693,0.1703,0.1701,0.1707,0.1576,0.1313,0.1006,0.0698,0.0422,0.0141,0.0,0.0,0.0,0.0,0.0,0.0,0.0,0.0,0.0,0.0,0.0,0.0,0.0,0.0,0.0,0.0,0.0,0.0,0.0,0.0,0.0,0.0,0.0,0.0,0.0,-0.0034,-0.0337,-0.0673,-0.1043,-0.138,-0.2155,-0.3141,-0.4203,-0.4878,-0.5491,-0.6569,-0.701,-0.7255,-0.7687,-0.7863,-0.8005,-0.8476,-0.8584,-0.8693,-0.909,-0.9157,-0.9232,-0.951,-0.9553,-0.9364,-0.8701,-0.8622,-0.8661,-0.8661,-0.8661,-0.8817,-0.9202,-0.9241,-0.9397,-0.9825,-0.9864,-0.9864,-0.9864,-0.9864,-0.9864,-0.9864,-0.9864,-0.9864,-0.9942,-0.9942,-0.9942,-0.998,-0.998,-0.998,-0.998,-0.998,-0.9942,-0.9864,-0.9741,-0.9676,0.0,0.0,0.0,0.0,0.0,0.0,0.5096,0.0,0.413,0.0,0.0,0.0,0.0,0.0,0.0,0.0,0.1314,0.1346,0.1342,0.1366,0.1442,0.1569,0.1572,0.1588,0.1574,0.1631,0.1589,0.1475,0.1211,0.0918,0.0643,0.0386,0.0169,0.0,0.0,0.0,0.0,0.0,0.0,0.0,0.0,0.0,0.0,0.0,0.0,0.0,0.0,0.0,0.0,0.0,0.0,0.0,0.0,0.0,0.0,0.0,-0.0133,-0.0337,-0.0707,-0.1245,-0.1917,-0.3094,-0.3933,-0.4678,-0.5784,-0.6266,-0.6624,-0.7525,-0.7891,-0.8093,-0.851,-0.8673,-0.876,-0.9002,-0.9049,-0.9085,-0.9266,-0.9302,-0.9356,-0.953,-0.966,-0.9645,-0.9428,-0.9434,-0.9475,-0.9475,-0.9475,-0.9553,-0.9708,-0.9747,-0.9825,-0.998,-0.998,-0.998,-0.998,-0.998,-0.998,-0.998,-0.998,-0.998,-0.998,-0.998,-0.998,-0.998,-0.998,-0.998,-0.998,-0.998,-0.998,-0.998,-0.9926,-0.9867,0.5234,0.0,0.0,0.0,0.0,0.0,0.0,0.0,0.0,0.0,0.0,0.0,0.0,0.0,0.0,0.1307,0.0,0.1307,0.13,0.131,0.1345,0.1469,0.149,0.1494,0.1502,0.1539,0.1574,0.1583,0.1324,0.1068,0.0818,0.0536,0.0275,0.0,0.0,0.0,0.0,0.0,0.0,0.0,0.0,0.0,0.0,0.0,0.0,0.0,0.0,0.0,0.0,0.0,0.0,0.0,0.0,0.0,0.0,-0.0098,-0.0364,-0.0736,-0.1344,-0.222,-0.3327,-0.4906,-0.5614,-0.6016,-0.702,-0.7338,-0.75,-0.8144,-0.8397,-0.858,-0.8944,-0.9049,-0.9119,-0.9237,-0.928,-0.9302,-0.9302,-0.9302,-0.934,-0.9465,-0.9622,-0.9704,-0.978,-0.9899,-0.998,-0.998,-0.998,-0.998,-0.998,-0.998,-0.998,-0.998,-0.998,-0.998,-0.998,-0.998,-0.998,-0.998,-0.998,-0.998,-0.998,-0.998,-0.998,-0.998,-0.998,-0.998,-0.998,-0.998,-0.998,-0.998,-0.998,-0.9932,0.0,0.0,0.0,0.4339,0.0,0.0,0.0,0.0,0.304,0.0,0.0,0.0,0.0,0.0,0.0,0.0,0.1303,0.0,0.0,0.1306,0.1326,0.1385,0.1468,0.1494,0.1499,0.15,0.1495,0.1502,0.1266,0.1013,0.0811,0.0536,0.0286,0.0,0.0,0.0,0.0,0.0,0.0,0.0,0.0,0.0,0.0,0.0,0.0,0.0,0.0,0.0,0.0,0.0,0.0,0.0,0.0,0.0,-0.0032,-0.0354,-0.075,-0.1222,-0.2275,-0.3799,-0.548,-0.6585,-0.6953,-0.7083,-0.7822,-0.8061,-0.8128,-0.8495,-0.8682,-0.8774,-0.8814,-0.8959,-0.9098,-0.9103,-0.9226,-0.9302,-0.9302,-0.9302,-0.934,-0.9465,-0.9622,-0.9704,-0.978,-0.9899,-0.998,-0.998,-0.998,-0.998,-0.998,-0.998,-0.998,-0.998,-0.998,-0.998,-0.998,-0.998,-0.998,-0.998,-0.998,-0.998,-0.998,-0.998,-0.998,-0.998,-0.998,-0.998,-0.998,-0.998,-0.998,-0.998,-0.998,-0.998,0.0,0.0,0.3421,0.3384,0.0,0.0,0.0,0.0,0.0,0.0,0.0,0.0,0.0,0.0,0.0,0.0,0.0,0.0,0.0,0.1306,0.1315,0.1334,0.1397,0.1433,0.144,0.1433,0.1432,0.1443,0.1392,0.1179,0.0746,0.0699,0.0461,0.0026,0.0,0.0,0.0,0.0,0.0,0.0,0.0,0.0,0.0,0.0,0.0,0.0,0.0,0.0,0.0,0.0,0.0,0.0,0.0,-0.0123,-0.0374,-0.0696,-0.1259,-0.2113,-0.4114,-0.5543,-0.6585,-0.7455,-0.7722,-0.7822,-0.8289,-0.8423,-0.8456,-0.8556,-0.8617,-0.8699,-0.8781,-0.8868,-0.8916,-0.8957,-0.9071,-0.9157,-0.9157,-0.9253,-0.9318,-0.9356,-0.9465,-0.9584,-0.9704,-0.9824,-0.9888,-0.997,-0.998,-0.998,-0.998,-0.998,-0.998,-0.998,-0.998,-0.998,-0.998,-0.998,-0.998,-0.998,-0.998,-0.998,-0.998,-0.998,-0.998,-0.998,-0.998,-0.998,-0.998,-0.998,-0.998,-0.998,-0.998,-0.998,0.2714,0.2722,0.0,0.2658,0.2576,0.0,0.2417,0.0,0.0,0.0,0.0,0.0,0.0,0.0,0.0,0.0,0.0,0.0,0.0,0.131,0.1307,0.1335,0.1349,0.1369,0.1409,0.1391,0.1391,0.1391,0.1464,0.1276,0.0723,0.0756,0.0551,0.0025,0.0,0.0,0.0,0.0,0.0,0.0,0.0,0.0,0.0,0.0,0.0,0.0,0.0,0.0,0.0,0.0,0.0,0.0,0.0,-0.0274,-0.0711,-0.1066,-0.2088,-0.3597,-0.5582,-0.6782,-0.7488,-0.8089,-0.8289,-0.8323,-0.8523,-0.859,-0.859,-0.859,-0.859,-0.8606,-0.8716,-0.877,-0.8825,-0.8867,-0.8946,-0.9044,-0.9087,-0.9157,-0.9258,-0.9296,-0.94,-0.9525,-0.9687,-0.9764,-0.984,-0.9964,-0.998,-0.998,-0.998,-0.998,-0.998,-0.998,-0.998,-0.998,-0.998,-0.998,-0.998,-0.998,-0.998,-0.998,-0.998,-0.998,-0.998,-0.998,-0.998,-0.998,-0.998,-0.998,-0.998,-0.998,-0.998,-0.998]},{"header":{"parameterUnit":"m.s-1","parameterCategory":1,"la1":30.6,"la2":29.2853,"lo1":-89.7004,"lo2":-87.6739,"dy":0.0162,"dx":0.0183,"nx":112,"ny":82,"refTime":"2023-09-26T00:00:00:Z","depth":0,"parameterNumber":3,"parameterNumberName":"V-component_of_WINDS"},"data":[0.0,0.0,0.0,0.0,0.0,0.0,0.0,0.0,0.0,0.0,0.0,0.0,0.0,0.0,0.0,0.0,0.0,0.0,0.0,0.0,0.0,0.0,0.0,0.0,0.0,0.0,0.0,0.0,0.0,0.0,0.0,0.0,0.0,0.0,0.0,0.0,0.0,0.0,0.0,0.0,0.0,0.0,0.0,0.0,0.0,0.0,0.0,0.0,0.0,0.0,0.0,0.0,0.0,0.0,0.0,0.0,0.0,0.0,0.0,0.0,0.0,0.0,0.0,0.0,0.0,0.0,0.0,0.0,0.0,0.0,0.0,0.0,0.0,0.0,0.0,0.0,0.0,0.0,0.0,0.0,0.0,0.0,0.0,0.0,0.0,0.0,0.0,0.0,0.0,0.0,3.885,4.5364,5.2175,5.5848,5.4764,5.1553,4.7636,4.3072,0.0,0.0,0.0,0.0,0.0,0.0,0.0,0.0,0.0,0.0,0.0,0.0,0.0,0.0,0.0,0.0,0.0,0.0,0.0,0.0,0.0,0.0,0.0,0.0,0.0,0.0,0.0,0.0,0.0,0.0,0.0,0.0,0.0,0.0,0.0,0.0,0.0,0.0,0.0,0.0,0.0,0.0,0.0,0.0,0.0,0.0,0.0,0.0,0.0,0.0,0.0,0.0,0.0,0.0,0.0,0.0,0.0,0.0,0.0,0.0,0.0,0.0,0.0,0.0,0.0,0.0,0.0,0.0,0.0,0.0,0.0,0.0,0.0,0.0,0.0,0.0,0.0,0.0,0.0,0.0,0.0,0.0,0.0,0.0,0.0,0.0,0.0,0.0,0.0,0.0,0.0,0.0,0.0,0.0,0.0,0.0,0.0,0.0,0.0,0.0,0.0,0.0,0.0,0.0,4.2404,5.1238,5.5678,5.758,5.6413,5.3192,4.9076,4.3952,0.0,0.0,0.0,0.0,0.0,0.0,0.0,0.0,0.0,0.0,0.0,0.0,0.0,0.0,0.0,0.0,0.0,0.0,0.0,0.0,0.0,0.0,0.0,0.0,0.0,0.0,0.0,0.0,0.0,0.0,0.0,0.0,0.0,0.0,0.0,0.0,0.0,0.0,0.0,0.0,0.0,0.0,0.0,0.0,0.0,0.0,0.0,0.0,0.0,0.0,0.0,0.0,0.0,0.0,0.0,0.0,0.0,0.0,0.0,0.0,0.0,0.0,0.0,0.0,0.0,0.0,0.0,0.0,0.0,0.0,0.0,0.0,0.0,0.0,0.0,0.0,0.0,0.0,0.0,0.0,0.0,0.0,0.0,0.0,0.0,0.0,0.0,0.0,0.0,0.0,0.0,0.0,0.0,0.0,0.0,0.0,0.0,0.0,0.0,0.0,0.0,0.0,0.0,4.1606,4.7418,5.3596,5.7203,5.8353,5.6376,5.3444,4.9268,4.3542,3.8638,0.0,0.0,0.0,0.0,0.0,0.0,0.0,0.0,0.0,0.0,0.0,0.0,0.0,0.0,0.0,0.0,0.0,0.0,0.0,0.0,0.0,0.0,0.0,0.0,0.0,0.0,0.0,0.0,0.0,0.0,0.0,0.0,0.0,0.0,0.0,0.0,0.0,0.0,0.0,0.0,0.0,0.0,0.0,0.0,0.0,0.0,0.0,0.0,0.0,0.0,0.0,0.0,0.0,0.0,0.0,0.0,0.0,0.0,0.0,0.0,0.0,0.0,0.0,0.0,0.0,0.0,0.0,0.0,0.0,0.0,0.0,0.0,0.0,0.0,0.0,0.0,0.0,0.0,0.0,0.0,0.0,0.0,0.0,0.0,0.0,0.0,0.0,0.0,0.0,0.0,0.0,0.0,0.0,0.0,0.0,0.0,0.0,0.0,0.0,0.0,0.0,0.0,4.6032,5.0842,5.4518,5.7534,5.8345,5.6036,5.3002,4.8808,4.311,3.8644,0.0,0.0,0.0,0.0,0.0,0.0,0.0,0.0,0.0,0.0,0.0,0.0,0.0,0.0,0.0,0.0,0.0,0.0,0.0,0.0,0.0,0.0,0.0,0.0,0.0,0.0,0.0,0.0,0.0,0.0,0.0,0.0,0.0,0.0,0.0,0.0,0.0,0.0,0.0,0.0,0.0,0.0,0.0,0.0,0.0,0.0,0.0,0.0,0.0,0.0,0.0,0.0,0.0,0.0,0.0,0.0,0.0,0.0,0.0,0.0,0.0,0.0,0.0,0.0,0.0,0.0,0.0,0.0,0.0,0.0,0.0,0.0,0.0,0.0,0.0,0.0,0.0,0.0,0.0,0.0,0.0,0.0,0.0,0.0,0.0,0.0,0.0,0.0,0.0,0.0,0.0,0.0,0.0,0.0,0.0,0.0,0.0,0.0,0.0,0.0,0.0,0.0,4.589,5.0289,5.4529,5.661,5.7225,5.6062,5.2038,4.7672,4.3252,3.8217,0.0,0.0,0.0,0.0,0.0,0.0,0.0,0.0,0.0,0.0,0.0,0.0,0.0,0.0,0.0,0.0,0.0,0.0,0.0,0.0,0.0,0.0,0.0,0.0,0.0,0.0,0.0,0.0,0.0,0.0,0.0,0.0,0.0,0.0,0.0,0.0,0.0,0.0,0.0,0.0,0.0,0.0,0.0,0.0,0.0,0.0,0.0,0.0,0.0,0.0,0.0,0.0,0.0,0.0,0.0,0.0,0.0,0.0,0.0,0.0,0.0,0.0,0.0,0.0,0.0,0.0,0.0,0.0,0.0,0.0,0.0,0.0,0.0,0.0,0.0,0.0,0.0,0.0,0.0,0.0,0.0,0.0,0.0,0.0,0.0,0.0,0.0,0.0,0.0,0.0,0.0,0.0,0.0,0.0,0.0,0.0,0.0,0.0,0.0,0.0,0.0,0.0,4.6409,5.0685,0.0,5.5817,5.6002,5.3978,5.0745,4.6779,4.188,0.0,0.0,0.0,0.0,0.0,0.0,0.0,0.0,0.0,0.0,0.0,0.0,0.0,0.0,0.0,0.0,0.0,0.0,0.0,0.0,0.0,0.0,0.0,0.0,0.0,0.0,0.0,0.0,0.0,0.0,0.0,0.0,0.0,0.0,0.0,0.0,0.0,0.0,0.0,0.0,0.0,0.0,0.0,0.0,0.0,0.0,0.0,0.0,0.0,0.0,0.0,0.0,0.0,0.0,0.0,0.0,0.0,0.0,0.0,0.0,0.0,0.0,0.0,0.0,0.0,0.0,0.0,0.0,0.0,0.0,0.0,0.0,0.0,0.0,0.0,0.0,0.0,0.0,0.0,0.0,0.0,0.0,0.0,0.0,0.0,0.0,0.0,0.0,0.0,0.0,0.0,0.0,0.0,0.0,0.0,0.0,0.0,0.0,0.0,0.0,0.0,0.0,4.1625,4.6278,5.0258,0.0,5.4545,5.4424,5.2339,4.9484,4.5791,4.1048,0.0,0.0,0.0,0.0,0.0,0.0,0.0,0.0,0.0,0.0,0.0,0.0,0.0,0.0,0.0,0.0,0.0,0.0,0.0,0.0,0.0,0.0,0.0,0.0,0.0,0.0,0.0,0.0,0.0,0.0,0.0,0.0,0.0,0.0,0.0,0.0,0.0,0.0,0.0,0.0,0.0,0.0,0.0,0.0,0.0,0.0,0.0,0.0,0.0,0.0,0.0,0.0,0.0,0.0,0.0,0.0,0.0,0.0,0.0,0.0,0.0,0.0,0.0,0.0,0.0,0.0,0.0,0.0,0.0,0.0,0.0,0.0,0.0,0.0,0.0,0.0,0.0,0.0,0.0,0.0,0.0,0.0,0.0,0.0,0.0,0.0,0.0,0.0,0.0,0.0,0.0,0.0,0.0,0.0,0.0,0.0,0.0,0.0,0.0,0.0,0.0,0.0,4.1631,4.5293,4.884,5.2311,5.2729,5.2436,5.1529,4.8274,4.4735,0.0,0.0,0.0,0.0,0.0,0.0,0.0,0.0,0.0,0.0,0.0,0.0,0.0,0.0,0.0,0.0,0.0,0.0,0.0,0.0,0.0,0.0,0.0,0.0,0.0,0.0,0.0,0.0,0.0,0.0,0.0,0.0,0.0,0.0,0.0,0.0,0.0,0.0,0.0,0.0,0.0,0.0,0.0,0.0,0.0,0.0,0.0,0.0,0.0,0.0,0.0,0.0,0.0,0.0,0.0,0.0,0.0,0.0,0.0,0.0,0.0,0.0,0.0,0.0,0.0,0.0,0.0,0.0,0.0,0.0,0.0,0.0,0.0,0.0,0.0,0.0,0.0,0.0,0.0,0.0,0.0,0.0,0.0,0.0,0.0,0.0,0.0,0.0,0.0,0.0,0.0,0.0,0.0,0.0,0.0,0.0,0.0,0.0,0.0,0.0,0.0,0.0,0.0,4.0936,4.498,4.845,5.0776,5.1035,5.0462,4.9031,4.6264,4.3084,3.9488,0.0,0.0,0.0,0.0,0.0,0.0,0.0,0.0,0.0,0.0,0.0,0.0,0.0,0.0,0.0,0.0,0.0,0.0,0.0,0.0,0.0,0.0,0.0,0.0,0.0,0.0,0.0,0.0,0.0,0.0,0.0,0.0,0.0,0.0,0.0,0.0,0.0,0.0,0.0,0.0,0.0,0.0,0.0,0.0,0.0,0.0,0.0,0.0,0.0,0.0,0.0,0.0,0.0,0.0,0.0,0.0,0.0,0.0,0.0,0.0,0.0,0.0,0.0,0.0,0.0,0.0,0.0,0.0,0.0,0.0,0.0,0.0,0.0,0.0,0.0,0.0,0.0,0.0,0.0,0.0,0.0,0.0,0.0,0.0,0.0,0.0,0.0,0.0,0.0,0.0,0.0,0.0,0.0,0.0,0.0,0.0,0.0,0.0,0.0,0.0,0.0,0.0,4.0692,4.4604,4.768,4.9158,4.9595,4.8984,4.6959,4.5023,4.2395,3.885,0.0,0.0,0.0,0.0,0.0,0.0,0.0,0.0,0.0,0.0,0.0,0.0,0.0,0.0,0.0,0.0,0.0,0.0,0.0,0.0,0.0,0.0,0.0,0.0,0.0,0.0,0.0,0.0,0.0,0.0,0.0,0.0,0.0,0.0,0.0,0.0,0.0,0.0,0.0,0.0,0.0,0.0,0.0,0.0,0.0,0.0,0.0,0.0,0.0,0.0,0.0,0.0,0.0,0.0,0.0,0.0,0.0,0.0,0.0,0.0,0.0,0.0,0.0,0.0,0.0,0.0,0.0,0.0,0.0,0.0,0.0,0.0,0.0,0.0,0.0,0.0,0.0,0.0,0.0,0.0,0.0,0.0,0.0,0.0,0.0,0.0,0.0,0.0,0.0,0.0,0.0,0.0,0.0,0.0,0.0,0.0,0.0,0.0,0.0,0.0,0.0,0.0,4.0624,4.4013,4.6574,4.7553,4.8372,4.7881,4.5512,4.4385,4.2341,3.8935,0.0,0.0,0.0,0.0,0.0,0.0,0.0,0.0,0.0,0.0,0.0,0.0,0.0,0.0,0.0,0.0,0.0,0.0,0.0,0.0,0.0,0.0,0.0,0.0,0.0,0.0,0.0,0.0,0.0,0.0,0.0,0.0,0.0,0.0,0.0,0.0,0.0,0.0,0.0,0.0,0.0,0.0,0.0,0.0,0.0,0.0,0.0,0.0,0.0,0.0,0.0,0.0,0.0,0.0,0.0,0.0,0.0,0.0,0.0,0.0,3.6089,3.4156,0.0,0.0,0.0,0.0,0.0,0.0,0.0,0.0,0.0,0.0,0.0,0.0,0.0,0.0,0.0,0.0,0.0,0.0,0.0,0.0,0.0,0.0,0.0,0.0,0.0,0.0,0.0,0.0,0.0,0.0,0.0,0.0,0.0,0.0,0.0,0.0,0.0,0.0,0.0,0.0,3.9862,4.2656,4.5044,4.6598,4.6959,4.6577,4.5397,4.385,4.1752,3.8948,3.7007,0.0,0.0,0.0,0.0,0.0,0.0,0.0,0.0,0.0,0.0,0.0,0.0,0.0,0.0,0.0,0.0,0.0,0.0,0.0,0.0,0.0,0.0,0.0,0.0,0.0,0.0,0.0,0.0,0.0,0.0,0.0,0.0,0.0,0.0,0.0,0.0,0.0,0.0,0.0,0.0,0.0,0.0,0.0,0.0,0.0,0.0,0.0,0.0,0.0,0.0,0.0,0.0,0.0,0.0,0.0,0.0,0.0,0.0,0.0,4.096,3.8653,0.0,0.0,0.0,0.0,0.0,0.0,0.0,0.0,0.0,0.0,0.0,0.0,0.0,0.0,0.0,0.0,0.0,0.0,0.0,0.0,0.0,0.0,0.0,0.0,0.0,0.0,0.0,0.0,0.0,0.0,0.0,0.0,0.0,0.0,0.0,0.0,0.0,0.0,0.0,0.0,4.0257,4.2542,4.4467,4.5769,4.6271,4.5998,4.4781,4.3817,4.2207,3.9637,3.8069,0.0,0.0,0.0,0.0,0.0,0.0,0.0,0.0,0.0,0.0,0.0,0.0,0.0,0.0,0.0,0.0,0.0,0.0,0.0,0.0,0.0,0.0,0.0,0.0,0.0,0.0,0.0,0.0,0.0,0.0,0.0,0.0,0.0,0.0,0.0,0.0,0.0,0.0,0.0,0.0,0.0,0.0,0.0,0.0,0.0,0.0,0.0,0.0,0.0,0.0,0.0,0.0,0.0,4.8799,4.9621,5.0286,5.1334,5.2159,5.2531,4.7579,4.5148,4.4529,4.1385,0.0,0.0,0.0,0.0,0.0,0.0,0.0,0.0,0.0,0.0,0.0,0.0,0.0,0.0,0.0,0.0,0.0,0.0,0.0,0.0,0.0,0.0,0.0,0.0,4.3576,4.2876,4.049,0.0,0.0,0.0,0.0,0.0,0.0,0.0,0.0,0.0,0.0,0.0,4.1016,4.2862,4.4308,4.5201,4.5889,4.5731,4.4355,4.4052,4.2919,4.0544,3.9437,3.7778,0.0,0.0,0.0,0.0,0.0,0.0,0.0,0.0,0.0,0.0,0.0,0.0,0.0,0.0,0.0,0.0,0.0,0.0,0.0,0.0,0.0,0.0,0.0,0.0,0.0,0.0,0.0,0.0,0.0,0.0,0.0,0.0,3.834,3.7793,0.0,0.0,0.0,0.0,0.0,0.0,0.0,0.0,0.0,0.0,0.0,0.0,0.0,4.9011,5.0089,5.3256,5.495,5.5128,5.6762,5.7575,5.7725,5.8567,5.9064,5.9243,5.8493,0.0,4.923,4.6675,0.0,0.0,0.0,0.0,0.0,0.0,0.0,0.0,0.0,0.0,0.0,0.0,0.0,0.0,0.0,0.0,0.0,0.0,0.0,0.0,0.0,0.0,4.7838,4.8776,4.8485,4.7957,0.0,4.3723,4.0138,3.9394,3.8552,0.0,0.0,0.0,0.0,0.0,0.0,0.0,4.1234,4.2871,4.427,4.5201,4.5397,4.5359,4.5168,4.4427,4.3184,4.1355,4.0448,3.8827,3.6226,3.5877,0.0,0.0,0.0,0.0,0.0,0.0,0.0,0.0,0.0,0.0,0.0,0.0,0.0,0.0,0.0,0.0,0.0,0.0,0.0,0.0,0.0,0.0,0.0,0.0,0.0,0.0,0.0,0.0,0.0,3.866,4.085,4.061,4.1294,4.1172,0.0,0.0,0.0,0.0,0.0,0.0,0.0,0.0,0.0,5.1317,5.427,5.6276,5.7257,6.0172,6.1694,6.1798,6.3022,6.3596,6.3634,6.452,6.4935,6.4973,6.4622,6.2513,5.8866,5.3376,4.9926,4.7838,0.0,0.0,0.0,0.0,4.5064,4.574,4.7423,4.8654,4.9282,4.8445,0.0,0.0,0.0,0.0,0.0,0.0,0.0,0.0,0.0,0.0,5.2581,5.3458,5.3454,5.3086,5.2654,4.9917,4.6441,0.0,4.1553,4.0764,3.9374,0.0,0.0,0.0,0.0,4.071,4.256,4.3469,4.4296,4.5201,4.5283,4.5283,4.5283,4.4934,4.4197,4.2955,4.1594,4.0148,3.8575,3.7417,3.6439,0.0,0.0,0.0,0.0,0.0,0.0,0.0,0.0,0.0,0.0,0.0,0.0,0.0,0.0,0.0,0.0,0.0,0.0,0.0,0.0,0.0,0.0,0.0,0.0,0.0,0.0,0.0,0.0,4.1094,4.3644,4.4271,4.5046,4.5088,0.0,0.0,0.0,0.0,0.0,0.0,5.1273,5.4084,5.6527,5.8395,6.1328,6.3333,6.4303,6.6607,6.7846,6.795,6.8774,6.9067,6.884,6.955,6.9768,6.955,6.9089,6.8391,6.708,5.9444,5.5297,5.3489,5.1156,4.9664,4.9002,4.9898,5.0462,5.0979,5.246,5.3615,5.424,5.3214,5.2743,5.2121,4.9568,0.0,0.0,0.0,0.0,5.1892,5.3712,5.5535,5.7021,5.7631,5.7839,5.7581,5.6587,5.5141,5.2336,0.0,4.5004,4.392,4.1629,0.0,0.0,0.0,0.0,4.1808,4.3687,4.4144,4.4584,4.5244,4.5283,4.5283,4.5283,4.5283,4.4934,4.4045,4.2606,4.1293,4.0253,3.8651,3.7644,3.7366,0.0,0.0,0.0,0.0,0.0,0.0,0.0,0.0,0.0,0.0,0.0,0.0,0.0,0.0,0.0,0.0,0.0,0.0,0.0,0.0,0.0,0.0,0.0,0.0,0.0,0.0,0.0,0.0,0.0,4.9686,5.0537,0.0,0.0,0.0,0.0,5.2593,5.4385,5.6797,6.0085,6.1929,6.4035,6.6615,6.8367,6.9768,7.0819,7.2529,7.345,7.3525,7.4362,7.4362,7.3563,7.3601,7.323,7.2478,7.253,7.2069,7.0794,6.3834,5.9976,5.8258,5.6406,5.5261,5.4676,5.5436,5.6323,5.727,5.8114,5.9026,5.9543,5.7906,5.5731,5.3691,5.3462,5.2757,0.0,0.0,5.5339,5.6387,5.812,5.9869,6.1216,6.1255,6.1313,6.0905,5.9255,5.8223,5.6109,0.0,4.8538,4.6859,4.5135,0.0,4.345,4.2675,4.3214,4.3764,4.3958,4.4704,4.5244,4.5283,4.5283,4.5283,4.5283,4.5283,4.4934,4.4045,4.3209,4.1987,4.0377,3.9338,3.8418,3.7609,3.7519,0.0,0.0,0.0,0.0,0.0,0.0,0.0,0.0,0.0,0.0,0.0,0.0,0.0,0.0,0.0,0.0,0.0,0.0,0.0,0.0,0.0,0.0,0.0,0.0,0.0,0.0,0.0,0.0,5.4332,5.5719,0.0,5.6053,5.6275,5.6978,5.8339,6.1034,6.3618,6.5918,6.8168,7.0039,7.1493,7.3156,7.4239,7.4713,7.5817,7.6426,7.6548,7.6853,7.6853,7.651,7.5975,7.5565,7.5221,7.4179,7.3539,7.2995,6.945,6.6357,6.3634,6.1818,6.0654,6.0038,6.0844,6.1385,6.1843,6.2681,6.3223,6.3345,6.2155,6.0379,5.8863,5.9322,5.8881,5.8561,6.0342,6.0661,6.0783,6.2002,6.2764,6.3244,6.3244,6.3259,6.3128,6.251,6.0874,5.8803,5.6401,5.3219,5.0415,4.8735,4.7318,4.6293,4.6048,4.5747,4.5786,4.6375,4.6724,4.6691,4.6118,4.608,4.5851,4.5321,4.5283,4.4934,4.4045,4.3247,4.2297,4.1113,4.0225,3.9581,3.9261,3.9208,3.8907,0.0,0.0,0.0,0.0,0.0,0.0,0.0,0.0,0.0,0.0,0.0,0.0,0.0,0.0,0.0,0.0,0.0,0.0,0.0,0.0,0.0,0.0,0.0,0.0,0.0,5.3132,5.772,6.0217,6.1944,6.2905,6.2825,6.3279,6.4048,6.5093,6.8033,7.0419,7.1899,7.4119,7.5721,7.6541,7.7379,7.798,7.836,7.8589,7.877,7.8825,7.8825,7.871,7.8404,7.7831,7.7258,7.6647,7.5539,7.4889,7.4545,7.3446,7.1464,6.8962,6.6891,6.5617,6.4977,6.5503,6.5534,6.5383,6.5993,6.6024,6.575,6.5093,6.397,6.2978,6.3802,6.3634,6.3497,6.4917,6.4925,6.4665,6.5291,6.5459,6.5459,6.5459,6.5459,6.539,6.5145,6.3509,6.1795,6.0675,5.7009,5.3537,5.1888,5.0436,4.9398,4.9131,4.8099,4.7608,4.8181,4.7985,4.7564,4.6991,4.6953,4.6609,4.5774,4.5698,4.5239,4.4083,4.3247,4.2412,4.1538,4.0659,4.022,4.022,4.0453,4.0276,3.9694,0.0,0.0,0.0,0.0,0.0,0.0,0.0,0.0,0.0,0.0,0.0,0.0,0.0,0.0,0.0,0.0,0.0,0.0,0.0,0.0,0.0,0.0,0.0,5.3897,5.8723,6.3751,6.7388,6.9196,7.0544,7.1591,7.1595,7.1965,7.2935,7.5347,7.7167,7.8052,7.9665,8.0964,8.1805,8.1003,8.0964,8.1805,8.0964,8.0544,8.0506,8.0506,8.0095,7.9331,7.9292,7.8375,7.6761,7.6723,7.6274,7.5594,7.5556,7.5051,7.4049,7.1527,7.0037,6.9311,6.9273,6.8738,6.7981,6.7981,6.7477,6.6827,6.6827,6.6254,6.5719,6.6598,6.6819,6.698,6.7782,6.7981,6.7943,6.7943,6.7905,6.7905,6.7905,6.7905,6.7699,6.701,6.6152,6.5071,6.3492,5.9759,5.6295,5.4568,5.3505,5.2658,5.1849,5.0327,0.0,4.9224,4.8493,4.7946,4.7908,4.7908,4.7526,4.6648,4.6571,4.5845,4.4159,4.3324,4.2488,4.1576,4.0802,4.0382,4.042,4.1189,4.1547,4.1531,0.0,0.0,0.0,0.0,0.0,0.0,0.0,0.0,0.0,0.0,0.0,0.0,0.0,0.0,0.0,0.0,0.0,0.0,0.0,0.0,0.0,5.655,6.0565,6.0012,6.5046,6.9851,7.2764,7.4543,7.5713,7.6093,7.6617,7.7103,7.7499,7.9294,8.0478,8.0735,8.1729,8.2426,8.2655,8.2426,8.2149,8.1805,8.1576,8.1117,8.0506,8.0506,8.0391,8.0171,7.956,7.9025,7.8528,7.7258,7.6959,7.7326,7.6752,7.6756,7.6913,7.4214,7.2673,7.1871,7.1268,7.0457,6.9723,6.9723,6.957,6.9379,6.9379,6.9226,6.9188,7.0075,6.9884,6.957,7.0427,6.9777,6.8852,6.8852,6.8363,6.7921,6.8021,6.8036,6.7982,6.7872,6.712,6.6214,6.5116,6.3485,6.1312,5.8394,5.6669,5.5399,5.455,5.3522,0.0,5.2027,5.1687,5.1276,5.0696,5.0006,4.9289,4.8454,4.7799,4.6724,4.5048,4.4748,4.3945,4.2488,4.2221,4.2407,4.2975,4.3209,4.3645,0.0,0.0,0.0,0.0,0.0,0.0,0.0,0.0,0.0,0.0,0.0,0.0,0.0,0.0,0.0,0.0,0.0,0.0,0.0,0.0,0.0,0.0,6.2771,6.7402,6.8733,7.1898,7.5046,7.7636,7.9133,7.9953,8.0049,8.0469,8.0755,8.0859,8.2073,8.2837,8.2837,8.3601,8.4059,8.4059,8.3725,8.3333,8.2837,8.2149,8.1538,8.1041,8.0659,8.0525,8.0532,8.0074,7.968,7.9342,7.83,7.799,7.8186,7.8041,7.8105,0.0,0.0,0.0,0.0,0.0,7.1526,7.1021,7.0638,7.0523,7.0523,7.0523,7.0499,7.062,7.1508,7.1369,7.1068,7.1573,7.1,7.0159,6.9856,6.9405,6.9046,6.9169,6.9191,6.9214,6.9256,6.8618,6.7627,6.6471,6.5595,0.0,6.1441,5.9555,5.8213,5.7715,5.6028,5.4609,5.4104,5.3386,5.2755,5.229,5.1758,5.0975,4.9794,4.9215,0.0,0.0,0.0,4.5283,4.3982,4.3943,0.0,0.0,0.0,4.5408,4.5941,0.0,0.0,0.0,4.5036,4.5008,0.0,0.0,0.0,0.0,0.0,0.0,0.0,0.0,0.0,0.0,0.0,0.0,0.0,0.0,0.0,0.0,6.9218,7.464,7.7998,7.857,7.9476,8.1796,8.2798,8.3267,8.3267,8.3267,8.3267,8.3267,8.3993,8.4441,8.4441,8.5129,0.0,0.0,0.0,8.4423,8.4308,8.2751,8.191,8.1833,8.0964,8.0551,8.0632,8.0632,8.0255,7.965,7.965,7.9229,7.8662,7.936,7.913,7.8218,7.7358,7.6391,7.5271,7.297,7.2088,7.1896,7.0984,0.0,0.0,7.0715,7.0662,7.0746,7.1558,7.1701,7.1598,7.1713,7.1675,7.1431,7.0769,7.0593,7.0616,7.0708,7.0692,7.0714,7.0787,7.0186,6.9163,6.7538,6.6667,6.5628,6.3891,6.2112,6.0891,6.0776,5.8084,5.6045,5.5963,5.4467,5.3425,5.3425,0.0,0.0,5.0927,5.0697,4.9585,4.7141,4.691,4.6527,4.5808,4.5769,4.5808,4.5923,4.6608,4.7026,4.7146,4.7908,4.8642,4.9304,4.6997,4.634,0.0,0.0,0.0,0.0,0.0,0.0,0.0,0.0,0.0,0.0,0.0,0.0,0.0,0.0,0.0,6.9003,7.3946,7.8195,8.1519,8.2626,8.3247,8.3754,8.4518,8.5015,8.5015,8.5015,8.5015,8.5015,8.5167,8.5282,8.5282,8.5435,8.5501,8.5501,8.5446,8.5102,8.4404,8.3454,8.2695,8.2014,8.1162,0.0,8.0767,8.0767,8.066,8.0562,8.0562,8.049,8.0402,8.0556,7.9752,7.8346,7.7368,7.6084,7.458,7.3392,7.2548,7.1896,7.0984,7.0715,7.0715,7.0715,7.0708,7.0838,7.1643,7.1406,0.0,7.1697,7.139,7.0862,7.0723,7.0685,7.0708,7.075,7.0765,7.0787,7.0864,7.0762,7.0147,6.8468,6.8007,6.7391,6.5705,6.3955,6.2553,6.1905,6.0636,5.9515,5.8823,5.7207,5.6142,5.6142,5.4873,5.3612,5.2609,5.1924,5.0741,4.8823,4.8094,4.7673,4.7519,4.7519,4.7826,4.8483,4.8637,4.9074,4.9839,4.9992,5.021,5.037,4.9099,4.8938,0.0,0.0,0.0,0.0,0.0,0.0,0.0,0.0,0.0,0.0,0.0,5.6002,6.0733,0.0,6.8905,7.401,7.8022,8.1232,8.3343,8.4365,8.49,8.49,8.5282,8.5501,8.5501,8.5501,8.5501,8.5501,8.5501,8.5501,8.5501,8.5561,8.559,8.559,8.5695,8.555,8.5091,8.4331,8.3515,8.2671,8.1836,8.124,8.086,8.086,8.0885,8.0965,8.1387,8.1335,8.0991,8.0991,8.0023,7.8438,7.7931,7.6748,7.5088,7.3821,7.3091,7.2553,7.1247,7.0794,7.0794,7.0794,7.0765,7.0851,7.1227,7.1052,7.0792,7.1168,7.1022,7.0723,7.0729,7.0736,7.075,7.0829,7.0843,7.0857,7.0891,7.0898,7.0514,6.9276,6.8699,6.8007,6.6705,6.5436,6.432,6.3474,6.2287,6.1287,6.0864,5.9296,5.8202,5.8202,5.6681,5.5319,5.443,5.2811,5.1319,5.0018,4.9557,4.9365,4.9365,4.9365,4.9557,4.9941,4.9941,5.0374,5.1234,5.1234,5.148,5.1933,5.1421,5.0973,0.0,0.0,0.0,0.0,0.0,0.0,0.0,5.1688,5.4919,5.6837,6.0032,6.3718,6.7698,7.103,7.4439,7.8328,8.1385,8.3572,8.4403,8.5091,8.5425,8.5282,8.5387,8.5501,8.5501,8.5501,8.5501,8.5501,8.5531,8.5541,8.5541,8.5638,8.5704,8.5704,8.5788,8.5843,8.5843,8.5055,8.4305,8.3606,8.277,8.196,8.1181,8.1181,8.1222,8.1362,8.2016,8.2016,8.1554,8.1054,7.99,7.8484,7.833,7.7246,7.5553,7.4046,7.3507,7.3238,7.1514,7.0898,7.0898,7.0898,7.0857,7.0815,7.0815,7.0772,7.0721,7.0721,7.0721,7.0736,7.0794,7.0815,7.0829,7.0885,7.0898,7.0898,7.0898,7.0898,7.0667,6.986,6.9122,6.8314,6.7289,6.6558,6.5827,6.4974,6.3551,6.2595,6.2595,6.1095,5.9935,5.9781,5.8401,5.7016,5.5785,5.3664,5.1967,5.1015,5.0938,5.0861,5.0707,5.0707,5.0784,5.0938,5.0938,5.1356,5.2159,5.2159,5.2505,5.3197,5.3213,5.2482,4.1597,4.3137,4.5338,4.649,4.8653,5.1123,0.0,5.7516,6.1262,6.368,6.7514,7.1259,7.4019,7.6656,7.9331,8.2006,8.3419,8.4441,8.5244,8.5425,8.5244,8.4518,8.5053,8.5501,8.5501,8.5501,8.5501,8.5501,8.5599,8.5695,8.5695,8.5742,8.5797,8.5797,8.5896,8.5987,8.5987,8.5249,8.483,8.4714,8.3838,8.3,8.2154,8.2154,8.2162,8.217,8.2247,8.267,8.3139,8.09,7.9361,7.8446,7.7715,7.6361,7.4738,7.3815,7.3507,7.3238,7.1514,7.0898,7.0898,7.0898,7.0891,7.0885,7.0885,7.0878,7.0878,7.0878,7.0878,7.0878,7.0885,7.0885,7.0885,7.0898,7.0898,7.0898,7.0898,7.0898,7.0667,6.986,6.9629,6.9013,6.7366,6.7019,6.6673,6.5859,6.4936,6.432,6.432,6.2864,6.1518,6.0748,5.9781,5.8242,5.5901,5.478,5.351,5.189,5.1774,5.1471,5.0745,5.0707,5.1053,5.1736,5.1774,5.2197,5.3044,5.3044,5.3082,5.3203,5.3253,5.3171,4.5821,4.774,5.0162,5.2151,5.5327,5.862,6.1225,6.5122,6.882,7.0806,7.3849,7.6579,7.8146,8.0095,8.1776,8.2846,8.4136,8.4958,8.4863,8.4873,8.4395,8.3111,8.3695,8.4375,8.4757,8.5303,8.5609,8.5609,8.5695,8.5751,8.5751,8.5852,8.5905,8.5905,8.5992,8.6073,8.6073,8.5769,8.5354,8.4893,8.4516,8.3901,8.3062,8.311,8.3426,8.3895,8.2893,8.2971,8.351,8.0959,7.9379,7.85,7.7183,7.5911,7.4703,7.385,7.3161,7.2552,7.1321,7.0898,7.0898,7.0898,7.0898,7.0898,7.0898,7.0898,7.0898,7.0898,7.0898,7.0898,7.0898,7.0898,7.0898,7.0898,7.0898,7.0898,7.0898,7.0898,7.0783,7.0475,7.0014,6.9475,6.8744,6.8205,6.759,6.675,6.5897,6.5359,6.5359,6.4282,6.2864,6.1012,6.0473,5.9242,5.667,5.6132,5.5439,5.4203,5.3664,5.328,5.2938,5.2468,5.2367,5.2709,5.2743,5.3181,5.3991,5.3991,5.4275,5.4762,5.4786,5.4818,4.9543,5.22,5.5258,5.7887,6.1758,6.5612,6.8428,7.199,7.5127,7.6579,7.8528,8.0095,8.043,8.1499,8.2388,8.2617,8.3697,8.4385,8.4126,8.3886,8.3234,8.181,8.2241,8.2801,8.3276,8.4365,8.5139,8.5369,8.5452,8.5583,8.5852,8.5949,8.6039,8.6039,8.606,8.6094,8.6094,8.6094,8.5717,8.4925,8.4925,8.438,8.3356,8.3654,8.4189,8.4779,8.3525,8.3068,8.3023,8.0673,7.9205,7.8316,7.6848,7.5612,7.4556,7.3877,7.3041,7.2141,7.1293,7.0998,7.1018,7.1018,7.1018,7.1018,7.1018,7.1005,7.0985,7.0985,7.0972,7.0959,7.0959,7.0959,7.0959,7.0959,7.0959,7.0959,7.0959,7.0959,7.0959,7.0959,7.0497,7.0035,6.9804,6.9226,6.8533,6.7654,6.6807,6.6178,6.5942,6.5128,6.3897,6.205,6.1414,6.031,5.8237,5.7868,5.7301,5.6179,5.5563,5.515,5.4934,5.4121,5.3807,5.4067,5.3871,5.4203,5.5027,5.5027,5.535,5.5956,5.5969,5.6019,5.2126,5.622,6.0704,6.3297,6.7087,7.106,7.4469,7.7229,7.9331,8.0162,8.1079,8.1461,8.0659,8.0544,8.085,8.169,8.1918,8.2289,8.3102,8.2562,8.1781,8.0946,8.086,8.089,8.0899,8.2394,8.3736,8.4579,8.4707,8.5113,8.5958,8.6043,8.6085,8.6085,8.6085,8.6094,8.6094,8.6094,8.5742,8.5013,8.5013,8.4172,8.2662,8.3624,8.4112,8.415,8.4099,8.3147,8.1541,7.9775,7.8579,7.7721,7.6834,7.5439,7.3922,7.3883,7.3314,7.2381,7.1504,7.1236,7.128,7.128,7.128,7.128,7.128,7.1241,7.1195,7.1195,7.1148,7.1093,7.1093,7.1093,7.1093,7.1093,7.1093,7.1093,7.1093,7.1093,7.1093,7.1093,7.1055,7.0829,7.0031,6.9877,6.9568,6.8681,6.7794,6.6936,6.6032,6.5128,6.4589,6.4474,6.3027,6.1714,6.0867,6.0078,5.8919,5.726,5.7144,5.6787,5.5993,5.51,5.5105,5.6001,5.5188,5.5203,5.6056,5.6056,5.6056,5.6094,5.6174,5.6174,5.6599,6.0685,6.4589,6.8241,7.2329,7.6036,7.829,8.0324,8.1509,8.0659,7.9856,7.8672,7.6685,7.6347,7.6649,7.7538,7.9177,8.0634,8.1555,8.1436,8.0786,7.943,7.9276,7.9276,7.9284,8.1255,8.3141,8.4562,8.4763,8.5198,8.6013,8.6077,8.6094,8.6094,8.6151,8.6183,8.6183,8.6293,8.5928,8.514,8.5162,8.4972,8.4526,8.4915,8.5129,8.5087,8.3975,8.2867,8.1653,7.9917,7.8712,7.7736,7.5758,7.4631,7.397,7.28,7.2209,7.1908,7.1475,7.1348,7.1363,7.1363,7.1363,7.1363,7.1363,7.1348,7.1337,7.1337,7.1322,7.1306,7.1306,7.1306,7.1306,7.1306,7.1306,7.1306,7.1306,7.1306,7.1306,7.1306,7.1306,7.1229,7.0924,7.0886,7.0421,6.8945,6.7934,6.6966,6.6071,6.5718,6.5305,6.4773,6.4216,6.3333,6.2017,6.1655,6.102,5.9934,5.9319,5.8863,5.8608,5.7784,5.7517,5.7885,5.7087,5.68,5.7103,5.652,5.626,5.6319,5.6331,5.6358,6.1211,6.5528,6.9502,7.3446,7.6903,7.9673,8.0753,8.1612,8.1554,7.9223,7.692,7.4588,7.2019,7.1333,7.1649,7.3144,7.5592,7.7927,7.9758,8.0029,7.9761,7.9054,7.8677,7.8638,7.8938,8.0691,8.2504,8.4165,8.4407,8.4917,8.6066,8.6143,8.6167,8.6231,8.6285,8.6307,8.632,8.6458,8.6113,8.5339,8.5114,8.5217,8.5617,8.5369,8.5295,8.5245,8.3573,8.2185,8.0974,7.954,7.8413,7.7475,7.5842,7.483,7.4167,7.3038,7.227,7.1764,7.1571,7.1516,7.1528,7.1528,7.1528,7.1528,7.1528,7.1516,7.1503,7.1503,7.1491,7.1478,7.1478,7.1478,7.1478,7.1478,7.1478,7.1478,7.1478,7.1478,7.1478,7.1478,7.1478,7.1478,7.1478,7.1478,7.0896,6.9187,6.8354,6.7513,6.6265,6.6095,6.5917,6.5378,6.5088,6.4473,6.3434,6.2834,6.2277,6.1779,6.0925,6.0466,6.048,5.9688,5.926,5.9343,5.8504,5.8096,5.8121,5.7264,5.6844,5.6899,5.6585,5.6445,6.5948,7.0686,7.528,7.8614,8.0665,8.1877,8.1839,8.1174,7.9523,7.5999,7.2537,6.9352,6.6781,6.5563,6.586,6.8538,7.1273,7.4243,7.7731,7.8385,7.8823,7.9738,7.9092,7.8938,7.9862,8.0669,8.1862,8.3524,8.3678,8.4411,8.6115,8.62,8.6315,8.6514,8.6521,8.6558,8.6609,8.6582,8.6256,8.5612,8.4928,8.5027,8.5804,8.5052,8.4727,8.4613,8.2882,8.1177,7.9541,7.8646,7.7788,7.7008,7.6969,7.5955,7.4511,7.4433,7.3378,7.1887,7.1775,7.1764,7.1822,7.1822,7.1822,7.1822,7.1822,7.1764,7.1701,7.1701,7.1677,7.1608,7.1608,7.1608,7.1608,7.1608,7.1608,7.1608,7.1608,7.1608,7.1608,7.1608,7.1608,7.1608,7.1608,7.1569,7.0989,6.9357,6.9085,6.8373,6.6536,6.6316,6.6321,6.6321,6.5622,6.5161,6.5125,6.3722,6.2785,6.2705,6.1923,6.1507,6.1497,6.0721,6.0314,6.0358,5.9506,5.9086,5.918,5.8283,5.7853,5.7853,5.6955,5.6572,7.0984,7.5132,7.8597,8.0693,8.1598,8.1822,8.12,7.8948,7.5852,7.1812,6.7276,6.3093,5.9913,5.8693,5.9165,6.2382,6.671,7.1056,7.5093,7.7269,7.9061,8.0592,8.0015,8.0054,8.1516,8.1862,8.2708,8.4439,8.4619,8.5113,8.6231,8.6387,8.6453,8.6584,8.6678,8.6727,8.6765,8.6262,8.5981,8.5913,8.5699,8.5723,8.5908,8.5122,8.4785,8.4629,8.231,8.068,7.9624,7.8728,7.7869,7.7011,7.6349,7.5449,7.4435,7.3848,7.2911,7.1974,7.1922,7.1899,7.1874,7.1874,7.1874,7.1874,7.1874,7.1872,7.1865,7.1865,7.1821,7.1816,7.1816,7.1816,7.1816,7.1816,7.1816,7.1816,7.1816,7.1816,7.1816,7.1816,7.1816,7.1816,7.1816,7.1271,7.0493,6.9401,6.8739,6.7881,6.6626,6.645,6.6464,6.653,6.6345,6.5983,6.5372,6.4956,6.4191,6.2929,6.2656,6.2229,6.1614,6.138,6.1274,6.1335,6.0479,6.0057,6.0071,5.9173,5.8781,5.8742,5.7885,5.7458,7.5867,7.9045,8.1413,8.2745,8.227,8.092,7.861,7.4873,7.0513,6.5496,6.0725,5.6615,5.4006,5.3465,5.477,5.896,6.3641,6.8584,7.393,7.6899,7.9292,8.1362,8.1516,8.1823,8.2793,8.3248,8.3895,8.4889,8.5021,8.5443,8.6324,8.6533,8.6681,8.6837,8.688,8.6955,8.7028,8.6643,8.6512,8.6597,8.6597,8.6609,8.6554,8.5356,8.4815,8.4659,8.2095,8.0498,7.9639,7.8742,7.7882,7.7062,7.6555,7.5618,7.4447,7.3978,7.3041,7.1987,7.1987,7.1976,7.1959,7.1959,7.1959,7.1959,7.1959,7.1959,7.1959,7.1959,7.1959,7.1959,7.1959,7.1959,7.1959,7.1959,7.1959,7.1959,7.1959,7.1959,7.1959,7.1959,7.1959,7.1803,7.145,7.0982,7.0203,6.8954,6.8408,6.7729,6.6746,6.6639,6.6631,6.6685,6.6688,6.6507,6.6036,6.5648,6.507,6.4153,6.3727,6.3297,6.279,6.2439,6.2247,6.2255,6.1396,6.0971,6.0978,6.0119,5.9651,5.9651,5.8792,5.8168,8.0163,8.2235,8.3618,8.4137,8.225,7.9099,7.4789,6.9805,6.4385,5.8443,5.3898,5.0479,4.8779,4.9283,5.1531,5.65,6.1012,6.6244,7.293,7.6245,7.9061,8.1939,8.3062,8.3678,8.3925,8.4689,8.5198,8.5287,8.5323,8.5664,8.6488,8.6727,8.6938,8.7121,8.7124,8.7212,8.7312,8.7416,8.7518,8.7577,8.7577,8.7587,8.7523,8.5649,8.479,8.4673,8.2098,8.0576,7.9795,7.882,7.7962,7.7257,7.714,7.6125,7.4642,7.4525,7.351,7.2143,7.2026,7.1987,7.1987,7.1987,7.1987,7.1987,7.1987,7.1987,7.1987,7.1987,7.1987,7.1987,7.1987,7.1987,7.1987,7.1987,7.1987,7.1987,7.1987,7.1987,7.1987,7.1987,7.1987,7.1714,7.0854,7.058,6.9995,6.8355,6.8005,6.7654,6.6913,6.6811,6.6791,6.6791,6.6791,6.6798,6.6814,6.6112,6.5648,6.5584,6.4883,6.4415,6.4298,6.3556,6.3125,6.3008,6.2265,6.1836,6.1719,6.0939,6.0588,6.0549,5.9689,5.887,8.2231,8.3583,8.4165,8.2928,7.9691,7.557,7.0602,6.5,5.9127,5.3231,4.9154,4.6154,4.4496,4.5419,4.7697,5.1399,5.6703,6.2512,6.8622,7.2892,7.7092,8.1747,8.3062,8.4164,8.5621,8.5969,8.6112,8.6246,8.6421,8.6599,8.6733,8.6932,8.7124,8.727,8.7338,8.7358,8.7367,8.809,8.8453,8.8456,8.8456,8.8458,8.8383,8.5922,8.479,8.4673,8.2098,0.0,8.0654,7.9055,7.8313,7.8118,7.7375,7.6477,7.5502,7.4759,7.39,7.2962,7.226,7.1987,7.1987,7.1987,7.1987,7.1987,7.1987,7.1987,7.1987,7.1987,7.1987,7.1987,7.1987,7.1987,7.1987,7.1987,7.1987,7.1987,7.1987,7.1987,7.1987,7.1987,7.1987,7.1714,7.0854,7.0113,6.9294,6.8238,6.7498,6.6952,6.6835,6.6792,6.6788,6.6788,6.6788,6.679,6.6792,6.6675,6.6285,6.5624,6.5468,6.5038,6.4337,6.4142,6.3751,6.3008,6.2852,6.2422,6.1719,6.1563,6.1485,6.1446,6.0588,6.008,8.3515,8.4387,8.4297,8.2144,7.8446,7.363,6.7199,6.1166,5.5088,4.8706,4.5013,4.2709,4.1897,4.3166,4.5706,5.0014,5.4554,5.9896,6.6744,7.1048,7.5341,8.0461,8.2655,8.4279,8.5593,8.6201,8.6571,8.6694,8.6875,8.6932,8.6909,8.7139,8.7289,8.7336,8.7388,8.7393,8.7393,8.8261,8.8461,8.803,8.8461,8.8461,8.7952,8.6275,8.522,8.4712,8.3035,8.1826,8.089,7.96,7.8819,7.8313,7.7453,7.6555,7.5736,7.5346,7.4369,7.3235,7.2806,7.2378,7.1987,7.1987,7.1987,7.1987,7.1987,7.1987,7.1987,7.1987,7.1987,7.1987,7.1987,7.1987,7.1987,7.1987,7.1987,7.1987,7.1987,7.1987,7.1987,7.1987,7.1987,7.1714,7.0854,6.9996,6.9098,6.8239,6.7342,6.6796,6.6796,6.6796,6.6796,6.6796,6.6796,6.6796,6.6796,6.6796,6.664,6.6249,6.6209,6.6055,6.5625,6.5196,6.4571,6.3673,6.3243,6.2579,6.1719,6.1719,6.1719,6.168,6.125,6.0822,8.3589,8.4135,8.3478,8.0939,7.6784,7.1353,6.3698,5.7357,5.1241,4.459,4.1358,3.9704,3.9704,4.1243,4.4013,4.8591,5.2323,5.717,6.4442,6.8617,7.2899,7.8192,8.1371,8.3534,8.4669,8.581,8.6542,8.6648,8.695,8.7149,8.7082,8.7284,8.7388,8.7406,8.7406,8.7406,8.7406,8.8461,8.854,8.7679,8.8579,8.854,8.764,8.6588,8.5729,8.5024,8.3972,8.2762,8.1436,8.0224,7.9287,7.8586,7.7492,7.6672,7.6049,7.5853,7.4954,7.3782,7.343,7.2845,7.226,7.2065,7.1987,7.1987,7.1987,7.1987,7.1987,7.1987,7.1987,7.1987,7.1987,7.1987,7.1987,7.1987,7.1987,7.1987,7.1987,7.1987,7.1987,7.1987,7.1987,7.1714,7.0854,7.0113,6.9333,6.8279,6.7537,6.6992,6.6835,6.6952,6.707,6.707,6.707,6.7148,6.7343,6.7187,6.707,6.707,6.6913,6.6796,6.6796,6.617,6.5468,6.461,6.3712,6.2852,6.1992,6.1797,6.1719,6.1719,6.1719,6.1328,8.1516,8.1944,8.0823,7.8292,7.3283,6.6968,5.9308,5.2967,4.7009,4.0973,3.8315,3.7042,3.7042,3.9084,4.1666,4.4436,4.8437,5.3285,5.9358,6.388,6.8763,7.4649,7.8438,8.1225,8.297,8.4728,8.5832,8.5883,8.6799,8.7365,8.7362,8.7373,8.7388,8.7406,8.7406,8.7406,8.7406,8.9047,8.9437,8.8579,8.9477,8.9437,8.8501,8.6861,8.6041,8.5885,8.4206,8.3426,0.0,8.0693,7.9639,7.9405,7.7765,7.7062,7.6867,7.6088,7.5697,7.5346,7.3821,7.3235,7.304,7.226,7.1987,7.1987,7.1987,7.1987,7.1987,7.1987,7.1987,7.1987,7.1987,7.1987,7.1987,7.1987,7.1987,7.1987,7.1987,7.1987,7.1987,7.1987,7.1987,7.1714,7.0854,7.0619,7.0034,6.8355,6.8043,6.7693,6.6913,6.7498,6.7966,6.7966,6.7966,6.8318,6.91,6.8435,6.7966,6.7966,6.7224,6.6796,6.6796,6.6718,6.6328,6.5507,6.461,6.3751,6.2891,6.2109,6.1719,6.1719,6.1719,6.1641,7.8162,7.9031,7.8323,7.6245,7.1629,6.5628,5.7973,5.201,4.6432,4.0512,3.7892,3.6696,3.6696,3.8392,4.0627,4.3162,4.6701,5.101,5.6434,6.0993,6.5804,7.1302,7.5607,7.9054,8.1364,8.3727,8.5569,8.6688,8.7174,8.7161,8.6655,8.6616,8.6384,8.5844,8.5844,8.6078,8.6627,8.7837,8.8266,8.7913,8.8813,8.8774,8.7874,8.7211,8.6588,8.6041,8.4792,8.3972,0.0,8.1317,8.0185,7.96,7.835,7.757,7.7062,7.6711,7.6244,7.5619,7.4447,7.3703,7.3157,7.226,7.1987,7.1987,7.1987,7.1987,7.1987,7.1987,7.1987,7.1987,7.1987,7.1987,7.1987,7.1987,7.1987,7.1987,7.1987,7.1987,7.1987,7.1987,7.1987,7.187,7.1558,7.105,7.0463,6.9761,6.9215,6.8747,6.8397,6.8669,6.9098,6.9605,6.9215,6.902,6.9373,6.9098,6.8669,6.8121,6.7771,6.7342,6.6835,6.6796,6.6406,6.5624,6.5273,6.4648,6.379,6.3438,6.3243,6.3243,6.3243,6.2969,7.3716,7.5053,7.463,7.2899,6.8629,6.2974,5.5862,5.0279,4.5163,3.9973,3.7546,3.6346,3.6346,3.7738,3.9665,4.1974,4.5163,4.8976,5.3569,5.8229,6.2917,6.7595,7.2621,7.6692,7.9332,8.2722,8.5354,8.6917,8.7008,8.6625,8.5768,8.5456,8.5182,8.479,8.479,8.522,8.608,8.6976,8.7406,8.7406,8.8266,8.8227,8.7406,8.7406,8.6937,8.6041,8.5181,8.4323,0.0,8.1709,8.0498,7.96,7.8742,7.7882,7.7101,7.7101,7.6711,7.601,7.4876,7.4134,7.3469,7.2378,7.1987,7.1987,7.1987,7.1987,7.1987,7.1987,7.1987,7.1987,7.1987,7.1987,7.1987,7.1987,7.1987,7.1987,7.1987,7.1987,7.1987,7.1987,7.1987,7.1987,7.1987,7.148,7.101,7.0737,7.0191,6.9684,6.9412,6.9645,7.0035,7.0619,7.0387,7.0154,7.0154,6.9918,6.9411,6.8552,6.8239,6.7693,6.6835,6.6796,6.6523,6.5975,6.5702,6.5312,6.4688,6.4415,6.4298,6.4298,6.4298,6.3985,6.8147,6.9783,6.936,6.7596,6.3358,5.8011,5.2092,4.6821,4.2162,3.8738,3.6696,3.55,3.55,3.6888,3.8584,4.0246,4.3401,4.6839,5.0268,5.5238,5.9846,6.343,6.9274,7.4094,7.6765,8.176,8.5161,8.6039,8.6119,8.5729,8.4868,8.4011,8.3933,8.4751,8.479,8.522,8.608,8.6976,8.7406,8.7406,8.8266,8.8227,8.7406,8.7406,8.6937,8.6041,8.5181,8.4323,0.0,8.1709,8.0498,7.96,7.8742,7.7882,7.7101,7.7101,7.7101,7.6828,7.511,7.4486,7.4212,7.2534,7.1987,7.1987,7.1987,7.1987,7.1987,7.1987,7.1987,7.1987,7.1987,7.1987,7.1987,7.1987,7.1987,7.1987,7.1987,7.1987,7.1987,7.1987,7.1987,7.1987,7.1987,7.1987,7.1675,7.0815,7.0698,7.0387,6.9528,7.0152,7.0698,7.0698,7.1441,7.1987,7.1987,7.1167,7.0309,6.9451,6.8591,6.7693,6.6835,6.6796,6.6796,6.6796,6.6014,6.5585,6.5585,6.4727,6.4298,6.4298,6.4298,6.4298,5.9681,6.1467,6.1781,6.1204,5.8127,5.3933,4.9202,4.5043,4.1235,3.7811,3.6231,3.55,3.55,3.6888,3.8546,4.0246,4.3426,4.6853,5.0288,5.4813,5.9053,6.2556,7.0057,7.6164,7.9409,8.2277,8.4278,8.5142,8.522,8.4831,8.3972,8.366,8.3386,8.3112,8.3073,8.3775,8.5181,8.5493,8.5922,8.651,8.6783,8.6471,8.561,8.561,8.5454,8.5143,8.4284,8.3738,8.3426,8.2332,8.1005,7.9678,7.9405,7.839,7.7023,7.6438,7.6205,7.5971,7.4251,7.3664,7.3508,7.2378,7.1987,7.1987,7.1987,7.1987,7.1987,7.1987,7.1987,7.1987,7.1987,7.1987,7.1987,7.1987,7.1987,7.1987,7.1987,7.1987,7.1987,7.1987,7.1987,7.1987,7.1987,7.1987,7.1909,7.1636,7.1597,7.148,7.1206,7.1402,7.1597,7.1597,7.1831,7.1991,7.2,7.1767,7.1223,7.0333,6.9474,6.8615,6.7716,6.717,6.6857,6.6857,6.6622,6.6505,6.6505,6.6193,6.6034,6.5987,6.5432,6.5194,5.2033,5.4044,5.4467,5.4467,5.2125,4.9009,4.5735,4.2581,3.9658,3.7196,3.6308,3.5846,3.5577,3.7157,3.8938,4.0308,4.3717,4.7171,5.0004,5.4741,5.9853,6.5013,7.1629,7.7034,8.0184,8.2332,8.3738,8.4284,8.4323,8.4089,8.3543,8.3191,8.2801,8.2331,8.2292,8.2955,8.4284,8.4323,8.4753,8.5612,8.5612,8.5338,8.479,8.4478,8.4127,8.3814,8.2957,8.2371,0.0,8.1513,8.0498,7.9209,7.9209,7.835,7.6984,7.6127,7.5814,7.5541,7.3861,7.3313,7.3157,7.226,7.1987,7.1987,7.1987,7.1987,7.1987,7.1987,7.1987,7.1987,7.1987,7.1987,7.1987,7.1987,7.1987,7.1987,7.1987,7.1987,7.1987,7.1987,7.1987,7.1987,7.1987,7.1987,7.1987,7.1987,7.1987,7.1987,7.1987,7.1987,7.1987,7.1987,7.1987,7.1994,7.2005,7.2006,7.1619,7.0767,6.9871,6.9013,6.8154,6.7333,6.6903,6.6903,6.6903,6.6903,6.6903,6.6903,6.6862,6.6817,6.6304,6.6106,0.0,4.7274,4.7505,4.7543,4.574,4.3508,4.1812,3.9619,0.0,3.6696,3.6619,3.6462,3.5731,3.7623,3.9611,4.0545,4.4182,4.7586,4.9519,5.5174,6.1959,6.9672,7.3637,7.6773,7.9442,8.1903,8.3347,8.3426,8.3347,8.3347,8.3426,8.2645,8.2253,8.2292,8.2292,8.2684,8.3504,8.3504,8.3894,8.4712,8.4634,8.4595,8.4517,8.3621,8.2801,8.2058,8.1278,8.0459,7.9717,7.9717,7.917,7.8391,7.8391,7.7882,7.6984,7.6127,7.5775,7.5463,7.386,7.3274,7.3079,7.226,7.1987,7.1987,7.1987,7.1987,7.1987,7.1987,7.1987,7.1987,7.1987,7.1987,7.1987,7.1987,7.1987,7.1987,7.1987,7.1989,7.1989,7.1989,7.199,7.199,7.199,7.1989,7.1989,7.1987,7.1989,7.1989,7.1989,7.199,7.1991,7.1991,7.1991,7.1995,7.2006,7.2007,7.1657,7.0838,6.9987,6.9092,6.8233,6.7413,6.6943,6.6904,6.6904,6.6904,6.6904,6.6904,6.6904,6.6904,6.6903,6.6903,3.6587,0.0,4.1512,4.2128,4.1358,4.0012,0.0,3.7427,3.658,3.5087,3.5815,3.6657,3.6462,3.7991,3.9809,4.1349,4.4175,4.7253,5.0428,5.7237,6.4099,6.9965,7.3135,7.6108,7.9364,8.0849,8.1864,8.2528,8.1942,8.1864,8.2567,8.1786,8.1591,8.2292,8.2292,8.2684,8.3504,8.3504,8.3582,8.3816,8.3191,8.2528,8.1864,8.1005,8.0498,8.0302,8.0107,7.9873,7.9717,7.9717,7.917,7.8391,7.8391,7.7882,7.6984,7.6127,7.5385,7.4642,7.3664,7.2845,7.226,7.2065,7.1987,7.1987,7.1987,7.1987,7.1987,7.1987,7.1987,7.1987,7.1987,7.1987,7.1987,7.1987,7.1987,7.1987,7.1987,7.1996,7.2002,7.2002,7.2008,7.2011,7.2003,7.2002,7.1999,7.199,7.1996,7.2002,7.2002,7.2009,7.2014,7.2014,7.2014,7.2015,7.2016,7.2016,7.1902,7.1713,7.0896,7.0038,6.9218,6.8359,6.7577,6.6913,6.6913,6.6913,6.6913,6.6911,6.691,6.691,6.6906,6.6903,3.3163,3.5241,3.7165,3.8007,3.7892,3.7315,3.635,3.6154,3.5888,3.4968,3.6122,3.7165,3.6801,3.8817,4.0924,4.2318,4.5458,4.9653,5.5251,6.0678,6.5743,7.0177,7.2951,7.557,7.8232,7.9287,8.0343,8.1591,8.1278,8.1396,8.2253,8.1474,8.12,8.1708,8.1317,8.1513,8.2332,8.2332,8.2137,8.1747,8.1317,8.0849,8.0381,7.9483,7.9092,7.9092,7.8663,7.8507,7.8507,7.8507,7.8233,7.7804,7.7804,7.7531,7.6984,7.6127,7.5268,7.4369,7.3586,7.2729,7.1987,7.1987,7.1987,7.1989,7.1995,7.1996,7.1995,7.199,7.1993,7.1996,7.1996,7.2001,7.2004,7.2004,7.2004,7.2004,7.2004,7.2009,7.2013,7.2013,7.2016,7.2018,7.2014,7.2325,7.2597,7.2592,7.2948,7.3185,7.3185,7.2837,7.2605,7.2605,7.2254,7.2019,7.2019,7.1984,7.1987,7.1989,7.1171,7.0508,7.0078,6.8867,6.7773,6.6914,6.6914,6.6914,6.6914,6.6914,6.6913,6.6913,6.6912,6.6911,3.2429,3.3548,3.4433,3.5427,3.5769,3.5846,3.5692,3.5808,3.5846,3.5692,3.7007,3.8029,3.7497,3.9966,4.2557,4.3889,4.8032,5.3594,6.0681,6.4007,6.6939,7.0306,7.2846,7.5032,7.6906,7.7765,7.8938,8.0655,8.0694,8.0966,8.1862,8.1083,8.0655,8.081,8.0107,7.999,8.0616,8.0733,8.042,7.9717,7.9444,7.9287,7.9287,7.8272,7.7884,7.7962,7.7218,0.0,7.7101,7.7101,7.7101,7.7101,7.7101,7.7101,7.6984,7.6127,7.5268,7.4369,7.343,7.2613,7.1991,7.1991,7.1993,7.1996,7.2005,7.2008,7.2006,7.1996,7.2001,7.2008,7.2008,7.2014,7.2019,7.2019,7.2019,7.2019,7.2019,7.1981,7.1982,7.1982,7.1983,7.2022,7.2178,7.2803,7.3349,7.3465,7.413,7.46,7.46,7.3858,7.3312,7.3312,7.253,7.1984,7.1984,7.1988,7.199,7.199,7.1328,7.0781,7.0547,6.9023,6.7773,6.6914,6.6914,6.6953,6.7109,6.7109,6.7109,6.7109,6.7109,6.7031,3.2429,3.3548,3.4587,3.6119,3.7081,3.7427,3.6696,3.7081,3.743,3.6657,3.7875,3.9301,3.9893,4.1693,4.4128,4.7276,5.2738,5.7791,6.1233,6.4523,6.7614,7.0385,7.2337,7.4445,7.6867,7.7218,7.8038,7.9756,7.9209,7.917,8.0068,7.9287,7.9133,7.9873,7.9756,7.9405,7.8781,7.9522,7.9834,7.9678,7.8194,7.7492,7.7453,7.5813,7.5502,7.6205,0.0,7.6438,7.7101,7.7101,7.7101,7.7101,7.7101,7.7101,7.6984,7.6127,7.5268,7.429,7.2729,7.2112,7.2003,7.2003,7.2009,7.2016,7.2017,7.2018,7.2017,7.2016,7.2016,7.2018,7.2018,7.2019,7.2019,7.2019,7.2019,7.2019,7.2019,7.1985,7.1989,7.1989,7.1991,7.2226,7.2966,7.3199,7.355,7.4286,7.4525,7.4606,7.4606,7.3827,7.3281,7.3281,7.2539,7.1992,7.1992,7.1992,7.1992,7.1992,7.1875,7.1172,6.9726,6.8711,6.7773,6.6914,6.6914,6.7265,6.8008,6.8008,6.8008,6.8008,6.8008,6.7617,3.2429,3.3548,3.4702,3.6853,3.77,3.8007,3.8084,3.8392,3.8703,3.8738,3.9772,4.0983,4.1892,4.393,4.7084,5.2054,5.6446,6.0261,6.3351,6.5934,6.8474,7.1089,7.2532,7.4133,7.6203,7.64,7.7101,7.8858,7.8625,7.8781,7.9639,7.8858,7.8352,7.8311,7.7843,7.7179,7.6281,7.6672,7.714,7.757,7.6281,7.5696,7.5657,7.4876,7.472,7.5112,0.0,7.558,7.64,7.64,7.6672,7.7101,7.7101,7.7101,7.6945,7.5579,7.4569,7.3678,7.2428,7.2005,7.2014,7.2014,7.2016,7.1981,7.1985,7.1986,7.1987,7.1989,7.1988,7.1986,7.1986,7.1988,7.199,7.199,7.199,7.199,7.199,7.1991,7.1991,7.1991,7.1992,7.2265,7.3163,7.3671,7.4296,7.5154,7.5702,7.6015,7.6015,7.5234,7.4531,7.4062,7.3203,7.25,7.2031,7.1992,7.1992,7.1992,7.1992,7.125,6.957,6.9062,6.8242,6.6914,6.7344,6.7812,6.8203,6.8633,6.8867,6.8906,6.8437,6.8008,3.2429,3.3548,3.4818,3.7353,3.8315,3.8857,3.9935,4.0473,4.1016,4.1836,4.2572,4.338,4.4357,4.7051,5.0909,5.6241,5.947,6.2374,6.5466,6.7342,6.9215,7.1441,7.2456,7.3588,7.5073,7.5229,7.5853,7.7376,7.7493,7.7765,7.8468,7.7843,7.7179,7.6516,7.5853,7.519,7.4525,7.433,7.4642,7.5502,7.4642,7.4212,7.4212,7.4017,7.4017,7.4212,7.4212,7.4837,7.5814,7.5814,7.6322,7.7101,7.7106,7.6874,7.633,7.4807,7.3682,7.2909,7.2244,7.2016,7.1983,7.1983,7.1984,7.1986,7.199,7.199,7.1991,7.1992,7.1992,7.199,7.199,7.1992,7.1992,7.1992,7.1992,7.1992,7.1992,7.1992,7.1992,7.1992,7.1992,7.2344,7.3437,7.414,7.4961,7.6055,7.6758,7.7187,7.7187,7.6445,7.5586,7.4687,7.3828,7.2969,7.207,7.1992,7.1992,7.1992,7.1992,7.1328,6.9844,6.9726,6.8984,6.75,6.8125,6.8594,6.8789,6.9414,6.9726,6.9765,6.9101,6.8672,3.2429,3.3548,3.4818,3.7353,3.9165,4.0743,4.2431,4.4013,4.5377,4.6266,4.6533,4.6935,4.794,5.168,5.5567,5.8437,6.1783,6.4648,6.6445,6.8202,6.9684,7.0698,7.1558,7.2456,7.3391,7.3469,7.3821,7.472,7.4798,7.4798,7.4876,7.4798,7.4759,7.4681,7.4642,7.4564,7.4486,7.3743,7.3782,7.4564,7.3782,7.3391,7.3352,7.2534,7.2612,7.3391,7.3391,7.429,7.5814,7.5814,7.6322,7.7103,7.7116,7.6151,7.4674,7.3736,7.2838,7.2097,7.2019,7.1985,7.1989,7.1989,7.1991,7.1992,7.1992,7.1992,7.1992,7.1992,7.1992,7.1992,7.1992,7.1992,7.1992,7.1992,7.1992,7.1992,7.1992,7.1992,7.1992,7.1992,7.1992,7.2539,7.4219,7.457,7.5156,7.6836,7.7148,7.7187,7.7187,7.6445,7.5586,7.4687,7.3828,7.2969,7.207,7.1992,7.1992,7.1992,7.1992,7.1562,7.0664,7.0625,7.0156,6.9258,6.9297,6.9726,7.0508,7.0586,7.0625,7.0625,7.0547,7.0078,3.2429,3.3548,3.4933,3.8049,4.0473,4.2551,4.4282,4.5936,4.7887,5.0408,5.0567,5.0564,5.16,5.4541,5.7652,6.0235,6.2721,6.5274,6.8046,6.8983,7.0113,7.2064,7.261,7.3119,7.3978,7.4056,7.4173,7.4486,7.4486,7.4529,7.4576,7.4576,7.4306,7.3767,7.3767,7.3493,7.2947,7.2634,7.2634,7.2947,7.2627,7.2506,7.2468,7.2163,7.2166,7.2478,7.2478,7.3142,7.4236,7.4236,7.4744,7.5564,7.5568,7.4829,7.3739,7.3426,7.2765,7.1987,7.1987,7.199,7.1992,7.1992,7.1992,7.1992,7.1992,7.1992,7.1992,7.1992,7.1992,7.1992,7.1992,7.1992,7.1992,7.1992,7.1992,7.1992,7.1992,7.1992,7.1992,7.1992,7.1992,7.2383,7.3594,7.4258,7.5,7.6211,7.6836,7.7187,7.7187,7.6914,7.6367,7.5508,7.414,7.3164,7.2851,7.2305,7.1992,7.1992,7.1992,7.1601,7.0742,7.0703,7.0273,6.9414,6.9922,7.0351,7.0703,7.125,7.1523,7.1484,7.0937,7.0508,3.2429,3.3548,3.5013,3.8434,4.1204,4.3816,4.659,4.872,5.1077,5.436,5.4652,5.4456,5.4959,5.6765,5.9032,6.1609,6.3542,6.582,6.8943,6.9645,7.0582,7.2649,7.2884,7.3119,7.3666,7.3705,7.3705,7.3705,7.3709,7.3715,7.3763,7.3766,7.3497,7.2918,7.2879,7.2605,7.2019,7.2019,7.2019,7.2019,7.2017,7.2014,7.2011,7.2017,7.2019,7.2019,7.2019,7.2488,7.3308,7.3308,7.3818,7.4562,7.4289,7.3821,7.3276,7.3002,7.2497,7.1991,7.1991,7.1992,7.1992,7.1992,7.1992,7.1992,7.1992,7.1992,7.1992,7.1992,7.1992,7.1992,7.1992,7.1992,7.1992,7.1992,7.1992,7.1992,7.1992,7.1992,7.1992,7.1992,7.1992,7.2265,7.3164,7.3789,7.457,7.5742,7.6406,7.6875,7.7148,7.7187,7.6875,7.5976,7.4336,7.3281,7.3281,7.25,7.1992,7.1992,7.1992,7.1719,7.1133,7.1094,7.082,7.0234,7.082,7.1094,7.1094,7.1719,7.1992,7.1992,7.1406,7.1094,3.2429,3.3548,3.5049,3.8473,4.1243,4.447,4.9591,5.2762,5.534,5.7993,5.8753,5.8698,5.7905,5.851,5.9985,6.2599,6.4484,6.6483,6.9061,7.0152,7.101,7.1909,7.1987,7.1987,7.1987,7.1987,7.1989,7.1989,7.2,7.2006,7.2006,7.2016,7.198,7.198,7.198,7.198,7.198,7.198,7.198,7.198,7.1987,7.1987,7.198,7.198,7.198,7.198,7.198,7.2488,7.3309,7.3309,7.3781,7.4489,7.3629,7.328,7.3164,7.2305,7.1992,7.1992,7.1992,7.1992,7.1992,7.1992,7.1992,7.1992,7.1992,7.1992,7.1992,7.1992,7.1992,7.1992,7.1992,7.1992,7.1992,7.1992,7.1992,7.1992,7.1992,7.1992,7.1992,7.1992,7.1992,7.2265,7.3125,7.3281,7.3906,7.5625,7.5898,7.6211,7.707,7.7187,7.6875,7.6015,7.4336,7.332,7.332,7.25,7.1992,7.1992,7.1992,7.1992,7.1992,7.1992,7.1992,7.1992,7.1992,7.1992,7.1992,7.1992,7.1992,7.1992,7.1992,7.1992,3.2429,3.4391,3.6773,4.0196,4.3855,4.7788,5.2334,5.4473,5.6646,6.0569,6.2007,6.2109,6.0719,6.1218,6.2482,6.4434,6.5694,6.7342,6.9957,7.0541,7.101,7.1909,7.1987,7.1987,7.1987,7.1996,7.2001,7.2001,7.2011,7.2019,7.1985,7.1987,7.1989,7.1991,7.1991,7.1991,7.1991,7.1991,7.1991,7.1991,7.1992,7.1991,7.1988,7.199,7.1991,7.1991,7.1991,7.2147,7.2382,7.2382,7.2538,7.2734,7.25,7.2383,7.2344,7.2109,7.1992,7.1992,7.1992,7.1992,7.1992,7.1992,7.1992,7.1992,7.1992,7.1992,7.1992,7.1992,7.1992,7.1992,7.1992,7.1992,7.1992,7.1992,7.1992,7.1992,7.1992,7.1992,7.1992,7.1992,7.1992,7.207,7.2344,7.289,7.3476,7.3984,7.4609,7.5312,7.6172,7.6836,7.7109,7.6836,7.5234,7.4219,7.4219,7.2851,7.1992,7.1992,7.1992,7.1992,7.1992,7.1992,7.1992,7.1992,7.1992,7.1992,7.1992,7.1992,7.1992,7.1992,7.1992,7.1992,3.3465,3.5773,3.8546,4.197,4.5757,5.0085,5.5473,5.7924,5.9925,6.3032,6.4185,6.4209,6.2889,6.3105,6.4052,6.573,6.6752,6.8122,7.0385,7.101,7.1402,7.1948,7.1987,7.199,7.1995,7.2002,7.2007,7.2011,7.1981,7.1869,7.1481,7.1483,7.1328,7.0976,7.0976,7.0976,7.1015,7.0976,7.0976,7.0976,7.0976,7.1015,7.1015,7.1328,7.1328,7.1015,7.0976,7.0976,7.1015,7.1015,7.1211,7.1484,7.1484,7.1719,7.1992,7.1992,7.1992,7.1992,7.1992,7.1992,7.1953,7.1601,7.1484,7.1484,7.1484,7.1484,7.1562,7.1914,7.1992,7.1992,7.1992,7.1992,7.1992,7.1992,7.1992,7.1992,7.1992,7.1992,7.1992,7.1992,7.1992,7.1992,7.1992,7.2422,7.289,7.3242,7.4023,7.4805,7.5312,7.5859,7.6172,7.6172,7.4922,7.4062,7.4062,7.2812,7.1992,7.1992,7.1992,7.1992,7.1992,7.1992,7.1992,7.1992,7.1992,7.1992,7.1992,7.1992,7.1992,7.1992,7.1992,7.1992,3.5038,3.7392,4.0204,4.359,4.7336,5.1932,5.8626,6.2001,6.4031,6.5205,6.5472,6.5287,6.4584,6.4484,6.504,6.6679,6.7654,6.8785,7.0463,7.1441,7.1987,7.187,7.1871,7.1838,7.1771,7.1773,7.1778,7.1747,7.1753,7.1443,7.0623,7.0586,7.0234,6.9414,6.9414,6.9453,6.9492,6.9414,6.9414,6.9414,6.9453,6.9453,6.9414,7.0195,7.0195,6.9492,6.9414,6.9414,6.9492,6.9492,6.9922,7.0586,7.0586,7.1094,7.1875,7.1875,7.1914,7.1992,7.1992,7.1953,7.1758,7.0976,7.0664,7.0586,7.0586,7.0586,7.0781,7.164,7.1875,7.1914,7.1992,7.1992,7.1992,7.1992,7.1992,7.1992,7.1992,7.1992,7.1992,7.1992,7.1992,7.1992,7.1992,7.1992,7.2265,7.3047,7.3906,7.4492,7.4492,7.4531,7.4609,7.4609,7.3828,7.3281,7.3281,7.25,7.1992,7.1992,7.1992,7.1992,7.1992,7.1992,7.1992,7.1992,7.1992,7.1992,7.1992,7.1992,7.1992,7.1992,7.1992,7.1953,3.5038,3.7815,4.1054,4.4474,5.0508,5.6596,6.025,6.2076,6.3648,6.594,6.6459,6.6457,6.6281,6.6247,6.6601,6.7654,6.8552,6.9489,7.0541,7.1441,7.1753,7.105,7.0981,7.0715,7.0015,6.9949,6.9956,6.9957,6.9999,6.9961,6.9765,6.9726,6.9609,6.9492,6.9492,6.9453,6.9414,6.9414,6.9414,6.9414,6.9414,6.9101,6.8515,6.9297,6.9609,6.9492,6.9414,6.9414,6.9414,6.9414,6.9531,6.9765,6.9687,7.0195,7.0976,7.0976,7.1406,7.1992,7.1992,7.1562,7.0937,7.0742,7.0234,6.9687,6.9726,6.9765,6.9922,7.0742,7.0976,7.1133,7.1836,7.1992,7.1992,7.1992,7.1992,7.1992,7.1992,7.1992,7.1992,7.1992,7.1992,7.1992,7.1992,7.1992,7.207,7.2265,7.3008,7.3594,7.3594,7.418,7.4609,7.4609,7.3828,7.3281,7.3281,7.25,7.1992,7.1992,7.1992,7.1992,7.1992,7.1992,7.1992,7.1992,7.1992,7.1992,7.1992,7.1992,7.1992,7.1992,7.1992,7.164,3.5619,3.8542,4.2336,4.7456,5.3052,5.7971,6.0307,6.1884,6.3349,6.5137,6.5861,6.6191,6.6207,6.6249,6.6366,6.6834,6.7615,6.8474,6.9331,7.0191,7.0582,7.0113,7.0085,6.99,6.9436,6.9407,6.9412,6.9413,6.9414,6.9297,6.8906,6.8828,6.8633,6.8281,6.8242,6.8242,6.8203,6.8203,6.8203,6.8203,6.8203,6.7969,6.7578,6.8008,6.8203,6.8242,6.8203,6.8203,6.8203,6.8203,6.8476,6.8867,6.8828,6.9336,7.0078,7.0117,7.039,7.0781,7.0781,7.0469,7.0,6.9648,6.9219,6.8828,6.8867,6.8867,6.914,7.0351,7.0703,7.0898,7.1758,7.1992,7.1992,7.1992,7.1992,7.1992,7.1992,7.1992,7.1992,7.1992,7.1992,7.1992,7.1992,7.1992,7.1992,7.1992,7.2383,7.2695,7.2695,7.3086,7.3359,7.3359,7.2969,7.2695,7.2695,7.2265,7.1992,7.1992,7.1992,7.1992,7.1992,7.1992,7.1992,7.1992,7.1992,7.1992,7.1992,7.1992,7.1992,7.1992,7.1992,7.1523,3.6042,3.9311,4.3777,5.0284,5.4448,5.7451,5.9332,6.1149,6.2733,6.3572,6.459,6.5297,6.5387,6.539,6.539,6.539,6.6053,6.6873,6.7732,6.863,6.9176,6.9176,6.919,6.9122,6.8973,6.898,6.8983,6.8984,6.8828,6.8437,6.7773,6.7617,6.7187,6.6484,6.6445,6.6445,6.6445,6.6445,6.6445,6.6445,6.6445,6.6445,6.6445,6.6445,6.6601,6.6914,6.6914,6.6914,6.6914,6.6914,6.7305,6.7969,6.7969,6.8476,6.9219,6.9258,6.9375,6.9492,6.9453,6.9336,6.9062,6.8437,6.8086,6.7969,6.7969,6.7969,6.8281,6.9844,7.0351,7.0664,7.1562,7.1875,7.1992,7.1992,7.1992,7.1992,7.1992,7.1992,7.1992,7.1992,7.1992,7.1992,7.1992,7.1992,7.1992,7.1992,7.1992,7.1992,7.1992,7.1992,7.1992,7.1992,7.1992,7.1992,7.1992,7.1992,7.1992,7.1992,7.1992,7.1992,7.1992,7.1992,7.1992,7.1992,7.1992,7.1992,7.1992,7.1992,7.1992,7.1992,7.1992,7.1445,3.5192,3.9735,4.5128,4.9872,5.3135,5.5634,5.7533,5.9371,6.0983,6.1868,6.3318,6.4452,6.4454,6.4454,6.4454,6.4454,6.5194,6.6053,6.6874,6.7732,6.8279,6.8279,6.8259,6.7996,6.7294,6.7224,6.7226,6.7226,6.6523,6.6055,6.5937,6.5234,6.4765,6.4648,6.4648,6.4648,6.4648,6.4648,6.4648,6.4648,6.4648,6.4648,6.4648,6.4648,6.5469,6.6914,6.6914,6.6914,6.6914,6.6914,6.6953,6.707,6.707,6.7617,6.8359,6.8359,6.8867,6.9492,6.9492,6.8984,6.8359,6.8242,6.7695,6.707,6.707,6.707,6.7265,6.8242,6.9023,6.9765,7.0664,7.1445,7.1992,7.1992,7.1992,7.1992,7.1992,7.1992,7.1992,7.1992,7.1992,7.1992,7.1992,7.1992,7.1992,7.1992,7.1992,7.1992,7.1992,7.1992,7.1992,7.1992,7.1992,7.1992,7.1992,7.1992,7.1992,7.1992,7.1992,7.1992,7.1992,7.1992,7.1992,7.1992,7.1992,7.1992,7.1992,7.1992,7.1992,7.1992,7.1992,7.1133,3.6042,3.985,4.3854,4.7782,5.0734,5.3272,5.5675,5.7621,5.9188,6.0074,6.086,6.1837,6.3283,6.3556,6.3399,6.293,6.3163,6.3554,6.3906,6.4687,6.5234,6.5234,6.6113,6.6552,6.6201,6.617,6.6172,6.6172,6.5351,6.4883,6.4883,6.4492,6.4297,6.4297,6.4297,6.4297,6.4297,6.4297,6.4297,6.4297,6.4297,6.4297,6.4297,6.4297,6.4961,6.6172,6.6172,6.6445,6.6914,6.6914,6.6914,6.6914,6.6914,6.7148,6.7461,6.7461,6.7695,6.8047,6.8047,6.7773,6.7461,6.7461,6.7226,6.6914,6.6914,6.6914,6.707,6.7969,6.8789,6.9609,7.0469,7.1367,7.1992,7.1992,7.1992,7.1992,7.1992,7.1992,7.1992,7.1992,7.1992,7.1992,7.1992,7.1992,7.1992,7.1992,7.1992,7.1992,7.1992,7.1992,7.1992,7.1992,7.1992,7.1992,7.1992,7.1992,7.1992,7.1992,7.1992,7.1992,7.1992,7.1992,7.1992,7.1992,7.1992,7.1992,7.1992,7.1992,7.1992,7.1992,7.1992,7.1328,3.5776,3.8542,4.1309,4.4638,4.7439,5.0166,5.3101,5.5202,5.6808,5.7928,5.8479,5.9299,6.1056,6.172,6.1797,6.1133,6.1055,6.1133,6.1328,6.1915,6.2423,6.2657,6.4005,6.4952,6.4952,6.5155,6.5273,6.5273,6.4453,6.3984,6.3984,6.375,6.3633,6.3633,6.3633,6.3633,6.3633,6.3437,6.3203,6.3008,6.3008,6.3125,6.332,6.332,6.3906,6.4961,6.5156,6.5742,6.6562,6.6562,6.6719,6.6914,6.6914,6.6914,6.6914,6.6914,6.6914,6.6914,6.6914,6.6914,6.6914,6.6914,6.6914,6.6914,6.6914,6.6914,6.7031,6.7695,6.8476,6.9258,6.9883,7.0703,7.1367,7.1328,7.1523,7.1719,7.1953,7.1992,7.1992,7.1992,7.1992,7.1992,7.1992,7.1992,7.1992,7.1992,7.1992,7.1992,7.1992,7.1992,7.1992,7.1992,7.1992,7.1992,7.1992,7.1992,7.1992,7.1992,7.1992,7.1992,7.1992,7.1992,7.1992,7.1992,7.1992,7.1992,7.1992,7.1992,7.1992,7.1992,7.1992,7.1523,3.2891,3.5042,3.7606,4.036,4.3005,4.5845,4.9377,5.1604,5.3454,5.5158,5.6763,5.7699,5.7034,5.8244,5.9299,5.9259,5.9259,5.9533,6.0354,6.051,6.0822,6.168,6.2598,6.3154,6.3154,6.3866,6.4375,6.4375,6.3555,6.3086,6.3086,6.2265,6.1836,6.1836,6.1836,6.1836,6.1836,6.1015,6.0234,5.9453,5.9453,5.9844,6.0586,6.0586,6.1523,6.3164,6.4023,6.4844,6.5664,6.5664,6.6133,6.6914,6.6914,6.6914,6.6914,6.6914,6.6914,6.6914,6.6914,6.6914,6.6914,6.6914,6.6914,6.6914,6.6914,6.6914,6.6914,6.6953,6.7578,6.8281,6.832,6.8984,6.9609,6.9531,7.0156,7.0976,7.1836,7.1992,7.1992,7.1992,7.1992,7.1992,7.1992,7.1992,7.1992,7.1992,7.1992,7.1992,7.1992,7.1992,7.1992,7.1992,7.1992,7.1992,7.1992,7.1992,7.1992,7.1992,7.1992,7.1992,7.1992,7.1992,7.1992,7.1992,7.1992,7.1992,7.1992,7.1992,7.1992,7.1992,7.1992,7.1523,3.2699,3.3968,3.5723,3.8382,4.0197,4.2252,4.5816,4.8035,4.9845,5.1595,5.2889,5.3788,5.4067,5.684,5.8908,5.8363,5.8285,5.8363,5.8675,5.8714,5.8831,5.9143,6.0446,6.1549,6.21,6.195,6.2031,6.2578,6.1367,6.0547,6.0547,6.0273,6.0117,6.0117,6.0117,6.0117,6.0117,5.9805,5.9492,5.9219,5.9219,5.9336,5.9648,6.0156,6.0742,6.1367,6.2265,6.3437,6.4805,6.5351,6.5781,6.6133,6.668,6.6914,6.6914,6.6914,6.6562,6.6055,6.6055,6.6055,6.6055,6.6055,6.6445,6.6914,6.6914,6.6914,6.6914,6.6914,6.7539,6.8203,6.8203,6.8828,6.957,7.0117,7.0469,7.0937,7.1797,7.1992,7.1992,7.1992,7.1992,7.1992,7.1992,7.1992,7.1992,7.1992,7.1992,7.1992,7.1992,7.1992,7.1992,7.1992,7.1992,7.1992,7.1992,7.1992,7.1992,7.1992,7.1992,7.1992,7.1992,7.1992,7.1992,7.1992,7.1992,7.1992,7.1992,7.1992,7.1992,7.1992,7.1992,7.1836,3.1926,3.2699,3.3834,3.5894,3.7308,3.904,4.2325,4.4464,4.6235,4.7988,4.9521,5.0698,5.1292,5.4457,5.6879,5.6567,5.6528,5.6645,5.6919,5.6958,5.7076,5.7348,5.8647,5.9633,5.9952,5.9996,6.0116,6.039,5.9648,5.9219,5.9219,5.9219,5.9219,5.9219,5.9219,5.9062,5.8789,5.875,5.8633,5.832,5.832,5.8476,5.8789,5.9609,6.0156,6.0469,6.1328,6.2539,6.3906,6.4492,6.4883,6.5234,6.6133,6.6445,6.6445,6.6445,6.6094,6.5547,6.5273,6.5156,6.5195,6.5508,6.5976,6.6523,6.6797,6.6914,6.6914,6.6914,6.7305,6.7773,6.7773,6.8164,6.8867,7.0,7.0273,7.0625,7.1758,7.1992,7.1992,7.1992,7.1992,7.1992,7.1992,7.1992,7.1992,7.1992,7.1992,7.1992,7.1992,7.1992,7.1992,7.1992,7.1992,7.1992,7.1992,7.1992,7.1992,7.1992,7.1992,7.1992,7.1992,7.1991,7.1991,7.1991,7.1991,7.199,7.1989,7.1992,7.1992,7.1992,7.1992,7.1679,0.0,0.0,0.0,3.2742,3.4257,3.6208,3.8862,4.0892,4.2705,4.4411,4.6855,4.8705,4.8705,5.0822,5.2859,5.3756,5.395,5.4303,5.5124,5.5241,5.5592,5.641,5.7201,5.7405,5.6631,5.8082,5.871,5.793,5.8633,5.9101,5.9101,5.9101,5.9101,5.9101,5.9101,5.8711,5.7851,5.7851,5.7422,5.6601,5.6601,5.7031,5.789,5.875,5.9609,6.039,6.1289,6.2148,6.2969,6.3008,6.3515,6.4336,6.5234,6.5547,6.5547,6.5547,6.5547,6.539,6.457,6.4258,6.4414,6.5273,6.5586,6.5742,6.664,6.6914,6.6914,6.6914,6.6914,6.6914,6.6914,6.6914,6.7305,6.8984,6.9414,6.9961,7.1601,7.1992,7.1992,7.1992,7.1992,7.1992,7.1992,7.1992,7.1992,7.1992,7.1992,7.1992,7.1992,7.1992,7.1992,7.1992,7.1992,7.1992,7.1992,7.1992,7.1992,7.1992,7.1991,7.1989,7.1989,7.1984,7.2018,7.1979,7.1979,7.1975,7.2004,7.1989,7.1992,7.1992,7.1953,7.1054,3.0385,0.0,0.0,0.0,0.0,0.0,3.6314,3.8611,4.0661,4.1841,4.4143,4.6198,4.6869,4.8089,4.95,5.0944,5.2779,5.4068,5.4342,5.4342,5.4459,5.4692,5.4929,5.5209,5.5609,5.5538,5.5856,5.6874,5.6601,5.664,5.7305,5.7305,5.7305,5.7305,5.7305,5.7187,5.6953,5.6953,5.6836,5.6601,5.6601,5.6719,5.6992,5.7851,5.8711,5.957,6.039,6.125,6.2109,6.2734,6.3125,6.3437,6.4336,6.4648,6.4648,6.4648,6.4258,6.3672,6.3437,6.3359,6.3515,6.4375,6.5078,6.5742,6.664,6.6914,6.6914,6.6914,6.6914,6.6914,6.6914,6.6914,6.7186,6.828,6.8981,6.9721,7.0815,7.1557,7.1988,7.1992,7.1992,7.1992,7.1991,7.1991,7.199,7.1986,7.1986,7.1986,7.1986,7.1986,7.1986,7.1986,7.1986,7.1986,7.1986,7.1986,7.1984,7.2018,7.2016,7.1969,7.1913,7.1947,7.1901,7.1847,7.1847,7.1844,7.1879,7.1964,7.1976,7.1891,7.1346,7.0445,0.0,0.0,0.0,3.1027,0.0,0.0,3.4352,3.6918,3.9203,3.9813,4.1742,4.3689,4.4989,4.5939,4.708,4.8796,5.0632,5.2195,5.3288,5.3444,5.36,5.3951,5.399,5.4072,5.42,5.4088,5.4288,5.4918,5.5194,5.5664,5.6562,5.6601,5.6601,5.6601,5.6601,5.6601,5.6601,5.6601,5.6601,5.6601,5.6601,5.6601,5.664,5.75,5.8398,5.9258,6.0039,6.0898,6.1758,6.2265,6.2461,6.2539,6.3437,6.375,6.375,6.375,6.3437,6.2969,6.2578,6.2461,6.2617,6.3476,6.4336,6.5234,6.6094,6.6601,6.6914,6.6914,6.6913,6.6873,6.6872,6.6869,6.706,6.7913,6.8454,6.9035,6.9928,7.0513,7.1107,7.1832,7.1989,7.1987,7.1984,7.198,7.1977,7.197,7.1969,7.1968,7.1963,7.1963,7.1961,7.1916,7.1914,7.1914,7.1914,7.1914,7.1912,7.1903,7.1935,7.1881,7.1809,7.1839,7.1782,7.1713,7.1711,7.1705,7.1733,7.1868,7.1897,7.181,7.0634,6.9811,0.0,0.0,0.0,0.0,3.1835,0.0,3.3214,3.5775,3.8181,3.8252,3.969,4.1414,4.2989,4.4063,4.5245,4.6884,4.7939,4.9423,5.2039,5.2391,5.2742,5.36,5.3717,5.3408,5.2636,5.3262,5.3423,5.2764,5.4215,5.5546,5.6406,5.6445,5.6484,5.6601,5.6601,5.6601,5.6601,5.6601,5.6601,5.6601,5.6601,5.6601,5.664,5.7383,5.8242,5.9101,5.9922,6.0742,6.1562,6.164,6.1719,6.1797,6.2539,6.2851,6.2851,6.2851,6.2851,6.2734,6.1953,6.1719,6.1836,6.2734,6.3515,6.4336,6.5195,6.6054,6.6757,6.6832,6.6865,6.6859,6.6811,6.6807,6.6955,6.7671,6.7935,6.8202,6.8964,6.9194,6.9761,7.1493,7.1848,7.1844,7.196,7.191,7.1902,7.1899,7.1899,7.1893,7.1876,7.1874,7.1864,7.1761,7.1798,7.1798,7.1798,7.1798,7.1796,7.1794,7.1775,7.1747,7.1677,7.1689,7.1654,7.1573,7.1573,7.1598,7.1603,7.1728,7.1791,7.175,6.9977,6.9187,0.0,0.0,0.0,0.0,0.0,0.0,3.4067,3.5665,3.7218,3.7329,3.8785,4.0164,4.0489,4.1837,4.3254,4.4309,4.5754,4.7666,5.0242,5.0593,5.0944,5.1804,5.1921,5.1844,5.1651,5.1815,5.2133,5.2642,5.3667,5.4648,5.5508,5.5547,5.5898,5.6562,5.6601,5.6601,5.6601,5.6601,5.6601,5.6601,5.6601,5.6601,5.6601,5.6797,5.7344,5.8203,5.9062,5.9883,6.0703,6.1406,6.1719,6.1719,6.1875,6.1953,6.1953,6.1953,6.1953,6.1914,6.1758,6.1719,6.1836,6.2734,6.3125,6.3437,6.4296,6.5153,6.5966,6.6566,6.6749,6.6744,6.6727,6.6711,6.6769,6.6858,6.7421,6.7946,6.8071,6.8652,6.9439,7.0511,7.0778,7.1012,7.1733,7.1844,7.1833,7.1814,7.1811,7.1801,7.1736,7.1733,7.1719,7.1644,7.1641,7.1641,7.1641,7.1641,7.1628,7.164,7.163,7.1594,7.1555,7.1551,7.1525,7.1511,7.1511,7.1507,7.1536,7.1618,7.1633,7.1594,6.9833,6.9052,0.0,0.0,0.0,3.2314,0.0,0.0,0.0,3.5631,3.6919,3.7031,3.7831,3.8636,3.9083,3.9886,4.0913,4.2202,4.349,4.509,4.7236,4.8641,4.9617,5.0048,5.0087,5.0087,5.0087,5.0092,5.0644,5.1937,5.2844,5.3747,5.4609,5.5078,5.5508,5.5937,5.6367,5.6601,5.6601,5.6601,5.6601,5.6601,5.6601,5.6601,5.6601,5.6601,5.707,5.793,5.8359,5.9023,5.9844,6.0273,6.0469,6.0547,6.1367,6.1719,6.1719,6.1719,6.1719,6.1719,6.1719,6.1719,6.1758,6.2226,6.2655,6.3083,6.3509,6.455,6.5616,6.5927,6.6293,6.6626,6.6624,6.6602,6.6579,6.6526,6.6814,6.7143,6.7106,6.7449,6.8113,6.9387,6.9685,7.0139,7.1452,7.1719,7.1703,7.1683,7.1683,7.1669,7.1625,7.1587,7.161,7.1563,7.1555,7.1555,7.1555,7.1555,7.1546,7.1564,7.1564,7.1529,7.1455,7.1455,7.1431,7.1415,7.1415,7.1415,7.1415,7.1431,7.1484,7.1529,7.021,6.9351,0.0,0.0,0.0,0.0,0.0,3.4466,0.0,0.0,0.0,3.675,3.6887,3.7187,3.7874,3.8208,3.8806,4.0132,4.1225,4.2395,4.38,4.6066,4.7822,4.8486,4.8564,4.8642,4.8798,4.8642,4.9232,5.0803,5.1435,5.2221,5.3436,5.4179,5.4687,5.5039,5.5898,5.6367,5.6367,5.6523,5.6601,5.6601,5.6601,5.6601,5.6601,5.6601,5.6992,5.7656,5.7812,5.8281,5.8945,5.914,5.9219,5.9336,6.0703,6.1328,6.1445,6.1445,6.1562,6.1719,6.1719,6.1718,6.1718,6.1716,6.2178,6.2753,6.2895,6.3876,6.4957,6.5019,6.5645,6.6309,6.6242,6.634,6.6477,6.6398,6.6377,6.6368,6.6363,6.6354,6.6858,6.8554,6.8864,6.9453,7.1252,7.1598,7.1573,7.1573,7.1573,7.1556,7.1502,7.1463,7.1484,7.147,7.1465,7.1465,7.1465,7.1465,7.1465,7.1465,7.1465,7.1445,7.1361,7.1361,7.1378,7.1297,7.1297,7.1297,7.1297,7.1297,7.134,7.1426,7.0574,6.9799,0.0,0.0,0.0,0.0,3.4734,0.0,0.0,0.0,3.5868,3.5918,0.0,3.6107,3.6236,0.0,0.0,3.7711,3.9078,4.017,4.0365,4.1966,4.4269,4.7353,4.7743,4.8017,4.872,4.8134,4.8138,4.9123,4.8544,4.9214,5.1561,5.1797,5.2539,5.4101,5.5,5.5469,5.5469,5.6211,5.6601,5.6601,5.6601,5.6601,5.6601,5.6601,5.664,5.6797,5.7578,5.7969,5.8125,5.8867,5.9219,5.9219,5.9414,5.9922,6.0547,6.0547,6.1055,6.1719,6.1718,6.1715,6.171,6.1703,6.172,6.1873,6.2554,6.2858,6.316,6.3842,6.466,6.5262,6.5252,6.5821,6.6394,6.6336,6.6322,6.6307,6.6254,6.6205,6.6747,6.8483,6.8793,6.9371,7.1189,7.1513,7.1508,7.1508,7.1508,7.1489,7.1401,7.1396,7.1376,7.1318,7.1313,7.1313,7.1313,7.1313,7.1313,7.1313,7.1313,7.1313,7.1302,7.1302,7.1302,7.1297,7.1297,7.1297,7.1297,7.1297,7.1302,7.1313,7.0423,6.9959,0.0,0.0,0.0,0.0,0.0,0.0,3.6994,0.0,3.6604,0.0,0.0,0.0,0.0,0.0,0.0,0.0,3.822,3.8531,3.9039,3.9742,4.1303,4.423,4.5012,4.548,4.5793,4.5987,4.6223,4.6617,4.725,4.8077,4.9136,5.0584,5.1757,5.2461,5.3828,5.4805,5.5312,5.5664,5.6094,5.6601,5.6601,5.6601,5.6601,5.6601,5.6601,5.6601,5.6992,5.7148,5.7187,5.7539,5.7695,5.7695,5.7695,5.8789,6.039,6.039,6.0937,6.1718,6.1715,6.1667,6.165,6.1602,6.1554,6.158,6.1839,6.2224,6.2698,6.2989,6.3693,6.4455,6.4913,6.5325,6.5708,6.6148,6.622,6.6215,6.619,6.6185,6.6572,6.781,6.8462,6.9174,7.0426,7.1056,7.1366,7.1366,7.1366,7.1355,7.1334,7.1329,7.1318,7.1297,7.1297,7.1297,7.1297,7.1297,7.1297,7.1297,7.1297,7.1297,7.1297,7.1297,7.1297,7.1297,7.1297,7.1297,7.1297,7.1297,7.1297,7.1297,7.091,7.0484,3.7093,0.0,0.0,0.0,0.0,0.0,0.0,0.0,0.0,0.0,0.0,0.0,0.0,0.0,0.0,3.8024,0.0,3.7438,3.7829,3.8102,3.9117,4.1419,4.2669,4.3451,4.3685,4.4075,4.4386,4.462,4.5801,4.6628,4.6868,4.9099,5.0351,5.0351,5.2266,5.3594,5.4219,5.4922,5.5625,5.625,5.6484,5.6601,5.6601,5.6601,5.6601,5.6601,5.6601,5.6445,5.625,5.6484,5.6445,5.6289,5.6523,5.789,5.9726,5.9961,6.0624,6.1363,6.1587,6.164,6.1551,6.1484,6.1463,6.1425,6.1318,6.1714,6.2206,6.2125,6.2722,6.3564,6.4145,6.4643,6.5146,6.5721,6.6031,6.6185,6.6185,6.6185,6.6456,6.7346,6.8192,6.9048,6.9865,7.0717,7.1297,7.1297,7.1297,7.1297,7.1297,7.1297,7.1297,7.1297,7.1297,7.1297,7.1297,7.1297,7.1297,7.1297,7.1297,7.1297,7.1297,7.1297,7.1297,7.1297,7.1297,7.1297,7.1297,7.1297,7.1297,7.1297,7.1297,7.0949,0.0,0.0,0.0,3.827,0.0,0.0,0.0,0.0,3.8356,0.0,0.0,0.0,0.0,0.0,0.0,0.0,3.7321,0.0,0.0,3.6813,3.7985,3.9663,4.138,4.2786,4.3607,4.2942,4.2825,4.3685,4.3771,4.4207,4.5032,4.6755,4.7733,4.7734,5.0156,5.1484,5.1523,5.4023,5.5312,5.5351,5.6211,5.6601,5.6601,5.6601,5.6601,5.6601,5.6601,5.6133,5.539,5.625,5.6094,5.543,5.6289,5.7187,5.8086,5.8944,5.9761,6.0534,6.1325,6.1562,6.1475,6.1366,6.1326,6.1272,6.1221,6.1229,6.122,6.1171,6.1776,6.2433,6.2467,6.3748,6.4991,6.503,6.5644,6.6185,6.6185,6.6185,6.6456,6.7346,6.8192,6.9048,6.9865,7.0717,7.1297,7.1297,7.1297,7.1297,7.1297,7.1297,7.1297,7.1297,7.1297,7.1297,7.1297,7.1297,7.1297,7.1297,7.1297,7.1297,7.1297,7.1297,7.1297,7.1297,7.1297,7.1297,7.1297,7.1297,7.1297,7.1297,7.1297,7.1297,0.0,0.0,3.9344,3.9935,0.0,0.0,0.0,0.0,0.0,0.0,0.0,0.0,0.0,0.0,0.0,0.0,0.0,0.0,0.0,3.6265,3.7086,3.8805,4.0015,4.103,4.1889,4.1694,4.1655,4.1967,4.2516,4.3226,4.4095,4.5776,4.699,4.7578,4.9531,5.0859,5.1406,5.2851,5.4141,5.5312,5.5586,5.6055,5.6601,5.6601,5.6601,5.6601,5.6601,5.6094,5.5312,5.5625,5.5586,5.5312,5.5625,5.6289,5.7147,5.7964,5.9166,6.051,6.1229,6.143,6.1366,6.1267,6.1234,6.1221,6.1159,6.1141,6.1137,6.1123,6.1311,6.1655,6.2235,6.2854,6.3439,6.3985,6.4798,6.5417,6.5417,6.5837,6.6301,6.6572,6.7346,6.8197,6.9048,6.9899,7.0639,7.1219,7.1297,7.1297,7.1297,7.1297,7.1297,7.1297,7.1297,7.1297,7.1297,7.1297,7.1297,7.1297,7.1297,7.1297,7.1297,7.1297,7.1297,7.1297,7.1297,7.1297,7.1297,7.1297,7.1297,7.1297,7.1297,7.1297,4.0064,4.0181,0.0,4.089,4.0661,0.0,4.0983,0.0,0.0,0.0,0.0,0.0,0.0,0.0,0.0,0.0,0.0,0.0,0.0,3.693,3.7438,3.8844,3.9235,3.982,4.0991,4.1109,4.1109,4.1109,4.1927,4.252,4.2767,4.472,4.5934,4.6211,4.8203,4.9687,5.0508,5.1641,5.2969,5.4375,5.5,5.543,5.5703,5.6328,5.6445,5.6133,5.6133,5.5625,5.4844,5.4844,5.4844,5.4883,5.5195,5.582,5.6714,5.749,5.8869,6.044,6.1113,6.1306,6.1263,6.1186,6.1159,6.1155,6.1127,6.1118,6.1118,6.1118,6.1118,6.1234,6.1771,6.2158,6.2544,6.3091,6.3908,6.4604,6.4914,6.5417,6.5876,6.6147,6.6882,6.7771,6.8656,6.9473,7.0291,7.1181,7.1297,7.1297,7.1297,7.1297,7.1297,7.1297,7.1297,7.1297,7.1297,7.1297,7.1297,7.1297,7.1297,7.1297,7.1297,7.1297,7.1297,7.1297,7.1297,7.1297,7.1297,7.1297,7.1297,7.1297,7.1297,7.1297]}]]